GFSGL_sfc_thetae_000.txt.gz
Theta_e
312 313 313 313 313 312 312 313 313 313 315 316 317 318 317 316 318 320 319 320 319 318 318 318 316 314 309 306 307 313 309 308 303 307 310 312 314 313 315 313 315 313 313
315 313 313 314 311 310 310 311 313 313 314 315 316 317 317 317 317 317 315 315 315 314 314 314 313 317 312 312 312 312 312 311 308 309 310 307 307 306 304 303 306 311 308
315 313 313 312 309 308 309 310 311 311 312 313 314 315 316 316 314 312 311 310 308 308 309 309 309 310 308 307 307 309 307 312 313 311 302 300 300 299 300 301 301 303 309
315 314 312 309 308 307 309 310 310 309 309 309 311 313 314 314 313 310 308 304 302 301 301 302 305 307 307 306 306 306 306 309 304 302 299 297 297 297 298 297 296 297 297
316 314 312 311 308 307 309 309 309 308 309 307 306 307 310 312 312 306 303 299 296 296 296 298 301 306 309 307 304 302 304 303 299 297 295 294 293 294 294 295 293 293 295
316 315 316 313 310 307 308 308 308 307 305 305 304 304 305 309 303 304 301 297 295 293 293 293 296 302 303 304 304 304 303 301 297 296 293 292 291 292 293 293 291 290 290
317 319 318 315 310 308 308 308 305 303 303 302 301 301 302 304 301 301 302 297 293 292 291 291 292 297 299 298 299 301 302 302 301 297 294 291 290 291 293 291 291 290 290
318 319 319 315 311 309 308 307 306 302 301 300 300 300 300 301 300 300 301 298 296 295 295 295 292 292 294 296 293 293 294 295 296 297 294 292 290 292 294 293 292 291 292
318 318 320 317 314 310 308 307 307 304 302 301 301 300 299 299 298 300 303 303 302 301 302 301 296 295 294 294 292 290 289 290 295 295 293 293 292 293 293 291 289 288 286
317 319 321 319 316 312 309 308 309 307 306 304 301 300 300 299 296 298 301 302 300 300 299 300 300 298 294 293 289 288 287 287 288 287 288 289 290 291 295 291 290 288 287
319 320 320 320 318 316 313 310 310 310 309 306 303 301 299 297 298 296 298 302 302 299 298 296 295 296 293 292 290 286 286 286 289 286 286 287 288 289 290 291 291 291 289
320 320 320 320 321 319 316 314 311 311 309 307 306 304 304 300 297 295 295 298 299 300 299 297 294 293 292 291 292 291 291 290 287 287 288 288 289 290 291 295 294 292 293
318 318 319 320 321 320 318 316 314 312 311 309 308 308 308 309 304 297 294 294 295 298 297 296 294 292 292 290 291 291 292 290 288 288 289 290 292 293 296 296 295 295 294
316 314 317 318 319 320 321 320 318 315 313 311 310 310 310 309 309 306 302 295 295 297 296 294 294 292 291 291 289 291 291 292 292 289 289 291 291 291 293 295 294 293 291
315 315 312 316 317 319 321 321 320 320 317 315 314 313 311 310 311 308 306 301 297 296 292 289 288 287 287 288 287 287 288 288 289 289 289 290 291 291 290 293 293 290 288
313 313 314 313 315 318 320 320 307 307 304 302 304 312 316 307 301 299 299 299 296 293 292 289 290 290 290 289 288 288 286 289 289 290 289 290 289 291 293 294 291 289 287
314 314 314 312 317 317 319 319 318 317 301 301 299 297 298 300 296 298 299 298 298 294 299 299 296 292 292 291 289 287 287 289 290 290 292 291 292 295 292 293 291 290 288
316 307 318 318 318 319 320 320 320 319 318 321 297 297 296 294 295 299 299 299 297 297 300 301 296 297 293 287 286 287 287 287 287 289 291 295 295 294 293 291 290 289 287
317 316 317 318 319 320 321 322 322 320 318 315 300 295 295 297 298 294 295 305 303 301 301 301 298 292 289 288 287 288 288 288 289 290 294 295 294 294 293 292 292 288 287
320 309 311 316 313 313 313 315 314 314 314 316 310 306 301 302 303 301 301 306 306 304 300 297 291 291 289 288 288 289 290 288 290 293 294 295 294 293 292 292 291 288 286
315 312 303 317 316 315 316 316 314 312 312 312 309 303 295 306 304 304 301 299 296 293 292 291 291 290 290 290 289 289 289 292 293 294 294 294 294 292 293 293 290 287 287
317 316 317 316 315 314 313 312 310 308 307 304 300 297 289 300 298 296 294 294 293 293 293 291 291 291 290 290 291 291 293 293 293 294 294 293 293 293 293 292 290 287 287
319 317 315 315 314 307 313 312 309 308 306 303 302 300 300 298 297 296 295 295 294 292 292 292 291 290 290 293 295 294 294 294 294 294 293 293 292 292 292 289 288 286 286
318 317 316 315 315 312 310 307 305 299 302 301 299 298 297 296 295 295 296 296 297 295 293 292 291 292 292 292 295 295 295 295 295 295 294 293 292 290 291 291 290 288 286
315 314 312 311 309 308 307 306 304 303 302 301 299 299 300 297 295 295 294 293 292 292 291 291 292 293 292 292 293 292 289 287 291 289 291 291 291 291 290 289 289 285 285
311 310 307 305 304 303 302 301 300 299 298 298 297 297 295 294 293 293 292 292 291 291 291 291 291 292 291 291 290 286 285 284 285 287 290 290 290 290 289 288 288 286 286

GFSGL_sfc_thetae_003.txt.gz
Theta_e
307 309 310 310 310 310 310 310 311 312 314 315 315 315 316 317 317 317 316 316 316 314 314 314 311 308 305 304 305 308 304 303 301 306 309 310 311 311 310 312 312 310 310
310 310 310 309 308 308 309 310 310 311 312 314 315 316 316 315 313 314 313 313 313 312 312 313 312 311 307 307 310 311 307 306 306 308 306 302 302 302 302 303 309 307 304
312 311 310 308 306 306 307 309 310 311 311 313 314 314 314 312 311 310 310 309 308 308 309 310 309 309 307 307 307 308 308 311 311 309 301 298 298 298 299 300 302 302 307
312 311 310 307 306 306 307 308 309 309 309 310 312 312 312 310 309 307 305 303 302 302 303 306 308 307 307 306 306 306 309 308 306 301 297 295 296 296 297 297 296 296 295
312 311 309 307 305 306 307 306 306 307 308 309 310 310 309 309 308 304 302 299 299 298 299 301 303 307 310 307 305 303 306 301 299 297 295 293 293 293 294 295 292 292 294
312 312 310 308 306 306 306 305 305 305 304 305 306 307 307 308 301 302 300 296 295 295 295 295 298 304 304 304 305 305 305 300 297 296 293 293 291 291 293 292 290 290 291
313 313 313 310 307 306 306 306 303 301 301 301 302 304 304 303 298 298 299 294 292 290 290 291 294 298 299 298 300 302 302 301 301 297 295 293 292 292 293 290 289 288 289
313 315 314 310 306 306 305 304 301 300 299 298 299 300 302 303 298 297 297 292 290 290 290 289 290 293 294 296 295 295 293 294 294 296 295 294 291 292 293 291 291 290 290
314 316 315 311 307 306 305 303 302 300 299 299 299 299 301 301 298 297 297 294 293 293 295 295 291 290 293 293 293 292 291 291 294 295 294 293 292 293 294 292 289 289 286
314 316 317 313 309 306 305 304 304 301 300 300 299 299 300 301 296 296 299 300 297 298 298 298 299 293 293 293 291 289 289 290 288 287 288 289 291 292 295 290 289 288 286
316 317 318 315 311 308 306 305 306 304 302 300 299 298 298 298 298 296 297 302 301 299 298 298 298 296 294 292 291 288 289 287 289 286 286 286 287 288 290 291 290 289 287
315 317 317 316 316 311 308 306 307 306 304 302 300 298 298 297 296 295 295 297 299 300 298 299 296 294 294 292 291 289 289 289 285 285 284 285 286 287 288 290 292 291 291
314 315 316 318 317 315 310 308 306 306 306 305 305 303 303 303 300 296 294 294 296 299 299 297 294 293 292 292 291 291 290 286 284 284 285 286 288 290 291 292 293 293 292
313 315 316 316 317 317 315 313 311 309 308 308 307 307 307 305 305 302 299 295 295 298 298 295 294 293 292 292 290 291 291 291 288 286 287 290 292 292 292 295 294 293 291
314 315 316 317 315 317 317 316 315 314 311 311 310 310 308 306 309 306 305 303 297 295 293 290 289 290 290 290 289 288 289 289 292 294 292 292 292 293 294 294 295 294 292
314 314 315 316 316 317 317 317 305 304 302 301 298 308 313 300 298 297 298 297 295 292 293 293 297 296 294 296 295 292 289 290 290 292 292 293 294 294 293 293 293 292 290
314 315 314 313 315 316 316 316 315 313 301 297 299 297 297 295 295 295 295 295 293 294 302 304 300 300 296 296 295 294 292 291 290 290 290 291 292 292 291 293 292 290 288
315 305 314 312 314 314 315 316 316 316 314 315 296 298 295 295 295 295 294 298 299 296 302 304 306 300 296 297 296 291 290 287 286 287 287 288 289 292 293 293 293 291 288
314 313 313 313 313 313 315 315 316 316 316 315 301 297 294 292 293 292 294 310 305 299 299 301 301 302 301 297 292 288 287 285 285 285 286 289 292 293 293 294 293 288 288
313 306 308 314 314 314 315 315 316 317 316 313 308 302 299 301 304 304 302 305 304 304 303 302 300 296 293 289 288 286 285 286 285 285 286 289 292 293 293 293 292 291 290
314 310 302 311 311 313 312 312 312 313 312 306 303 299 293 304 302 303 302 302 301 299 298 295 291 290 290 289 287 287 286 287 287 287 288 292 293 293 293 293 291 290 290
312 313 314 313 314 313 310 309 308 305 302 301 300 298 293 301 299 296 294 294 293 292 292 291 290 289 289 289 289 288 288 288 289 290 292 293 293 292 292 291 291 290 289
315 313 312 311 309 301 308 309 307 305 303 302 302 302 300 299 299 298 296 296 295 294 292 292 291 290 290 290 290 291 291 292 294 293 292 291 290 290 291 290 292 289 288
316 314 314 313 312 310 310 309 306 300 304 302 300 298 297 297 296 295 295 294 293 292 292 291 291 291 291 290 290 290 290 289 290 291 293 292 291 290 291 290 289 289 288
316 315 312 309 307 305 304 304 302 302 300 299 297 295 295 295 294 292 291 290 290 291 290 290 290 290 290 289 289 289 286 286 288 287 289 289 288 289 290 289 289 287 286
312 310 308 307 306 304 302 299 298 298 296 296 295 294 294 293 293 292 292 292 291 291 291 290 290 290 290 289 288 285 284 283 282 283 286 287 288 289 291 289 288 287 287

GFSGL_sfc_thetae_006.txt.gz
Theta_e
309 311 312 312 312 312 312 313 315 316 317 316 317 318 318 319 320 319 319 320 318 318 319 319 317 316 313 309 313 310 308 309 307 311 314 315 316 319 317 318 318 317 314
309 311 311 311 311 311 312 312 313 315 316 318 320 318 317 316 318 318 317 317 316 316 316 316 313 312 312 312 315 314 313 312 312 313 312 308 309 308 311 313 310 308 310
311 311 310 309 310 310 311 312 313 314 315 317 317 315 314 314 313 313 313 312 312 313 314 314 312 313 312 313 315 315 313 313 316 313 306 303 304 305 307 307 308 309 309
312 311 310 308 309 309 310 311 312 313 314 314 315 314 313 312 311 310 310 309 309 309 311 312 312 313 314 313 313 314 314 315 313 308 304 302 303 303 305 305 305 304 304
312 311 311 308 308 309 310 310 311 312 313 314 313 312 311 311 309 309 309 308 307 306 307 308 310 312 311 311 312 314 315 311 309 306 303 302 302 302 305 303 303 301 303
312 312 311 308 307 309 308 308 309 309 310 312 312 311 311 309 301 302 305 305 304 305 305 304 306 307 306 304 305 305 307 311 307 305 302 304 302 302 301 302 300 299 298
312 313 311 309 308 308 307 307 306 306 307 309 309 310 309 307 298 298 299 301 301 301 301 301 302 302 304 305 303 302 302 301 304 308 307 305 304 303 302 299 299 299 300
312 313 312 309 307 308 307 306 304 304 305 305 306 307 308 307 297 296 296 298 297 297 298 298 301 300 301 302 302 302 301 301 303 303 308 309 307 304 304 303 301 299 298
312 314 314 310 307 307 307 305 303 303 302 303 304 305 306 307 297 295 297 297 297 297 297 297 296 298 295 294 301 300 299 297 295 295 295 295 293 294 298 298 297 297 297
313 315 315 311 308 307 307 305 305 304 304 303 303 304 302 306 296 295 298 299 299 299 301 301 297 296 293 292 299 299 299 299 295 294 296 296 296 297 296 302 299 297 295
315 316 316 312 309 308 307 306 306 305 305 303 303 303 303 303 303 296 296 305 305 304 303 303 303 295 292 292 293 298 298 295 294 294 294 294 295 297 299 299 299 299 296
315 316 316 314 312 309 307 307 308 305 304 303 303 302 302 303 298 295 295 297 301 306 305 304 303 295 294 292 294 292 289 291 293 293 292 292 293 294 295 297 299 298 298
314 315 316 315 314 310 307 306 307 307 305 305 304 304 303 303 303 296 294 294 295 304 305 300 296 294 293 294 292 292 290 292 292 291 291 292 292 295 296 295 297 298 298
313 314 316 316 315 313 311 309 309 308 307 307 306 306 307 307 306 305 301 299 295 299 299 300 298 296 294 296 296 295 296 294 293 292 293 294 293 294 294 295 295 296 295
312 314 315 316 315 315 314 311 310 311 310 310 309 310 309 308 310 306 304 304 300 298 298 298 297 298 300 299 296 296 295 295 294 295 294 294 294 294 295 297 296 297 295
312 313 314 315 315 317 316 315 302 301 300 299 297 307 312 303 300 297 298 296 293 292 298 299 298 299 301 301 298 298 295 293 295 295 296 297 296 296 296 297 297 297 296
312 313 314 313 315 316 316 316 315 312 299 296 296 296 297 302 295 294 295 294 291 293 304 302 302 302 302 302 300 299 298 297 297 295 295 294 295 296 295 296 296 295 293
314 304 314 315 315 316 316 317 317 316 316 316 298 297 295 294 294 293 292 295 297 297 304 306 307 307 305 302 300 299 297 297 294 293 294 293 294 294 294 293 293 293 294
315 315 316 316 316 314 316 317 317 317 317 317 304 298 294 292 292 291 293 311 309 305 304 304 304 306 304 303 301 299 295 292 291 291 291 291 292 292 292 293 293 289 291
315 308 310 316 315 314 315 315 316 316 315 314 311 305 302 303 306 303 307 309 308 307 306 305 306 302 299 297 294 293 292 292 292 292 292 292 292 292 292 293 294 294 294
313 313 304 313 312 313 314 314 315 315 310 306 304 298 291 307 305 303 302 301 301 300 298 297 295 295 295 294 293 293 293 293 294 294 294 294 294 294 296 296 296 296 296
312 310 311 312 314 314 313 312 309 306 303 300 300 298 290 301 301 301 299 297 296 295 294 295 293 293 294 294 294 295 294 294 295 296 295 295 296 296 295 294 295 295 294
314 313 312 311 309 302 307 307 305 303 302 302 302 301 302 302 301 300 297 296 295 294 294 295 295 294 294 295 295 294 293 292 293 294 294 294 295 295 295 295 293 292 291
313 312 311 311 311 309 307 305 304 299 304 302 302 302 300 298 297 295 293 293 293 294 294 294 294 294 294 294 294 294 292 292 294 294 295 295 295 294 295 294 293 291 289
315 312 311 310 309 308 307 306 305 303 301 299 298 297 295 294 293 293 294 294 294 294 293 294 294 294 294 293 292 291 287 286 290 287 294 294 294 293 294 293 291 289 289
315 314 312 311 308 306 304 302 300 299 298 297 296 295 295 294 294 294 294 294 293 294 294 294 293 294 293 292 290 286 285 285 287 285 292 293 292 292 292 290 289 289 288

GFSGL_sfc_thetae_009.txt.gz
Theta_e
322 322 324 322 322 324 324 325 324 326 325 324 324 323 324 328 330 331 333 332 332 330 331 331 329 330 327 324 321 319 316 316 311 315 317 322 324 324 324 326 323 324 318
321 321 322 322 322 323 324 325 327 327 328 328 327 327 325 326 328 329 329 330 330 328 328 329 328 327 328 326 323 321 319 320 316 316 319 320 322 324 325 324 321 320 317
319 320 321 321 321 323 323 323 326 327 327 327 327 326 326 324 324 324 325 326 328 329 329 328 327 328 325 325 325 320 321 320 322 317 316 317 317 318 319 318 316 317 313
319 320 320 321 321 322 323 324 325 326 326 325 325 324 323 323 322 321 322 321 321 323 326 326 326 327 326 324 323 324 322 322 322 318 316 316 316 315 319 315 312 313 311
320 320 321 320 320 320 322 323 323 325 325 325 324 324 324 322 320 323 323 323 321 319 319 320 320 317 313 317 324 325 325 322 319 318 317 316 315 313 316 316 315 312 312
321 320 321 318 318 320 320 321 322 323 323 324 323 323 323 317 301 305 318 322 322 321 319 319 317 313 309 306 308 309 321 325 323 319 318 317 319 317 316 315 314 310 308
321 321 320 318 317 319 319 320 320 323 324 323 322 323 323 320 299 299 305 320 320 320 319 318 314 311 315 316 304 304 303 303 309 325 322 321 321 319 318 315 315 313 313
321 320 320 317 317 319 318 320 320 320 323 322 322 323 322 318 297 296 301 315 315 314 316 316 317 316 313 315 317 316 317 316 317 317 322 324 322 322 319 318 317 315 312
320 320 320 317 317 318 318 318 319 319 319 319 320 320 321 319 296 295 304 311 309 308 307 308 311 310 297 296 314 313 313 313 298 296 296 294 295 296 307 312 309 308 307
320 320 321 318 317 318 320 318 318 319 319 317 317 319 312 320 295 294 303 307 308 305 307 307 297 304 293 294 310 310 309 311 308 306 308 303 299 303 297 312 311 305 304
320 321 322 320 318 320 321 320 318 317 317 316 315 317 317 317 315 295 295 310 308 307 307 308 308 293 292 292 296 309 308 307 302 306 305 305 305 307 306 307 310 307 303
321 321 322 322 317 318 320 319 319 318 317 317 316 316 315 317 303 296 295 296 305 315 314 314 312 294 292 292 294 297 292 295 306 305 304 304 303 303 305 307 309 308 307
320 321 323 323 321 318 319 319 317 318 316 315 313 313 313 313 315 297 295 294 295 311 317 309 300 294 293 294 292 294 289 302 308 307 306 306 305 305 306 305 306 308 308
320 322 323 323 322 320 317 318 317 316 316 315 313 313 315 315 313 314 309 306 297 303 300 308 304 301 299 301 303 301 306 309 308 307 307 307 305 303 302 303 301 302 300
322 322 323 322 322 322 320 318 316 322 316 317 317 317 318 318 318 311 311 314 314 308 308 312 310 310 310 311 311 310 309 308 306 306 305 304 303 303 303 305 302 299 299
321 321 321 321 322 321 320 319 303 301 299 298 299 311 319 304 298 298 297 297 296 293 307 313 313 312 311 314 314 315 314 307 308 304 304 304 304 301 300 302 300 299 300
321 322 322 319 321 321 320 319 317 312 297 296 295 297 296 296 296 296 295 292 290 293 313 308 306 310 310 313 314 312 311 310 305 304 301 300 298 299 298 299 300 300 299
322 307 322 321 322 321 321 321 320 319 320 320 296 297 295 295 296 293 291 297 302 305 314 314 316 317 316 313 311 306 305 302 298 297 298 300 300 299 298 299 299 298 298
321 321 321 322 322 320 323 322 321 321 321 322 314 304 296 291 290 291 294 317 319 317 315 311 310 310 309 303 302 301 297 296 295 298 299 300 300 299 299 300 300 290 292
322 309 313 324 322 321 321 321 321 322 322 322 321 317 311 309 313 312 314 316 308 310 307 304 302 302 299 296 295 298 298 299 300 300 301 301 301 301 301 301 300 299 299
320 319 308 320 323 323 320 321 321 321 322 322 318 311 296 314 312 311 310 307 304 303 300 299 299 297 296 297 299 298 299 299 300 299 299 299 301 301 301 301 300 301 299
321 320 318 320 320 321 320 321 322 321 318 314 309 303 291 308 303 304 303 300 300 302 299 299 299 296 298 298 299 298 297 297 297 298 299 300 300 301 300 300 299 297 297
320 319 319 319 319 310 319 319 317 316 313 309 308 308 309 308 307 303 303 300 297 297 301 299 298 297 298 298 297 298 297 297 298 299 299 299 300 299 299 298 295 294 292
319 319 319 319 317 318 316 314 312 305 310 309 309 308 306 304 302 299 295 296 296 296 299 299 299 298 297 297 297 297 298 300 300 299 299 299 298 297 298 297 296 294 292
319 320 318 317 315 313 311 311 310 310 307 304 301 300 300 295 295 295 297 297 298 297 296 297 297 296 297 298 298 298 288 285 294 288 300 298 297 297 296 295 294 293 291
319 317 316 315 313 313 310 308 307 304 301 299 297 296 295 296 296 298 298 299 298 296 296 297 298 298 298 298 295 287 285 285 291 285 297 298 297 297 296 295 295 292 289

GFSGL_sfc_thetae_012.txt.gz
Theta_e
325 326 327 326 329 330 330 331 331 331 332 325 325 326 327 328 329 334 331 329 327 327 329 326 324 324 323 324 325 322 328 325 321 321 323 326 325 324 323 327 324 321 319
323 325 327 326 328 329 330 331 333 332 331 333 330 329 328 329 330 331 331 332 330 329 329 329 325 327 327 330 327 330 327 327 324 319 322 322 325 329 327 329 325 326 325
320 322 326 326 327 329 330 331 332 331 333 333 332 327 331 333 334 335 336 334 331 331 332 332 332 332 329 331 331 324 323 321 324 319 319 322 325 327 328 328 327 327 324
320 320 322 326 326 329 330 331 330 330 331 333 333 331 331 329 328 331 334 335 335 335 335 334 334 334 332 332 329 329 325 323 324 321 321 321 321 324 325 322 320 321 319
320 320 321 325 326 327 328 330 331 330 329 328 328 327 327 326 325 328 329 330 331 331 332 332 333 323 315 320 324 329 328 324 322 320 319 319 320 320 321 323 321 321 322
322 321 321 320 323 325 328 329 330 330 329 329 328 327 326 322 303 310 323 326 326 326 325 324 322 317 312 308 309 308 322 329 327 322 321 321 324 323 324 323 322 320 316
322 322 322 319 319 323 325 325 328 329 331 329 328 327 327 322 300 303 311 330 328 327 326 326 322 320 321 320 306 306 307 306 311 331 328 326 326 328 328 325 325 322 321
322 322 322 319 317 321 323 325 329 331 331 330 329 329 328 318 299 300 308 328 328 328 329 329 327 326 322 323 323 324 324 324 325 323 330 331 331 331 330 328 327 326 325
320 322 322 320 318 320 321 325 328 329 330 329 329 328 327 322 297 297 308 323 322 322 321 322 323 322 300 300 318 319 320 321 297 298 299 296 295 296 306 324 319 317 315
320 321 322 321 319 320 322 325 327 327 326 324 325 327 316 325 296 295 304 315 317 314 316 315 299 309 295 296 319 319 317 319 318 315 316 306 301 308 297 315 317 312 312
322 322 323 323 321 323 325 326 326 325 323 324 322 325 324 322 315 294 295 314 313 311 311 311 308 295 294 294 295 318 315 316 310 313 314 314 314 314 313 313 314 312 309
322 321 323 325 321 321 326 325 324 323 322 322 321 321 321 324 308 295 294 295 305 316 317 318 316 292 292 292 295 297 295 297 312 314 313 312 313 312 313 313 315 314 313
323 322 324 325 323 322 324 324 321 323 318 318 317 317 318 320 322 299 295 294 296 318 323 310 299 294 293 293 291 293 291 309 311 312 314 315 315 315 315 314 315 313 313
323 323 324 324 323 321 322 322 320 320 318 317 317 317 318 318 319 319 314 310 299 306 307 316 309 305 303 304 307 304 309 313 314 316 316 315 314 313 312 314 312 311 308
323 324 324 325 324 322 321 320 319 325 318 319 319 319 319 318 318 312 314 318 319 313 315 320 316 316 314 315 316 318 319 319 317 317 315 316 316 315 311 309 306 306 305
326 323 323 323 324 322 320 318 303 302 302 298 302 310 319 304 298 299 302 300 299 296 313 320 321 322 322 322 324 326 324 313 318 315 312 309 304 304 300 300 303 305 305
328 326 322 319 322 321 320 318 317 310 298 296 297 298 298 306 296 298 295 293 292 297 319 323 321 320 321 323 320 317 314 311 310 310 302 303 300 300 303 303 305 305 303
331 309 323 322 322 322 321 320 319 317 316 316 297 300 295 295 295 293 292 296 308 308 322 322 321 323 318 317 307 306 305 301 300 302 300 301 303 303 303 304 304 303 302
326 325 325 323 322 320 322 322 320 319 318 316 318 305 297 292 292 291 293 322 325 323 322 318 317 311 303 304 302 302 301 298 297 302 304 303 305 305 303 303 302 293 294
326 312 315 323 322 322 322 321 321 321 320 320 324 324 314 309 317 318 323 326 322 315 314 306 304 302 302 299 298 299 298 298 301 303 302 302 302 302 301 300 301 300 301
325 325 311 322 323 322 322 322 322 321 321 322 322 321 302 325 321 321 318 320 315 312 308 302 306 306 299 300 303 306 306 303 301 301 301 300 301 300 302 302 302 301 299
325 324 322 322 323 322 323 323 323 322 322 323 323 315 294 324 322 316 313 310 306 308 310 306 303 303 303 303 303 302 301 300 300 300 300 301 302 302 301 301 299 298 297
325 324 324 322 323 314 321 323 322 323 324 323 320 317 318 316 312 310 310 309 307 306 305 305 304 302 302 301 300 300 299 300 302 302 300 301 301 300 300 300 299 298 297
324 324 324 323 322 322 323 323 324 314 323 319 318 317 315 314 311 309 306 305 302 301 300 301 301 301 301 301 301 302 302 303 303 302 301 300 300 298 299 298 298 297 294
323 324 323 323 322 322 323 323 323 321 318 317 316 314 312 310 308 304 302 299 299 301 300 300 300 301 301 301 301 300 289 286 295 288 301 300 299 300 299 298 298 298 296
323 322 323 323 322 321 319 317 317 316 313 311 311 308 305 302 299 299 300 301 299 299 300 300 300 300 299 299 297 287 285 285 292 286 298 301 299 298 298 297 296 296 295

GFSGL_sfc_thetae_015.txt.gz
Theta_e
327 328 328 329 331 332 332 332 333 334 329 328 329 332 331 333 334 335 333 333 332 331 328 327 324 323 323 323 321 322 319 322 319 326 327 333 336 335 329 331 322 320 318
326 327 326 328 331 332 332 333 333 333 332 329 328 328 329 332 333 333 330 331 330 327 325 324 323 325 323 323 323 323 322 328 328 323 328 326 327 331 329 333 325 321 323
322 326 327 326 329 331 332 332 335 335 334 334 332 330 331 330 330 331 331 329 331 329 326 324 324 324 323 325 325 322 328 326 329 323 321 324 324 327 327 332 333 334 328
320 322 326 326 328 330 332 332 332 334 334 333 333 330 329 333 334 335 332 332 331 329 330 330 330 327 329 331 329 327 331 328 328 324 322 323 325 330 328 325 324 326 324
319 320 323 327 327 329 331 331 330 331 332 332 330 328 328 328 329 335 335 336 335 334 336 333 334 331 324 327 327 333 334 327 323 322 320 321 321 322 323 324 323 324 327
320 319 321 324 324 326 330 331 331 329 328 328 327 326 327 324 306 312 326 332 334 333 330 329 324 321 315 309 311 310 324 335 333 321 321 321 329 327 326 325 325 323 320
321 321 320 321 322 325 326 328 328 330 331 330 329 328 325 323 305 308 315 329 329 330 329 328 325 321 322 324 310 309 310 310 314 334 330 330 332 332 333 331 330 327 324
321 321 320 318 320 323 324 326 330 331 331 329 328 328 327 315 302 305 312 332 331 330 331 329 329 328 324 324 324 324 325 326 327 327 332 334 334 337 337 335 335 334 330
321 321 321 318 319 322 323 327 331 331 332 330 329 329 328 321 299 299 309 329 328 328 329 329 329 328 304 304 323 322 323 324 301 302 302 298 297 298 305 325 322 320 318
321 322 322 320 319 321 326 329 331 331 330 327 328 329 319 326 298 297 304 320 324 321 323 321 302 316 299 299 322 323 321 322 321 315 319 312 302 313 299 314 319 313 314
322 323 323 322 322 325 330 332 330 328 328 328 326 328 326 326 314 296 296 318 317 315 314 313 313 297 296 295 295 323 317 313 314 318 318 318 321 320 318 318 318 313 309
323 322 323 324 321 322 329 329 327 330 328 326 325 324 323 326 310 296 295 295 303 319 317 317 312 295 294 294 297 296 297 300 314 315 316 317 318 318 319 319 322 320 318
323 322 323 324 322 324 326 326 323 327 322 321 319 319 319 322 323 300 295 295 298 320 322 304 295 292 292 293 292 294 294 312 314 314 316 319 321 320 321 320 324 320 317
323 325 325 325 322 324 324 324 321 320 319 318 317 318 319 320 321 319 314 309 298 309 307 315 312 306 304 305 308 305 312 313 315 317 318 319 320 318 313 311 308 305 304
328 327 327 324 325 324 324 322 320 325 319 318 321 320 321 320 320 315 313 317 318 314 317 321 319 318 318 318 319 318 320 320 319 320 317 307 303 305 302 303 303 302 301
328 326 324 323 323 321 320 321 302 304 302 300 300 310 320 306 299 300 300 301 301 299 314 322 322 322 322 323 324 320 318 314 314 310 308 306 302 301 301 301 302 306 305
329 328 324 320 323 321 319 318 317 310 298 298 296 300 304 301 297 297 296 295 294 299 318 322 324 325 324 325 323 317 310 304 306 303 303 301 303 302 300 304 304 304 303
332 309 325 325 324 322 323 319 318 318 316 318 299 305 298 296 296 294 294 299 311 308 322 324 324 324 321 317 313 309 304 306 302 300 299 300 304 305 303 302 302 301 300
332 328 327 326 324 321 322 322 319 318 318 317 320 303 298 292 292 292 294 318 320 322 323 325 322 319 314 309 308 307 304 305 303 306 307 306 304 303 302 302 301 292 295
331 317 318 327 325 323 324 321 321 321 321 319 319 317 313 308 313 313 314 319 324 325 322 319 314 312 311 307 308 308 305 305 305 304 303 302 303 303 301 301 301 300 298
329 329 313 325 324 324 324 323 323 321 320 320 322 319 303 316 317 318 319 326 325 321 318 314 311 310 310 309 307 305 304 302 302 302 301 302 303 301 302 301 300 300 299
329 328 327 326 326 325 325 325 322 322 321 320 321 312 295 323 325 325 326 323 321 316 314 312 309 309 307 306 304 303 301 300 301 301 302 303 303 301 301 301 299 299 298
328 327 327 327 327 317 323 324 321 322 322 323 322 319 319 325 325 323 316 316 313 312 312 310 307 305 305 303 303 301 300 300 301 303 301 302 301 300 300 300 299 298 297
327 327 326 326 325 325 325 324 324 310 320 325 324 323 324 322 317 313 312 312 312 310 308 305 302 301 301 301 302 302 303 301 302 302 301 300 300 299 300 299 298 298 298
328 328 327 327 325 325 326 325 326 324 324 324 323 322 318 316 314 312 311 308 304 301 300 300 300 301 301 301 301 299 289 286 294 287 299 301 300 300 299 298 298 298 297
326 327 327 327 326 325 325 325 325 326 323 320 320 318 314 312 309 306 303 302 300 298 299 301 301 301 301 299 297 287 286 286 292 285 297 301 299 298 297 296 295 295 295

GFSGL_sfc_thetae_018.txt.gz
Theta_e
332 332 334 334 334 334 331 333 331 327 331 331 332 331 332 331 333 331 330 331 330 328 327 324 322 324 323 322 322 321 320 321 319 322 326 329 329 330 331 332 327 323 319
330 330 332 334 335 336 332 334 333 327 328 330 330 330 330 330 331 330 330 331 328 326 326 323 322 324 323 322 321 320 319 321 321 320 322 326 327 328 328 322 319 317 316
326 328 331 334 334 334 333 335 335 329 328 329 329 330 330 332 331 331 330 328 327 325 325 323 323 323 321 323 323 321 321 323 324 322 319 320 321 321 320 323 323 321 319
322 327 328 333 333 335 333 335 332 335 332 333 332 332 331 331 331 331 330 328 327 326 325 324 324 324 323 323 323 323 323 323 322 320 319 317 318 320 317 319 321 322 321
320 323 328 332 333 334 334 333 335 334 334 331 327 329 332 332 332 330 328 328 326 326 325 326 326 325 323 324 327 324 326 321 319 318 316 318 319 320 319 321 319 319 320
321 321 325 326 327 334 335 332 332 332 331 329 327 326 325 320 308 316 326 329 328 327 326 326 325 321 318 314 313 314 319 323 321 319 318 316 317 319 319 319 318 317 315
321 321 321 324 324 329 331 332 332 333 333 331 326 326 325 319 306 308 316 330 328 327 325 324 324 326 320 320 310 310 310 310 315 328 322 320 321 322 322 320 319 320 318
320 320 320 321 322 325 329 330 334 334 333 332 328 326 322 312 306 307 316 330 329 327 326 327 321 323 322 323 323 323 323 323 323 326 327 325 320 319 324 326 325 324 325
320 321 319 319 322 324 325 330 333 334 333 331 328 326 321 316 301 301 318 329 328 328 327 327 327 323 304 304 323 321 321 316 304 302 300 299 298 298 302 318 319 317 314
320 321 320 318 321 324 328 330 333 334 332 329 330 329 318 320 299 298 306 326 325 324 323 312 305 317 300 301 320 319 318 319 311 308 310 306 302 308 301 310 311 307 307
322 322 323 321 323 326 331 331 332 332 330 331 329 330 328 320 311 298 297 316 322 319 318 317 308 299 297 296 302 318 310 308 313 314 313 315 318 318 313 312 313 310 306
323 322 323 325 320 325 329 330 331 330 331 329 328 326 327 323 310 297 296 298 300 318 313 314 306 295 294 295 300 296 298 305 312 312 313 314 317 314 313 315 316 314 313
323 324 325 324 323 325 327 328 327 329 326 323 322 321 321 324 314 298 295 296 300 317 315 307 295 294 295 295 293 296 298 310 312 312 314 317 313 309 306 308 307 305 307
324 326 326 323 322 324 325 326 323 323 322 321 319 318 319 321 319 311 308 305 299 310 303 302 300 303 303 305 302 298 309 311 312 314 311 307 307 304 302 303 302 302 301
325 326 326 324 321 324 324 324 322 324 320 320 319 319 320 318 319 310 309 312 317 315 319 315 315 314 313 313 314 315 316 314 314 310 307 303 302 304 302 302 302 301 299
325 325 324 324 322 323 322 323 297 304 301 300 302 313 321 311 301 300 301 301 302 301 313 318 317 318 317 318 318 317 313 310 308 306 304 302 301 301 301 301 302 301 299
326 326 323 321 323 320 321 321 317 307 297 296 302 301 307 304 299 298 299 298 296 298 314 317 320 321 322 321 316 310 306 305 305 302 302 302 301 301 300 301 300 300 298
328 311 325 322 324 322 321 320 321 317 315 314 301 305 296 294 296 295 294 300 307 306 316 317 320 323 322 315 310 306 304 302 303 302 302 302 303 303 300 299 299 297 297
327 325 325 324 323 321 321 320 319 319 317 318 312 304 295 293 293 293 296 315 314 314 314 318 318 316 313 309 305 304 304 304 303 303 304 303 301 300 299 299 298 291 293
329 315 317 325 323 323 322 321 318 317 318 317 317 314 309 305 310 311 311 316 317 319 321 320 315 310 308 306 305 305 302 302 303 304 301 301 301 300 299 298 297 296 295
330 327 312 324 325 322 323 321 321 319 318 317 317 315 302 312 312 313 312 314 316 322 320 313 313 308 308 307 306 304 304 302 300 300 301 301 301 300 300 299 298 297 295
329 329 325 324 324 323 321 322 322 321 320 319 317 308 295 313 314 314 315 315 322 321 317 313 310 309 308 306 305 302 300 299 300 301 301 301 300 298 298 298 296 295 294
328 329 328 325 326 315 321 321 321 322 321 320 318 308 308 312 315 317 320 321 316 313 312 311 308 305 306 304 301 300 298 300 301 301 301 300 299 297 297 295 296 294 294
329 328 328 327 325 325 324 324 321 310 323 321 317 312 311 318 322 319 312 312 312 311 309 306 304 301 300 299 300 300 298 297 301 301 300 298 298 294 298 296 294 294 293
327 329 329 329 325 323 323 323 325 321 322 321 319 316 319 318 314 312 310 309 309 303 301 301 300 300 299 300 298 294 288 287 293 290 299 300 298 298 296 294 293 293 292
325 328 328 327 327 325 323 325 324 323 323 323 322 321 314 311 311 310 307 302 300 300 299 299 299 299 297 296 293 287 286 286 287 286 294 299 297 293 292 291 292 290 290

GFSGL_sfc_thetae_021.txt.gz
Theta_e
320 319 324 325 325 326 324 326 325 324 324 326 326 326 326 326 326 325 328 325 323 322 322 321 322 322 320 322 323 324 322 323 319 321 325 327 327 327 331 330 328 323 321
320 319 322 324 325 324 325 325 325 325 325 326 326 327 327 326 325 326 327 326 323 322 320 320 321 321 319 321 322 321 320 322 322 319 322 325 325 327 328 326 326 325 319
320 317 321 323 323 324 325 327 325 325 326 326 325 326 327 327 326 325 326 325 324 322 321 321 322 322 321 321 320 319 319 324 322 320 319 319 321 322 322 319 314 312 315
319 317 317 322 323 323 324 327 327 325 326 327 327 327 329 328 328 328 326 324 325 324 323 323 323 323 322 322 323 320 321 320 320 318 315 313 315 315 316 313 315 318 318
319 317 317 322 322 324 323 326 327 325 323 324 326 329 329 329 329 327 327 325 324 323 323 325 325 324 322 322 323 321 320 319 317 314 311 313 312 312 310 313 314 315 316
317 318 319 321 322 323 325 322 327 326 320 321 320 320 321 328 310 315 323 326 325 324 323 324 323 322 320 317 313 314 318 316 312 311 311 311 312 314 314 314 314 311 310
317 320 320 319 320 323 324 322 321 320 318 318 318 317 312 312 309 310 315 327 325 324 323 324 325 326 321 320 309 309 309 312 314 314 313 312 312 315 315 312 312 313 312
314 317 319 318 319 321 322 321 321 322 319 317 316 314 311 307 304 307 312 325 324 323 322 323 324 321 319 317 315 317 317 315 316 323 319 314 314 316 318 318 315 314 315
313 314 317 317 317 318 320 321 320 320 320 317 316 313 310 306 302 308 319 322 321 321 323 320 319 317 307 307 317 314 313 310 302 302 302 299 298 301 309 314 312 308 305
313 314 316 315 317 316 319 321 321 321 319 320 318 313 309 308 299 300 314 321 318 313 310 310 310 310 300 306 315 314 311 309 304 303 303 300 300 301 303 305 307 303 301
315 316 314 314 317 317 321 322 321 322 320 319 320 315 313 308 302 297 300 316 317 314 311 307 309 298 299 302 307 312 309 307 306 309 308 310 311 311 306 308 306 304 301
315 316 314 314 319 321 321 321 321 320 318 318 317 316 316 310 302 296 297 301 302 311 310 307 301 295 295 296 297 295 299 303 305 305 306 308 306 306 307 304 303 303 306
315 314 315 315 315 321 321 321 319 319 319 316 316 314 314 312 304 296 295 299 301 312 308 305 295 294 294 294 294 297 299 303 304 306 303 300 300 300 301 301 302 304 305
314 315 316 313 316 320 323 322 320 317 316 314 314 312 313 311 304 296 296 300 300 300 299 297 295 294 295 295 293 293 299 303 306 304 300 301 300 299 299 301 302 302 301
316 318 315 315 317 317 320 321 319 318 316 314 312 313 311 313 310 300 299 302 305 304 302 299 298 296 299 301 303 300 304 307 305 301 300 299 299 300 301 302 301 298 295
317 318 316 314 317 317 317 315 297 301 303 304 304 309 313 309 300 297 297 299 300 300 308 306 305 305 305 306 307 307 306 303 301 300 299 299 298 297 297 297 297 295 293
317 318 317 314 317 317 317 316 311 302 297 296 299 301 304 304 299 296 297 296 297 298 306 309 309 310 310 311 306 304 300 299 300 302 300 299 297 297 298 295 295 294 293
318 308 319 318 316 317 316 316 315 309 305 305 299 299 297 297 297 296 295 296 300 301 305 307 309 313 314 306 303 301 300 300 299 298 297 298 299 297 295 294 294 292 291
321 318 318 318 318 315 316 316 314 313 310 310 304 298 292 292 292 293 295 308 306 306 306 308 312 310 307 304 302 300 300 302 299 298 299 298 297 296 295 293 291 289 290
321 311 313 317 316 317 316 315 314 312 312 311 308 306 297 298 299 300 303 308 307 307 307 309 305 305 303 302 301 301 298 298 299 298 296 296 297 295 293 293 292 291 290
323 317 308 318 317 317 317 315 314 313 312 312 311 306 295 306 305 305 306 308 309 312 313 308 305 303 302 302 301 299 300 301 300 298 297 298 297 295 294 294 293 293 291
324 322 317 318 318 317 316 317 315 314 312 312 312 307 293 309 309 309 309 310 310 313 312 306 305 304 304 302 301 301 299 299 299 299 298 296 295 295 295 294 293 292 291
324 323 319 319 318 309 310 316 316 315 314 312 313 308 304 309 310 310 310 311 315 311 308 306 305 304 303 302 302 301 299 299 299 300 298 297 296 295 295 292 292 291 289
320 321 321 320 318 317 317 315 313 305 314 314 312 308 308 309 310 310 312 315 312 309 308 307 304 300 297 299 300 300 300 300 300 299 298 297 295 293 294 292 290 291 287
317 320 320 321 320 318 318 315 318 315 315 312 309 308 309 310 311 313 311 309 308 305 301 300 299 298 298 297 295 293 288 289 295 292 298 297 295 294 290 288 289 286 284
318 319 320 320 319 318 316 316 316 317 314 314 311 309 312 309 309 309 308 304 301 299 299 299 299 297 296 294 292 288 287 287 288 288 296 294 291 288 288 288 288 284 283

GFSGL_sfc_thetae_024.txt.gz
Theta_e
319 320 321 322 323 322 323 324 321 321 323 323 323 324 323 323 324 324 323 323 322 321 320 322 320 318 319 320 321 323 323 323 319 322 326 328 327 329 330 328 326 323 322
317 321 320 322 322 322 323 321 322 321 323 323 324 324 323 323 324 324 323 323 321 320 320 321 320 320 318 320 322 322 323 323 322 320 324 325 325 325 328 328 328 325 320
317 318 320 320 322 321 321 322 324 325 322 324 324 324 325 324 325 324 323 321 321 320 321 320 320 319 318 321 321 321 323 324 323 322 320 322 323 325 324 320 317 318 320
316 316 319 319 321 321 323 321 322 323 323 324 326 327 327 326 327 326 325 323 321 320 321 322 322 322 321 321 321 320 320 321 321 319 317 315 318 317 318 317 313 312 311
315 314 319 320 321 321 324 323 323 323 324 327 327 328 328 327 327 325 324 323 322 322 322 324 324 322 321 321 322 320 320 319 318 315 312 311 311 311 313 311 310 311 313
316 314 319 319 320 321 322 323 322 318 321 324 326 327 326 326 309 313 321 324 323 323 322 323 323 321 318 315 314 315 319 318 315 312 310 309 308 310 310 310 310 309 310
316 316 319 319 320 322 320 322 317 315 315 315 316 318 321 320 305 308 312 325 323 323 323 323 324 325 321 321 310 309 309 310 313 313 311 310 309 312 311 310 310 310 309
316 317 317 317 319 320 319 318 317 314 314 313 312 312 314 317 303 305 311 325 323 323 324 324 324 322 320 319 313 315 314 316 316 316 313 313 314 314 315 314 312 310 312
316 316 317 316 318 319 319 317 316 314 313 312 311 311 308 306 302 302 315 322 321 321 323 324 323 320 310 305 315 312 309 306 303 303 306 304 303 303 310 316 311 309 304
314 316 317 316 317 317 318 317 317 315 314 314 312 311 307 304 299 303 314 321 316 316 316 318 309 316 301 302 313 311 308 306 303 301 300 299 299 300 302 305 306 301 299
314 315 315 314 315 315 318 317 318 316 316 313 311 309 310 306 300 300 307 316 316 312 312 313 311 298 298 301 305 311 308 305 303 307 306 307 308 306 306 305 303 303 300
314 313 313 313 317 317 318 317 317 317 314 314 311 308 308 305 300 297 302 306 307 311 310 310 306 295 296 297 302 296 296 301 304 305 305 303 303 301 300 300 302 304 303
313 311 311 313 315 318 319 317 316 316 315 313 314 311 311 307 300 296 296 298 301 309 310 304 295 293 293 294 294 295 298 302 305 303 300 299 298 300 300 300 301 302 304
311 311 310 312 313 318 320 320 318 316 315 314 314 313 312 308 302 296 297 302 300 304 301 296 295 294 294 295 294 296 301 304 305 301 298 298 299 299 298 299 300 301 298
312 312 311 312 315 317 319 320 320 319 318 315 314 314 312 309 306 298 297 302 302 301 295 293 291 291 293 293 295 296 303 304 301 298 298 298 298 298 298 298 296 293 292
313 313 311 311 314 317 318 312 297 305 303 304 303 309 312 308 299 295 294 296 296 294 297 295 294 293 295 299 302 302 302 300 299 298 298 299 297 297 296 295 293 292 291
315 314 311 311 314 315 316 316 312 303 298 299 299 300 301 306 297 294 293 294 295 298 302 301 300 299 300 302 304 303 300 299 299 301 297 296 296 295 294 293 293 292 290
316 307 313 314 314 315 315 315 316 313 310 306 297 298 296 297 297 295 292 295 299 301 305 306 306 306 306 305 302 300 298 298 298 297 297 298 299 296 294 294 292 290 290
316 316 315 314 315 314 315 315 315 313 312 306 302 296 291 292 292 292 293 302 303 307 304 305 307 309 309 306 302 301 300 299 298 297 300 301 297 297 295 291 291 287 288
318 309 312 315 314 315 315 315 314 313 310 310 307 306 295 296 298 298 298 302 301 305 306 307 307 307 306 304 301 300 299 297 298 301 300 298 297 296 294 292 291 290 289
319 313 306 316 315 314 315 314 314 313 312 310 310 306 294 303 302 302 302 303 304 304 306 308 307 305 303 302 301 301 300 299 301 300 299 298 297 295 294 292 292 291 289
320 317 315 316 317 316 314 315 314 313 312 311 310 305 291 305 306 304 305 307 308 308 310 310 308 307 304 303 302 301 300 300 299 299 299 298 297 296 294 292 292 290 290
321 318 316 317 316 307 310 315 314 313 312 311 311 309 299 304 308 308 307 308 309 311 311 310 308 306 305 305 304 303 301 300 301 301 299 297 297 296 294 292 292 290 289
321 320 317 317 316 314 313 314 315 305 313 311 310 310 307 306 308 308 308 309 311 311 309 308 307 305 303 302 301 301 302 302 302 300 299 297 296 294 294 292 290 290 286
320 320 318 317 316 314 314 313 313 312 312 312 311 310 309 310 310 309 310 310 311 306 305 306 305 302 301 300 299 297 291 290 296 293 298 296 295 294 292 290 288 286 284
315 319 319 318 317 316 315 314 314 313 311 312 310 308 308 309 309 309 311 311 306 303 302 300 300 298 297 298 297 291 289 290 292 290 296 295 293 290 290 288 287 285 283

GFSGL_sfc_thetae_027.txt.gz
Theta_e
318 319 320 319 320 320 319 319 320 320 321 321 321 321 320 319 320 320 323 323 322 321 317 318 318 319 317 318 320 322 322 322 318 323 324 327 326 326 328 327 326 323 322
317 320 319 320 319 318 319 319 321 321 322 321 321 321 321 321 320 322 322 322 320 319 319 320 319 320 319 319 320 322 323 323 322 320 324 325 325 328 328 325 326 326 324
316 319 319 319 319 318 318 320 322 322 321 322 322 321 322 323 321 321 322 320 318 320 320 319 319 320 320 319 322 323 324 324 324 323 321 323 325 326 325 323 322 322 324
315 318 318 319 319 319 319 318 321 323 322 323 324 324 325 326 322 321 321 320 320 320 321 320 319 319 318 319 321 322 323 323 322 320 319 318 320 321 321 319 315 313 314
314 318 318 319 319 321 320 320 321 323 325 326 325 326 326 326 325 322 321 321 320 320 322 323 321 321 319 319 321 320 320 320 319 316 314 316 315 317 318 313 313 310 310
313 316 319 318 320 320 321 320 317 318 323 326 325 325 325 325 307 311 319 323 323 321 321 322 322 320 316 313 314 316 318 318 316 315 311 312 310 312 310 310 308 307 306
313 315 319 318 319 320 321 319 316 316 315 317 321 323 322 319 305 307 312 323 323 323 322 322 323 322 320 322 312 309 308 309 311 315 312 311 310 310 310 307 308 307 308
313 315 318 317 319 318 319 315 314 312 311 312 315 317 319 314 304 303 309 323 323 323 323 323 322 321 321 320 316 315 315 314 314 315 314 313 312 312 312 312 310 310 309
314 315 316 316 318 317 316 313 311 311 310 310 312 313 315 313 301 302 316 323 323 323 323 323 323 321 307 304 315 311 310 308 302 303 300 298 298 304 310 314 310 309 303
315 315 316 315 318 317 316 313 312 310 311 312 310 310 307 311 299 301 314 321 320 321 321 320 311 317 302 301 312 309 309 306 307 305 302 301 302 301 302 310 309 304 298
316 316 314 314 316 316 316 315 313 312 310 309 310 309 307 307 306 299 305 319 319 320 319 317 315 303 299 298 304 309 307 304 301 304 305 305 304 304 304 302 302 302 300
315 315 314 312 317 317 316 315 314 312 309 307 307 306 307 304 299 300 301 307 308 316 316 315 311 296 297 298 303 300 295 301 304 304 304 302 301 300 300 301 301 302 302
312 312 311 312 313 315 316 314 313 312 311 309 307 306 307 305 301 297 299 299 302 310 311 307 295 294 293 295 295 295 297 304 303 302 300 298 297 298 299 300 300 298 297
311 310 309 311 310 314 317 317 316 313 312 313 311 308 307 304 301 297 300 302 301 303 299 297 296 295 295 295 296 299 301 304 303 301 298 297 297 298 297 298 297 295 294
310 309 308 311 312 314 317 317 317 317 316 315 315 314 310 307 304 299 298 302 305 302 295 293 292 293 293 292 292 297 301 301 300 297 297 297 297 297 296 297 294 292 291
310 309 308 310 312 315 315 310 297 303 301 301 302 310 313 307 299 295 294 295 294 293 296 294 292 292 293 292 294 298 300 299 298 297 297 298 297 296 294 292 292 291 290
311 311 309 308 312 314 314 314 312 305 298 297 297 300 302 306 296 294 293 292 292 293 299 295 296 294 294 295 298 300 299 298 297 299 298 296 296 295 293 293 293 292 289
313 304 310 310 311 313 315 315 315 313 311 310 298 299 295 296 296 294 291 294 294 296 299 298 297 296 295 297 300 300 298 296 298 297 296 296 296 295 293 293 292 289 289
314 312 312 311 312 311 314 314 314 314 313 310 301 296 292 292 292 291 292 302 302 300 301 301 301 300 299 300 300 300 300 299 298 296 296 297 296 295 295 293 290 288 288
315 307 308 312 312 312 313 312 313 312 311 312 308 309 295 296 299 296 295 299 299 303 306 306 305 306 307 305 303 302 300 297 297 298 298 298 297 297 293 293 292 291 288
316 310 303 312 312 313 313 313 313 312 311 310 310 307 295 304 305 302 299 301 302 301 303 307 306 306 308 307 304 302 301 300 299 299 299 297 297 296 295 294 292 291 289
316 314 313 313 313 313 313 313 313 313 312 311 310 304 291 304 307 303 303 304 305 304 303 304 305 307 307 307 305 303 302 301 300 300 299 298 298 296 295 294 292 291 290
316 314 314 315 314 305 308 313 313 313 312 312 311 307 298 303 307 306 305 306 306 307 304 305 306 306 305 305 305 305 303 301 301 301 300 298 296 295 294 293 292 291 290
317 316 314 315 314 313 312 312 312 304 312 311 311 309 306 305 306 307 307 306 307 308 308 308 308 307 306 305 305 305 305 303 302 302 300 298 296 294 295 294 292 290 288
318 317 315 315 314 312 312 313 312 311 311 311 310 310 310 308 306 307 307 307 308 308 308 309 308 306 304 303 303 303 295 292 300 297 300 299 297 296 295 292 290 288 286
317 318 317 315 314 313 313 311 312 312 311 311 311 309 309 309 309 309 307 307 308 307 305 305 305 303 302 301 299 293 291 291 294 294 300 299 297 294 292 290 288 286 285

GFSGL_sfc_thetae_030.txt.gz
Theta_e
319 320 321 322 322 321 322 322 322 322 323 322 323 323 322 321 322 322 323 323 321 320 320 321 320 321 321 324 323 325 325 323 319 321 324 326 326 326 326 326 326 325 322
318 320 321 321 321 320 322 322 323 323 324 323 323 322 322 322 323 323 323 323 322 320 321 321 321 321 322 324 325 325 325 325 322 318 322 324 324 326 325 325 325 326 325
318 320 320 320 320 319 321 323 323 323 323 323 323 323 323 322 322 323 322 321 320 321 321 321 321 321 322 323 325 325 326 325 324 321 321 324 324 326 325 325 324 324 326
318 319 319 320 320 320 320 321 323 324 324 324 324 325 325 323 322 322 321 320 321 321 321 322 322 322 322 324 324 325 325 324 324 322 321 321 323 324 323 320 317 317 322
317 318 319 320 321 321 321 322 323 325 326 326 325 325 326 324 322 322 322 321 321 322 322 322 322 321 319 320 324 323 323 321 321 320 318 319 319 321 320 318 317 316 317
315 318 319 320 321 322 322 321 320 323 325 326 325 325 325 323 305 311 318 322 322 322 321 321 320 318 315 312 312 312 319 320 318 317 315 317 317 319 319 318 316 315 313
314 318 320 320 321 322 322 318 319 318 321 323 323 324 322 318 304 305 312 323 322 323 322 322 322 321 320 319 310 310 311 311 315 319 316 318 317 320 317 315 315 314 315
314 317 319 320 320 321 320 318 316 315 317 319 321 321 320 314 302 303 308 324 323 324 324 323 322 321 318 319 318 318 317 317 318 319 321 318 320 320 320 319 317 314 311
314 315 319 319 319 319 319 316 314 314 314 316 318 320 316 312 300 302 316 323 323 323 323 323 322 321 304 304 317 316 313 310 302 300 301 300 300 303 312 318 316 315 311
315 316 318 318 319 319 318 314 314 314 314 315 314 316 311 314 299 302 316 323 322 322 322 321 310 318 301 303 315 315 313 310 308 308 310 307 307 305 305 320 318 314 307
317 316 317 318 319 319 317 316 314 314 313 313 312 312 315 316 309 301 306 323 323 322 321 320 321 303 301 300 304 315 313 309 304 308 308 308 309 308 307 308 310 310 307
316 316 315 316 320 318 318 316 314 313 311 311 311 310 310 311 305 298 301 308 312 322 321 322 318 300 298 297 303 299 296 303 310 309 308 307 306 305 304 305 305 304 304
315 315 314 315 317 318 317 316 314 312 311 310 311 311 310 307 305 299 299 299 304 319 321 314 300 295 296 298 297 295 298 310 310 309 307 305 304 303 303 301 302 302 300
313 313 312 313 313 317 318 318 316 313 312 311 310 311 311 309 306 305 309 308 302 308 303 303 299 298 297 300 301 302 310 311 310 309 306 303 303 302 302 302 299 298 296
313 312 312 313 314 315 318 317 318 318 315 314 314 312 311 310 309 302 306 311 312 305 301 301 301 301 302 301 302 305 307 307 307 305 303 302 303 302 301 302 300 299 296
311 310 310 312 313 315 316 313 297 304 302 300 301 311 315 304 297 295 294 296 295 293 303 304 303 303 303 302 302 304 307 305 306 305 304 304 303 302 301 300 299 298 294
311 311 310 310 313 314 315 315 314 308 299 298 297 299 302 306 296 294 293 292 292 295 309 305 305 303 304 302 301 303 305 306 305 305 304 303 303 303 300 299 297 295 293
313 303 310 311 312 314 315 316 316 315 315 315 300 301 296 296 296 294 291 294 298 299 305 307 306 304 303 303 302 303 304 304 304 304 303 303 302 300 299 297 296 293 291
313 311 312 311 313 312 315 316 316 316 316 316 308 299 295 293 293 291 292 307 304 303 304 305 306 304 302 303 303 304 305 304 304 303 302 302 302 300 299 296 294 290 290
314 305 307 312 311 313 314 315 315 314 314 315 313 314 300 300 304 302 299 304 306 306 305 306 307 305 304 303 303 304 305 302 302 303 303 302 301 300 299 295 294 291 291
315 310 303 312 312 313 313 314 314 314 314 314 314 312 297 309 312 309 304 304 307 306 307 307 307 308 308 306 305 305 305 305 304 304 302 301 301 300 298 295 293 293 292
316 312 312 313 313 313 313 314 314 314 314 314 314 310 291 309 314 312 309 308 308 309 308 309 309 309 310 309 308 306 306 304 303 303 302 300 299 298 295 294 293 292 292
316 314 313 314 314 306 309 314 314 314 314 314 314 311 302 308 312 312 310 310 310 310 309 307 308 309 311 312 311 309 307 306 305 304 302 299 297 296 295 293 293 292 292
316 315 314 314 314 313 313 314 314 305 314 314 314 313 309 309 310 312 312 311 310 310 311 308 308 308 309 310 311 311 310 310 308 305 302 299 297 295 295 295 294 293 291
316 315 315 315 314 313 313 314 314 314 313 314 314 313 313 311 310 311 312 311 310 310 310 310 310 309 309 310 309 309 299 292 303 298 302 300 298 296 296 295 294 292 291
317 316 315 315 315 315 315 313 314 314 313 313 314 314 314 313 312 311 311 311 310 310 310 310 311 311 310 309 307 295 291 291 295 295 301 299 298 297 296 294 292 291 290

GFSGL_sfc_thetae_033.txt.gz
Theta_e
330 331 331 332 331 330 331 332 332 334 333 332 332 332 332 331 331 331 331 330 330 330 331 330 325 330 327 326 331 333 331 329 321 323 325 326 325 325 327 327 327 326 324
330 330 331 331 329 330 331 332 332 332 332 333 332 331 330 330 330 329 328 327 327 326 325 328 323 330 331 327 326 329 329 331 324 319 324 324 323 325 325 324 325 326 325
328 330 331 330 329 330 330 331 333 333 332 331 332 330 330 329 328 328 328 327 325 326 329 328 324 328 328 330 330 331 329 328 325 323 321 324 323 324 324 325 325 324 326
328 329 330 331 330 330 331 332 332 332 331 331 332 331 330 327 326 326 325 324 324 325 328 327 328 329 330 331 329 329 330 326 324 322 321 321 321 325 324 321 318 322 322
327 328 330 331 331 330 331 331 333 332 331 329 329 327 330 325 324 324 324 324 325 324 326 326 327 327 322 326 328 330 328 325 323 321 320 320 320 321 321 322 317 317 321
326 327 329 329 329 331 331 331 331 332 329 328 327 327 328 324 306 310 321 324 325 325 325 325 327 321 316 310 313 315 321 323 321 320 321 320 321 320 320 321 318 317 316
325 327 328 329 329 329 329 328 330 331 331 327 326 329 325 322 304 306 312 327 326 325 324 324 323 321 322 322 310 311 311 310 314 323 320 321 323 325 326 322 322 321 321
324 325 327 328 329 330 327 328 328 330 330 329 323 323 323 317 302 304 310 328 326 325 324 324 322 320 320 321 323 320 320 319 320 324 326 326 329 328 329 331 325 320 321
323 324 326 328 329 330 326 327 327 328 329 329 327 319 320 313 301 303 316 326 325 324 323 323 323 317 302 306 320 317 318 316 303 301 303 301 303 307 318 324 318 319 316
323 324 326 328 329 330 329 327 327 329 327 328 327 325 314 315 299 304 317 325 325 323 323 321 309 316 300 305 323 321 321 318 317 321 322 313 316 311 309 330 325 323 319
325 325 326 328 330 331 330 327 327 327 326 326 327 327 325 322 315 300 306 326 324 324 323 324 325 300 299 302 308 323 318 319 313 322 322 322 323 323 323 325 328 325 318
325 324 325 327 329 329 329 326 326 327 325 324 324 326 326 321 307 301 301 309 315 325 326 326 324 300 299 299 308 295 298 308 319 319 318 316 316 315 315 314 316 316 318
324 324 325 327 328 329 329 325 323 325 322 322 322 322 322 323 322 300 299 300 304 326 329 317 299 297 296 300 295 296 302 318 317 314 312 312 313 312 312 311 311 310 309
324 324 325 324 326 329 328 326 324 322 321 319 320 321 322 322 325 324 321 320 305 319 308 316 306 304 298 307 309 305 319 320 318 317 316 314 312 311 311 311 309 308 304
325 324 324 323 324 327 328 327 325 327 322 321 320 321 322 321 322 317 319 326 328 318 317 319 321 320 318 317 319 318 318 318 318 318 315 313 312 312 311 311 310 309 306
323 323 322 322 322 324 325 324 298 305 303 301 303 314 321 307 297 296 299 298 296 297 320 322 322 321 317 317 317 316 316 312 317 316 316 314 312 311 310 310 310 308 303
325 325 322 319 321 321 322 322 321 313 299 298 298 299 302 306 295 294 294 293 292 298 321 321 322 321 319 319 318 318 317 318 319 316 316 315 313 312 307 309 308 305 301
326 308 322 322 321 321 322 322 322 322 322 322 301 305 297 297 294 293 292 297 309 306 322 321 320 321 321 320 318 317 317 317 316 316 315 314 314 312 310 309 306 302 296
324 320 322 322 321 318 322 322 321 321 322 322 324 302 301 294 292 291 292 317 315 315 317 318 320 321 320 320 319 318 316 315 315 314 314 314 314 313 312 310 306 292 293
323 310 314 321 320 320 321 321 321 321 321 322 322 321 318 307 316 315 310 315 321 319 317 315 316 318 319 319 317 316 315 312 313 313 314 313 313 313 311 308 303 297 293
322 318 308 320 320 320 320 320 321 321 321 321 322 320 303 319 321 321 320 319 321 322 321 319 317 315 315 316 315 314 313 314 313 313 312 312 312 309 309 304 296 295 293
322 320 318 319 320 320 321 321 321 321 321 321 322 319 293 317 321 321 321 321 322 323 323 322 320 319 317 315 315 314 314 312 311 311 312 311 308 309 304 296 293 293 293
322 320 319 320 321 312 318 321 321 321 321 321 322 321 314 317 320 322 322 322 322 322 323 322 321 321 321 321 319 317 315 313 313 313 312 311 309 304 302 301 298 293 292
322 321 320 320 320 320 320 321 321 311 321 322 322 322 321 318 320 322 323 324 323 322 322 321 320 321 321 321 320 320 319 318 316 314 314 311 307 301 302 300 299 294 293
323 322 322 323 321 321 321 321 322 322 321 321 322 322 322 322 320 321 322 323 323 322 321 320 320 319 320 320 320 320 311 293 312 305 314 311 308 303 300 298 295 293 293
322 322 322 322 322 321 322 321 322 322 322 321 322 323 323 323 322 322 322 322 321 321 321 321 320 320 320 319 318 307 292 292 302 296 312 309 304 302 299 296 295 293 292

GFSGL_sfc_thetae_036.txt.gz
Theta_e
333 335 335 336 336 334 335 336 336 336 336 335 334 334 334 333 334 334 334 333 333 334 335 332 325 331 331 332 332 330 326 327 323 324 324 326 325 325 327 326 328 327 324
332 334 334 335 335 334 334 335 336 335 335 335 334 333 333 333 334 333 331 332 332 331 330 330 330 332 329 329 331 329 330 333 327 321 323 324 324 325 326 325 325 326 325
331 333 335 334 334 334 334 335 335 335 335 335 334 332 332 333 333 333 332 332 330 332 332 330 331 331 327 328 331 334 332 331 326 322 320 323 323 324 323 324 323 324 325
330 332 333 333 334 334 335 335 334 334 332 334 333 333 332 332 333 332 331 331 329 332 331 333 332 331 332 334 334 332 331 328 326 322 320 320 322 323 323 321 320 323 321
329 330 333 334 334 334 334 334 334 334 332 333 332 333 331 332 331 331 330 331 328 329 330 330 331 328 321 326 336 332 331 326 324 321 319 319 320 320 319 320 317 320 321
328 328 333 333 333 333 333 334 334 333 332 331 331 331 331 329 309 312 324 329 328 328 327 328 330 326 321 311 313 314 328 324 322 321 319 318 320 320 320 317 317 315 318
327 328 330 332 331 333 332 332 334 334 333 329 329 330 330 330 305 307 312 329 327 327 330 329 328 329 327 328 311 310 310 309 317 324 320 322 321 323 321 318 321 320 319
326 327 329 330 330 332 330 331 334 334 333 325 325 329 329 324 304 305 308 329 328 327 328 328 327 329 324 325 323 322 319 321 325 326 325 325 325 327 330 326 323 328 324
324 326 327 330 331 331 329 331 333 334 333 331 329 326 327 324 302 305 318 328 326 324 324 322 321 324 303 307 320 319 318 317 305 304 308 307 307 310 321 328 323 321 319
324 325 327 330 332 331 331 330 333 333 333 332 322 323 316 321 300 304 319 328 323 321 323 322 306 313 302 308 324 322 318 321 325 321 318 312 316 315 310 334 326 322 322
324 325 327 330 333 335 333 332 332 331 333 330 327 326 328 324 318 303 307 326 323 321 323 325 316 299 301 305 310 327 320 324 319 327 329 329 326 327 329 333 332 330 324
325 324 326 329 331 333 334 331 330 331 330 331 329 327 330 326 312 302 300 311 316 325 326 328 317 297 298 302 310 298 301 313 326 325 324 324 325 326 327 328 328 327 325
325 325 326 328 329 333 333 331 328 329 325 326 330 327 326 325 324 302 300 301 305 327 331 310 298 296 297 301 297 300 300 326 326 326 324 324 325 324 323 321 320 319 318
326 326 327 327 327 331 332 330 327 325 322 322 324 328 329 327 325 323 327 327 308 323 310 321 310 309 302 310 311 313 327 327 325 324 320 319 318 316 316 317 315 315 312
327 327 328 326 327 328 331 330 328 331 322 320 322 325 328 329 329 320 323 329 331 324 326 327 328 327 324 324 323 322 324 323 321 320 318 317 317 317 317 318 317 315 311
327 327 327 325 326 326 326 328 298 304 306 304 303 313 322 309 303 302 305 302 300 303 325 327 327 326 323 323 323 323 323 318 322 322 321 319 317 317 317 317 317 317 315
331 329 326 321 325 323 324 325 324 316 302 300 300 301 301 304 298 298 296 295 296 303 329 329 327 325 322 321 321 322 321 322 323 321 321 320 319 318 314 316 316 316 312
331 310 327 324 324 323 324 323 322 322 323 325 302 307 298 296 294 294 293 299 316 312 326 326 326 326 323 321 321 321 322 323 323 322 322 321 320 317 315 315 316 315 312
330 327 326 326 325 320 324 324 322 321 321 322 324 305 301 294 292 291 294 323 321 321 322 322 323 323 323 323 323 323 322 322 322 322 322 321 320 318 316 316 316 300 302
330 314 318 326 324 323 323 323 322 322 322 321 322 323 324 311 320 319 314 320 320 319 320 321 322 324 324 323 323 323 322 320 321 321 321 321 320 319 317 317 316 310 305
329 328 314 326 325 324 322 322 322 322 322 322 323 321 305 323 322 322 324 325 324 323 322 320 318 319 321 322 323 321 320 320 321 320 320 320 319 317 318 318 316 309 303
329 328 325 325 326 325 324 323 322 322 322 322 323 320 295 323 321 321 322 323 325 326 325 324 323 321 319 319 320 320 319 319 319 319 319 319 318 318 317 316 314 306 301
329 328 325 326 326 315 323 324 322 322 323 323 323 323 320 324 323 323 323 324 325 325 326 326 325 323 323 321 321 319 318 318 319 320 319 318 317 317 316 315 309 304 302
329 328 326 325 326 326 326 325 325 312 322 323 323 323 324 325 325 325 325 326 327 327 327 326 325 324 324 323 323 323 321 321 320 319 320 318 317 312 316 311 308 307 303
329 328 328 327 326 326 326 326 326 326 324 324 323 324 324 326 326 326 327 327 328 328 328 328 327 326 325 324 324 324 315 295 316 309 322 320 319 317 313 311 309 303 297
327 328 328 328 327 327 326 326 326 327 326 326 326 326 326 326 327 327 327 328 328 328 329 328 328 328 327 325 324 312 294 293 308 293 320 320 318 316 312 310 306 298 294

GFSGL_sfc_thetae_039.txt.gz
Theta_e
333 334 336 335 336 334 335 335 338 338 337 335 334 333 333 333 333 335 335 333 331 332 330 328 326 328 333 334 336 330 329 331 323 323 326 328 325 324 325 326 327 326 323
333 334 336 335 334 336 334 335 335 335 336 336 334 332 331 332 334 333 331 331 332 330 328 325 327 332 330 333 333 330 329 329 325 319 321 322 322 324 324 324 325 326 324
331 333 335 335 334 335 335 335 335 335 335 334 334 332 332 332 332 332 332 332 331 331 330 330 332 331 329 331 329 329 328 328 324 321 319 322 322 323 322 322 321 322 323
331 332 333 335 335 336 336 334 334 335 333 333 332 333 332 331 332 332 332 332 332 333 334 333 332 333 331 330 331 332 328 324 323 321 320 320 321 322 321 317 315 319 319
330 331 333 334 334 335 334 334 334 333 334 333 332 332 332 331 331 332 332 331 331 330 333 334 334 327 320 324 335 331 328 324 321 319 318 318 318 319 318 319 315 317 317
329 330 332 332 332 332 334 335 334 333 333 333 332 331 332 330 309 314 323 331 331 329 327 329 332 326 320 311 315 319 326 324 320 319 319 317 318 317 319 318 316 315 311
329 329 331 331 331 333 330 332 334 334 333 332 331 331 333 329 308 310 313 331 330 330 330 332 331 330 329 329 312 312 312 312 317 323 320 320 318 319 317 314 316 318 318
327 328 329 331 330 331 329 332 334 335 332 330 330 331 331 323 306 307 309 331 331 331 331 332 331 332 326 328 327 325 324 324 323 325 324 324 322 320 319 318 321 326 325
326 327 328 330 330 329 328 331 336 335 331 330 331 331 328 325 304 305 318 329 327 327 328 330 325 320 304 307 320 318 318 316 309 308 309 306 306 308 318 324 324 320 316
325 327 329 330 331 329 330 331 334 336 330 332 330 330 319 327 303 303 317 325 323 324 323 319 303 319 303 309 323 322 319 320 321 322 319 312 315 314 310 329 328 321 319
326 327 328 332 334 334 333 332 332 335 334 329 326 330 330 326 323 303 308 324 324 324 322 317 316 301 303 307 313 328 324 327 320 327 329 330 329 329 328 331 334 326 323
325 326 328 332 332 333 333 331 331 333 332 329 326 329 329 328 313 304 302 312 313 325 321 320 309 298 301 306 313 302 304 315 330 328 328 327 327 327 331 333 330 329 329
325 326 328 331 332 335 332 330 327 330 331 329 327 327 327 328 327 303 303 303 305 326 331 311 298 296 297 303 300 301 302 327 327 325 325 325 325 329 333 329 327 325 324
325 326 328 328 330 334 332 330 326 325 325 330 328 327 326 327 327 329 328 323 306 320 309 317 313 309 305 312 313 314 326 328 327 326 326 328 327 325 323 323 320 318 315
327 326 327 327 328 332 333 330 327 330 320 325 330 329 329 326 327 320 322 328 330 324 326 327 325 326 322 322 324 326 328 328 326 326 324 321 319 320 319 320 319 318 314
330 326 325 326 326 328 330 329 298 304 303 304 299 314 327 313 305 305 305 305 304 303 326 326 325 324 323 324 323 323 324 319 324 322 320 318 316 317 317 319 319 318 316
331 330 326 322 325 325 327 328 327 317 303 305 299 300 303 309 302 301 298 297 298 305 328 327 326 323 322 322 323 323 323 324 327 323 321 320 319 319 316 318 318 318 318
334 310 328 325 325 324 325 326 327 327 326 325 304 307 301 299 298 297 296 303 322 316 328 328 328 326 324 322 322 322 323 324 323 323 323 323 322 319 318 317 317 317 317
330 327 328 327 326 322 325 324 324 324 325 325 325 307 299 294 294 294 296 328 326 326 327 328 328 327 326 324 323 323 324 324 324 324 324 324 324 321 319 318 317 302 307
333 315 319 328 325 325 323 323 323 322 322 322 323 323 320 309 316 319 320 324 325 326 327 326 325 325 326 325 324 324 323 323 325 325 325 325 325 323 319 318 317 316 315
331 330 316 327 327 325 323 323 323 322 321 321 322 322 308 322 321 320 319 320 320 320 321 322 321 322 325 325 325 324 324 324 325 324 325 325 325 321 323 322 320 319 317
332 332 329 327 328 326 324 323 323 322 322 322 322 319 297 324 320 321 323 324 323 324 324 325 321 321 323 323 324 325 323 323 325 325 324 323 324 323 322 321 319 319 316
331 331 331 330 329 317 324 324 323 322 322 323 323 322 320 324 323 322 323 326 328 328 329 328 326 325 325 324 325 325 322 323 325 325 324 323 322 322 322 321 318 318 315
331 331 330 329 330 328 328 327 325 311 321 322 324 324 324 325 326 325 325 326 327 328 329 329 328 326 327 328 326 325 323 324 325 324 324 323 322 318 320 319 317 317 312
331 332 332 332 330 329 329 329 329 325 324 323 325 325 324 328 327 327 328 329 329 329 329 329 329 328 327 326 326 325 316 294 315 307 322 323 323 323 320 318 318 316 312
329 331 331 332 331 331 331 331 330 330 326 327 327 327 327 325 327 329 330 330 329 329 331 332 332 330 329 328 327 314 295 292 307 295 321 324 322 321 320 318 317 313 308

GFSGL_sfc_thetae_042.txt.gz
Theta_e
335 337 337 337 337 337 338 338 338 338 337 335 334 333 331 330 333 332 333 331 329 327 327 325 323 324 327 329 330 328 327 326 319 322 325 327 325 324 325 325 325 323 322
334 335 335 334 336 337 335 337 335 336 335 335 334 332 331 331 331 331 330 330 329 325 325 325 325 329 327 329 328 327 326 326 321 317 323 323 322 323 323 324 324 325 324
332 334 334 334 337 336 337 337 337 337 334 332 332 332 332 331 330 332 331 330 330 327 327 326 327 328 327 328 328 326 326 324 322 320 319 322 322 323 321 323 322 321 322
332 333 332 331 335 336 337 337 336 336 334 331 332 333 333 331 332 332 331 331 331 330 330 331 330 328 327 326 326 326 324 322 321 320 319 319 319 320 319 317 315 317 317
330 333 333 332 335 335 335 336 336 335 334 332 331 333 331 329 329 330 331 330 331 331 331 330 326 323 320 324 329 325 323 321 320 318 317 317 316 316 314 315 314 314 315
330 331 333 332 332 332 335 335 334 333 333 333 332 331 330 326 308 312 324 329 330 329 328 330 327 324 316 313 317 318 322 321 319 318 317 316 316 315 315 314 313 312 310
329 332 331 331 330 332 333 334 333 333 333 331 329 329 326 324 306 309 313 329 327 328 327 330 328 327 326 322 311 312 311 310 316 321 318 318 317 317 317 314 313 312 312
328 328 330 331 330 332 332 333 334 334 331 332 331 329 325 319 307 308 312 330 329 330 330 330 327 328 325 327 326 323 322 322 322 323 321 320 320 319 319 317 316 315 316
326 328 328 330 329 329 332 333 333 329 329 331 330 327 324 321 306 305 319 328 327 326 324 326 325 322 304 308 321 319 319 319 310 309 308 305 303 305 315 320 320 317 314
326 327 329 331 330 329 332 334 335 330 329 330 329 328 317 323 302 303 319 325 322 323 322 319 306 314 302 306 321 320 318 319 319 317 314 309 310 310 308 322 321 315 313
327 328 330 332 332 332 334 335 334 331 330 327 327 327 326 324 315 302 308 326 324 322 320 318 316 302 303 308 311 322 319 321 316 321 321 320 321 321 321 322 326 322 316
327 327 329 333 330 332 333 335 333 332 327 326 326 325 326 327 310 304 304 312 313 322 319 319 311 301 303 308 313 303 304 314 324 323 322 322 323 322 322 324 324 323 322
326 328 331 334 333 333 331 333 331 332 327 325 325 325 324 326 322 303 303 303 307 321 322 311 299 298 299 306 301 303 308 325 324 323 322 323 325 327 327 325 322 321 320
327 329 330 332 332 332 330 329 326 330 328 326 325 325 324 325 325 325 321 318 308 315 306 310 308 307 306 312 311 309 326 327 325 323 323 324 323 324 323 322 317 315 312
327 329 329 331 333 332 330 326 326 329 327 329 328 327 325 324 325 319 319 325 327 320 321 320 320 320 318 318 321 321 323 323 321 322 321 322 321 321 320 320 316 313 310
327 327 327 327 329 331 329 325 298 303 300 299 305 323 327 317 303 303 307 304 305 303 323 322 322 321 319 319 319 321 324 320 323 322 321 319 317 317 316 315 315 312 311
327 327 326 324 326 329 330 328 324 311 299 298 301 306 312 309 303 301 300 301 299 303 325 323 323 322 322 322 321 321 321 322 323 319 317 315 315 315 310 314 314 315 313
330 312 327 325 325 326 329 330 328 325 322 320 304 309 300 299 301 300 297 304 320 313 326 325 325 324 322 321 321 322 322 323 321 321 318 317 316 316 315 315 315 314 313
328 327 327 325 327 322 327 327 328 327 326 325 316 308 298 295 296 296 296 325 324 324 325 327 328 328 324 324 323 322 323 322 321 320 321 320 319 318 316 315 315 302 305
329 315 318 327 326 324 324 324 324 326 326 326 322 318 314 308 316 318 319 325 326 326 326 326 328 329 327 324 323 321 321 318 320 320 320 320 320 320 317 316 315 312 310
330 327 313 328 325 325 323 323 323 323 324 324 325 321 303 318 320 322 322 325 326 328 328 328 327 327 325 326 325 323 320 321 322 322 321 321 320 319 319 318 316 314 312
330 328 326 325 328 326 324 324 323 323 321 322 323 318 296 317 318 318 320 321 323 324 324 325 325 324 323 322 323 322 321 320 321 321 321 322 321 320 320 318 316 315 313
330 330 328 326 326 317 321 324 323 323 322 321 322 319 315 320 320 319 320 319 320 320 321 321 321 322 321 322 323 323 322 321 322 323 321 320 320 319 319 317 316 314 313
331 332 331 328 326 327 327 325 324 312 322 322 323 321 319 322 322 321 321 323 324 323 322 322 321 321 324 324 322 322 323 322 323 323 323 322 320 312 318 317 315 314 312
332 331 332 331 328 325 328 326 325 323 322 322 322 323 321 323 324 324 324 322 323 323 325 325 326 325 324 324 325 324 313 295 315 309 321 321 319 319 317 316 314 313 304
329 332 331 333 331 329 326 329 326 325 324 322 322 323 324 324 324 325 325 324 323 323 323 325 325 326 326 326 324 313 296 291 300 295 317 317 317 317 316 315 314 310 302

GFSGL_sfc_thetae_045.txt.gz
Theta_e
325 326 327 327 327 326 326 328 328 327 329 328 328 326 325 326 326 324 323 325 324 324 324 323 321 319 320 323 324 321 320 320 318 321 325 326 325 325 325 324 325 322 321
326 327 327 329 327 326 326 327 329 327 328 328 328 329 328 328 326 324 324 326 325 324 322 323 322 326 323 322 322 320 319 319 321 317 321 322 322 323 323 321 322 323 321
327 327 329 328 326 325 326 327 328 327 327 328 327 326 326 326 327 325 327 325 325 322 322 321 323 324 323 324 323 321 321 320 321 320 319 321 321 322 321 321 321 321 321
326 326 329 328 326 326 325 326 327 327 326 329 329 328 327 327 327 328 326 324 324 324 324 326 324 323 324 324 324 322 321 320 320 320 318 318 320 321 320 317 316 317 316
326 328 328 329 327 327 327 326 327 327 326 326 329 326 327 326 327 325 325 325 324 325 325 325 323 322 323 325 326 323 322 320 319 318 317 316 316 316 315 316 313 313 313
327 328 326 329 330 326 326 326 325 325 326 325 324 325 323 322 308 314 321 323 324 324 325 322 320 319 319 317 317 317 320 320 318 317 315 314 314 314 315 314 313 311 308
326 327 328 329 328 328 328 326 324 323 323 323 325 320 318 314 302 309 316 326 325 324 324 324 325 323 319 317 310 311 311 310 315 319 316 315 314 316 314 313 312 311 310
325 327 328 327 326 328 326 325 323 325 322 324 323 320 316 313 302 302 314 326 326 326 323 322 322 321 319 321 321 321 320 321 321 321 320 318 318 318 317 316 314 313 314
323 326 327 328 326 326 325 324 323 324 321 322 322 318 316 317 303 304 319 325 323 320 320 322 322 320 305 307 321 320 319 317 308 306 306 305 303 305 313 316 313 311 309
321 323 327 327 327 327 325 324 323 322 322 324 322 318 315 319 303 304 316 320 318 319 319 316 306 314 302 305 321 320 318 317 317 316 314 309 310 309 307 317 318 312 311
322 323 325 326 325 327 326 325 323 322 323 324 322 319 320 317 311 305 309 322 320 318 317 317 312 301 301 303 311 321 318 319 313 318 317 317 316 316 316 317 317 315 312
322 323 326 324 326 325 326 324 324 322 323 323 322 318 319 319 308 304 304 311 311 317 313 316 310 300 301 302 313 301 303 312 320 319 318 318 318 317 316 317 321 324 317
320 324 325 325 325 323 325 325 324 320 320 323 321 317 319 320 313 303 300 301 310 316 315 308 299 299 298 301 300 303 308 322 321 319 319 320 321 319 317 318 316 315 316
320 325 326 325 323 322 325 327 325 321 320 321 320 318 319 320 315 312 312 313 306 308 303 306 307 305 306 307 310 314 323 322 321 320 320 320 320 320 320 317 312 310 309
322 324 326 326 325 322 320 318 325 325 322 322 322 321 319 319 319 313 313 318 317 312 310 311 312 314 313 315 316 316 320 320 320 319 318 317 317 318 317 316 313 309 306
321 323 325 326 326 324 315 311 298 298 303 306 310 319 321 313 303 303 304 305 303 301 312 313 313 313 314 314 315 315 316 318 319 321 317 317 317 318 317 313 311 308 306
322 322 322 322 326 324 319 315 309 307 298 296 305 307 311 307 301 301 302 299 298 302 315 315 315 313 313 314 314 314 315 318 317 318 318 316 317 317 309 313 310 309 307
321 310 321 322 322 322 322 320 315 311 308 309 302 307 302 300 300 300 296 301 311 307 318 317 316 317 316 316 315 314 315 315 315 314 315 314 313 314 310 310 309 308 307
321 321 321 320 321 319 323 324 321 317 314 311 309 304 296 295 297 297 296 320 318 318 318 319 319 319 318 318 318 317 316 316 315 314 313 312 311 310 309 309 309 300 302
322 311 314 320 320 319 320 322 323 321 319 314 311 313 303 304 310 308 310 321 320 320 321 321 321 321 321 318 318 318 318 314 316 316 316 315 314 313 312 311 311 309 307
323 317 309 319 318 319 318 321 320 321 321 319 314 313 299 317 317 316 316 318 321 322 322 323 323 322 321 321 319 317 316 316 317 318 317 316 316 314 314 313 311 310 307
324 321 320 320 320 319 318 317 318 317 322 321 319 311 295 319 318 318 318 319 322 323 324 324 324 324 323 319 320 319 317 315 316 317 317 316 316 315 315 312 311 308 306
325 323 320 321 320 311 312 318 318 317 315 321 321 315 308 316 316 318 319 321 322 323 324 319 319 324 323 318 316 318 319 316 316 317 317 317 316 316 315 312 311 309 307
323 324 322 321 320 319 318 318 317 308 316 315 317 314 312 313 314 315 316 317 319 320 321 321 320 316 314 314 317 318 318 318 318 318 318 316 316 309 316 314 312 310 306
323 323 323 322 321 319 319 318 318 316 317 317 316 315 316 316 316 316 315 316 316 316 316 316 316 316 313 314 316 316 308 295 313 307 318 317 316 314 315 314 310 307 299
323 326 324 324 323 322 320 320 319 318 317 317 316 316 316 317 318 319 318 317 317 318 318 318 318 317 317 317 316 309 297 293 298 294 314 316 315 314 314 312 309 304 298

GFSGL_sfc_thetae_051.txt.gz
Theta_e
322 321 321 322 322 322 322 323 323 323 324 324 324 323 322 321 320 319 319 322 322 322 322 320 319 319 317 318 317 315 313 315 316 321 322 323 323 324 326 327 327 324 321
321 321 321 322 321 321 322 323 324 323 324 324 325 323 323 323 321 320 320 324 323 322 320 322 319 322 318 317 316 314 314 316 318 318 321 322 321 322 322 323 322 322 320
321 321 321 320 320 320 321 323 324 323 323 324 323 323 326 327 325 321 323 323 321 319 319 319 319 321 319 317 316 315 316 319 322 320 318 321 320 320 319 319 319 318 319
322 322 321 321 321 321 321 322 323 324 323 323 322 324 326 326 323 324 323 322 320 320 321 321 324 323 320 318 317 316 318 320 321 319 318 317 318 318 318 316 315 318 317
323 323 322 321 321 321 322 322 323 323 323 323 324 323 325 324 324 323 323 320 320 323 323 323 324 323 321 320 320 321 320 318 319 318 316 316 315 315 314 316 312 313 313
322 323 324 323 323 322 321 322 321 321 323 323 321 322 322 320 307 312 318 320 320 318 320 321 322 319 319 314 315 316 318 319 319 317 316 314 314 314 315 313 312 310 307
323 325 327 326 323 322 322 322 320 319 319 318 319 319 318 314 303 307 312 319 318 318 317 320 321 323 320 321 311 313 312 312 316 320 317 316 315 315 314 313 313 312 310
323 325 327 324 322 323 321 320 318 317 317 316 320 318 316 312 301 303 311 322 318 318 318 321 320 320 319 320 319 318 318 319 319 321 320 318 317 317 316 316 312 310 310
322 326 325 323 323 322 320 318 318 319 316 316 318 316 314 316 302 302 317 322 321 320 320 321 318 319 304 306 318 315 313 311 306 306 305 303 303 305 311 315 311 309 307
323 324 324 323 323 322 319 318 317 319 316 316 316 315 309 317 301 304 315 320 319 318 318 317 309 313 300 305 318 316 313 313 313 312 311 308 310 307 307 315 314 310 309
323 324 323 323 322 321 319 317 317 317 316 314 313 314 316 317 312 302 307 319 317 316 317 316 313 299 299 301 308 318 313 315 311 316 315 315 316 315 314 313 313 312 308
323 322 322 321 324 322 319 317 318 317 315 316 312 316 319 318 306 301 304 305 309 317 316 316 308 297 298 300 307 300 301 310 317 315 314 314 314 316 315 313 312 312 312
319 320 321 322 323 321 319 317 317 317 319 317 315 316 318 317 313 299 300 298 303 315 317 306 297 296 297 300 299 301 305 317 316 315 314 314 313 313 312 313 313 312 309
317 318 320 322 320 320 320 319 318 318 321 319 318 315 319 316 315 314 311 308 303 307 304 306 305 305 305 306 309 313 319 318 316 316 315 314 311 310 311 311 309 309 308
318 319 319 321 321 320 319 317 319 319 318 318 316 315 318 315 315 309 311 311 311 309 310 314 315 315 313 315 318 320 319 318 317 316 316 316 314 312 311 311 309 306 307
318 318 318 319 320 321 316 311 295 300 304 305 304 311 315 306 298 297 299 297 298 298 309 314 315 316 316 317 319 319 319 314 316 316 316 316 316 315 312 310 309 308 307
319 318 318 317 320 318 316 315 312 305 299 299 298 300 304 303 295 295 295 293 294 300 310 313 316 316 317 318 319 318 317 317 315 316 315 315 316 317 312 311 310 309 306
320 308 319 319 319 318 317 316 313 312 313 313 298 301 296 295 294 294 293 298 304 305 310 311 312 315 316 317 317 312 316 315 315 314 314 314 314 315 313 314 314 311 310
321 320 321 321 320 316 317 313 312 310 312 313 308 301 295 292 292 292 294 313 310 308 309 311 311 313 314 316 315 313 313 315 316 315 315 315 315 314 313 314 312 298 302
321 311 315 322 320 318 316 314 310 308 308 311 313 313 303 304 308 307 306 312 314 312 312 312 313 313 313 314 314 314 312 309 311 315 316 316 315 315 315 313 311 309 306
319 316 309 322 321 321 318 316 314 311 309 310 314 311 298 314 314 313 311 311 315 317 317 316 315 315 315 313 313 312 312 312 312 313 315 315 314 312 314 314 312 311 310
319 318 317 320 321 321 321 320 317 314 311 310 310 309 291 314 317 316 316 314 315 318 320 320 319 319 319 318 316 314 313 313 312 313 314 314 312 312 312 311 310 308 307
319 319 317 318 318 309 311 321 320 318 316 314 312 309 302 310 317 317 317 318 317 317 319 320 320 320 321 321 321 320 318 317 317 316 315 314 315 314 313 311 311 309 306
319 319 318 318 317 315 315 316 319 308 319 319 317 314 308 311 315 318 319 319 319 319 319 320 321 321 321 321 322 322 323 322 319 318 317 316 315 311 314 313 312 311 309
324 319 319 319 318 316 315 315 314 316 316 320 320 319 316 312 313 316 318 319 319 319 319 320 321 321 321 321 322 322 314 299 315 309 316 316 315 314 314 313 312 311 308
317 320 321 320 319 317 316 316 315 315 315 316 317 319 319 316 315 315 316 317 318 318 319 320 320 321 321 321 321 313 300 297 302 295 315 315 315 314 313 312 310 310 306

GFSGL_sfc_thetae_054.txt.gz
Theta_e
323 323 322 322 323 323 323 324 325 326 327 325 325 325 325 324 324 322 323 324 324 324 324 322 320 321 322 323 322 320 319 322 317 321 324 325 325 327 329 330 329 326 322
323 322 322 322 322 322 323 325 325 325 326 326 326 325 325 324 323 323 323 325 324 323 323 323 321 322 319 323 322 320 320 324 321 316 322 320 321 322 324 324 323 324 323
322 321 321 321 321 322 324 325 326 325 325 326 326 325 325 326 325 324 325 326 324 323 322 323 323 322 322 322 321 320 321 324 324 321 318 320 319 320 318 320 320 320 320
322 321 321 321 321 322 323 325 325 325 324 325 325 326 327 327 325 325 326 325 324 322 323 323 325 324 323 321 320 321 323 323 321 318 318 317 317 318 317 315 314 318 317
322 322 322 322 322 323 323 324 325 325 325 325 325 326 326 325 325 326 325 323 323 324 325 325 325 323 320 320 323 322 324 322 319 317 316 315 315 314 313 314 313 314 314
323 323 323 322 323 323 323 324 324 324 325 325 325 325 324 322 307 312 320 323 323 322 322 324 323 320 316 312 315 315 320 320 319 317 316 314 314 314 314 313 311 310 306
323 324 325 324 323 323 323 323 322 322 323 322 323 323 320 316 302 305 311 323 323 322 322 323 324 324 321 321 311 310 311 312 315 321 317 316 314 315 315 313 313 312 309
323 325 326 324 323 323 323 322 320 320 321 320 322 319 318 313 301 302 309 322 322 322 322 322 322 323 321 320 319 319 321 322 323 322 320 319 319 320 317 316 312 310 311
323 324 325 324 323 323 322 320 320 320 319 321 320 319 319 316 301 303 316 324 323 322 322 322 321 319 303 305 317 314 314 312 307 307 307 304 302 304 311 314 311 309 307
323 325 325 324 324 323 321 319 320 321 318 319 319 318 313 319 300 302 315 322 320 319 320 318 308 313 300 303 316 314 312 312 312 312 311 306 309 307 308 317 315 311 309
324 325 323 324 324 323 320 320 320 318 317 316 316 317 319 317 312 302 306 322 320 319 318 317 313 299 299 301 307 316 312 314 310 315 315 314 315 316 316 316 317 316 313
324 324 322 322 324 322 321 319 320 318 316 316 316 319 320 318 305 302 302 305 310 318 318 317 308 297 298 300 307 299 301 309 316 315 314 314 314 315 314 314 315 317 317
322 322 322 323 323 321 320 318 319 318 317 317 316 318 318 318 317 299 298 299 303 317 318 306 296 296 297 300 299 300 306 316 315 314 314 315 316 318 314 314 315 316 315
320 320 322 322 321 321 321 320 320 319 320 318 316 317 318 317 317 315 312 311 304 307 304 306 304 305 305 307 309 313 318 319 318 317 317 314 316 317 316 317 315 315 316
320 320 322 321 321 320 319 319 321 322 319 319 318 318 319 317 317 309 311 316 316 309 312 315 315 314 313 315 318 319 319 319 318 318 317 315 316 317 317 317 316 315 316
318 319 320 321 321 321 316 314 296 299 301 301 302 313 318 304 299 299 299 297 297 300 315 316 315 315 315 317 318 318 318 316 319 319 318 317 316 316 316 316 316 316 315
318 318 319 319 321 319 317 316 316 309 297 297 296 298 303 300 296 296 294 293 293 302 315 316 317 316 317 319 319 319 318 319 319 319 318 317 317 317 313 317 317 316 315
319 307 320 321 322 320 319 318 318 317 317 318 299 300 294 293 293 292 292 299 309 310 316 317 317 317 318 319 320 320 321 319 320 319 319 319 317 316 315 316 317 316 316
319 319 320 321 321 319 320 318 318 317 318 317 311 303 294 291 291 291 294 317 313 313 314 316 318 319 318 319 319 319 319 319 318 319 319 319 320 319 316 317 318 302 305
321 309 313 320 318 319 318 317 316 315 316 317 317 316 305 305 309 308 308 317 317 315 315 316 317 318 319 320 320 319 318 316 318 320 321 321 321 320 320 320 320 318 312
321 317 307 321 319 319 318 317 317 315 314 314 317 312 297 317 316 314 313 314 317 319 317 316 317 318 319 320 320 320 319 319 319 321 321 321 321 320 320 321 320 320 320
321 320 320 322 322 321 320 319 317 316 315 314 315 311 291 315 319 318 317 317 318 321 322 320 319 319 320 319 319 320 320 320 320 319 319 320 320 320 321 319 320 319 318
320 320 321 322 323 310 317 320 319 318 316 315 315 313 304 312 319 320 320 320 319 319 322 323 323 322 322 323 322 320 319 320 321 321 320 320 319 319 319 319 318 318 317
321 320 320 320 321 320 321 322 321 308 318 318 316 314 312 313 317 321 322 322 322 321 321 322 323 324 325 325 325 325 324 324 323 321 321 320 319 315 319 318 318 317 317
322 321 321 321 319 319 318 319 321 321 321 321 320 319 316 314 316 319 322 323 323 323 322 322 323 323 324 325 325 326 317 299 318 312 324 323 322 322 320 320 319 318 317
310 313 314 316 318 319 319 318 318 318 319 320 322 322 322 318 317 317 319 321 322 323 323 324 324 324 324 325 325 315 301 297 304 297 321 323 322 321 321 320 320 318 317

GFSGL_sfc_thetae_057.txt.gz
Theta_e
335 335 336 335 336 337 337 337 338 338 337 336 335 335 335 334 334 333 334 332 330 331 327 330 325 327 326 323 329 328 327 331 323 323 326 329 330 333 335 337 333 330 324
334 334 335 335 335 336 335 336 337 337 337 334 334 334 333 332 333 333 331 331 330 330 329 328 322 325 326 325 329 330 331 332 325 321 326 325 326 328 329 328 325 327 325
333 333 334 334 334 334 335 336 336 336 336 335 335 333 331 332 333 333 331 331 332 331 329 327 326 329 323 328 330 329 328 327 327 324 320 322 322 324 322 324 323 323 324
331 331 332 333 334 335 336 336 335 335 335 335 333 332 332 332 332 331 332 333 332 331 329 327 329 329 329 330 330 330 330 328 324 319 319 318 318 319 320 317 315 318 318
329 331 332 333 334 334 335 335 335 334 334 333 332 332 333 332 331 333 333 332 331 330 330 331 328 326 322 325 329 328 330 327 322 318 317 316 314 314 314 316 315 315 316
330 330 332 332 332 333 334 334 335 334 333 333 332 331 330 329 307 313 325 331 331 329 326 329 327 320 318 314 314 317 325 328 322 319 318 316 314 313 315 315 313 312 308
330 330 331 331 331 332 333 333 333 334 335 333 333 328 326 321 303 304 313 332 331 326 326 328 327 326 324 324 312 312 313 312 317 323 319 319 314 315 315 314 314 313 310
330 330 330 330 330 332 332 332 332 333 333 331 329 325 324 321 301 302 309 332 331 328 326 328 329 326 326 322 323 325 324 326 327 325 324 324 321 318 318 317 314 312 311
329 329 330 329 330 331 331 332 332 331 331 328 325 323 323 326 301 302 314 331 327 325 326 328 324 323 305 305 321 321 325 323 308 308 309 304 304 304 311 315 312 311 309
329 330 331 330 330 331 332 331 332 331 330 327 324 324 316 329 302 301 316 327 324 323 324 322 309 316 299 302 318 317 315 317 318 317 314 308 312 308 308 317 315 312 312
330 331 332 331 332 333 332 332 332 330 329 328 327 326 328 325 320 302 307 326 324 323 322 321 316 299 299 301 307 319 314 316 312 317 318 317 316 317 317 320 321 316 316
331 331 331 332 331 331 330 331 330 330 327 325 325 325 326 326 306 302 303 307 311 323 320 321 310 297 298 299 307 298 301 309 317 316 315 314 315 316 320 318 319 321 323
330 331 331 331 331 332 328 330 328 329 327 321 320 322 322 323 317 299 298 300 304 321 322 311 297 295 296 300 298 300 305 317 316 314 314 314 317 318 320 319 320 323 323
330 331 331 331 330 331 330 329 327 327 324 319 320 322 321 321 320 320 317 314 304 308 303 304 304 305 306 306 309 314 318 318 316 317 316 318 319 318 320 317 317 320 320
331 331 331 331 330 330 330 328 328 330 323 322 324 325 321 319 320 312 314 319 320 311 311 314 314 315 315 316 318 318 319 318 318 318 318 318 318 319 317 320 321 321 320
330 329 330 330 330 329 325 320 297 302 301 303 303 315 323 304 299 298 298 297 298 300 316 316 314 314 315 317 317 318 319 316 320 320 320 322 321 322 321 323 322 321 320
329 330 329 327 330 328 326 324 324 309 296 296 296 298 302 303 297 295 294 294 295 304 318 317 316 316 318 319 320 321 319 321 324 324 323 325 324 324 320 322 320 320 320
331 310 329 330 330 329 328 327 328 326 324 324 299 303 294 294 295 293 294 300 316 314 320 319 319 319 320 321 321 323 325 325 325 325 325 324 324 323 321 321 321 321 321
329 327 329 330 330 327 329 328 326 328 327 326 319 304 294 291 291 292 294 324 323 322 323 321 322 321 322 323 324 326 326 326 325 325 325 324 324 323 322 322 322 304 309
328 312 318 329 329 329 329 327 326 326 327 327 326 325 309 307 314 311 312 324 323 323 324 325 325 324 323 323 325 326 326 324 325 325 326 326 326 326 324 323 323 322 321
327 326 310 327 328 328 328 327 327 326 324 326 327 323 301 325 324 322 318 320 325 325 324 324 325 327 327 327 326 325 324 325 325 325 327 327 327 326 327 327 327 326 326
327 326 325 327 327 327 328 328 328 327 326 323 325 320 291 325 328 327 325 325 326 328 328 327 325 326 327 327 327 327 327 326 327 328 328 328 328 327 327 327 326 326 326
327 326 326 327 328 314 325 327 327 327 327 326 324 322 313 322 327 328 329 329 328 328 329 330 328 326 326 327 328 328 327 327 329 329 328 328 327 327 327 326 326 325 325
326 326 327 328 328 328 327 327 327 312 326 327 326 325 322 323 325 328 329 331 331 331 330 329 329 329 330 329 328 328 328 328 329 329 329 328 326 321 326 325 325 325 324
324 326 327 327 327 328 328 329 329 329 328 328 328 328 327 326 325 326 328 330 330 331 331 330 330 330 331 331 331 331 319 297 320 313 328 327 326 325 324 323 323 324 326
305 310 312 315 320 324 325 324 324 325 324 325 326 327 328 329 329 328 327 327 327 328 330 330 331 330 330 331 331 316 297 294 308 296 325 329 328 327 327 327 327 326 326

GFSGL_sfc_thetae_060.txt.gz
Theta_e
345 344 343 342 343 343 343 343 343 344 342 340 339 339 338 338 339 338 336 335 334 335 335 332 332 331 327 325 324 328 331 334 328 330 332 333 336 337 340 341 338 337 331
342 341 341 342 342 342 341 342 342 340 340 339 338 336 336 336 336 335 334 334 331 333 332 331 330 326 329 326 329 334 335 337 332 326 329 328 330 331 337 335 334 333 334
339 339 340 339 339 339 339 340 340 339 339 337 336 334 334 334 334 335 334 333 334 333 332 331 331 331 330 327 333 334 336 334 335 330 326 324 325 325 325 328 328 331 331
338 337 336 335 337 338 339 339 339 338 337 336 336 334 333 333 333 334 333 334 334 334 332 333 332 332 330 332 334 334 333 330 331 328 325 321 321 324 323 320 318 321 320
335 333 333 337 338 338 338 338 338 338 336 335 334 333 333 332 331 334 335 335 334 333 334 331 334 327 322 327 335 335 333 328 323 320 321 319 318 318 317 319 316 316 318
332 331 334 335 336 336 337 337 338 336 335 335 333 333 333 330 308 316 328 335 333 332 333 328 331 322 321 316 316 317 330 329 323 319 318 316 318 318 318 316 315 313 309
330 331 332 334 334 335 335 335 336 336 337 335 335 334 334 333 304 306 314 335 335 333 332 331 328 328 324 328 314 313 314 314 320 329 326 322 315 317 317 316 317 318 313
329 330 331 331 332 333 334 334 336 338 336 337 335 333 334 325 303 302 309 334 335 333 331 332 331 328 330 326 329 328 326 329 330 329 329 325 319 320 320 319 322 318 317
329 329 329 330 332 333 333 335 336 337 336 335 333 330 332 331 303 302 313 332 333 331 331 331 331 329 309 306 326 327 325 325 310 304 306 305 301 304 312 316 313 314 311
329 330 330 329 333 332 335 336 337 337 335 332 330 330 320 331 303 301 316 333 330 328 329 329 308 322 303 302 324 325 324 325 326 321 315 311 314 312 309 319 317 313 312
331 331 330 332 333 334 335 336 336 335 332 332 331 332 333 329 322 304 307 328 328 327 326 325 325 300 299 301 308 322 320 326 318 320 318 319 316 319 319 319 320 317 315
331 329 330 334 333 334 336 335 335 334 332 331 331 331 330 331 311 304 305 309 312 326 326 326 319 298 298 299 307 300 301 312 323 318 315 315 315 316 318 319 323 325 324
331 329 332 334 334 336 335 334 332 333 329 327 325 324 327 327 326 300 301 302 304 323 326 311 297 295 296 299 297 299 305 320 319 318 315 315 317 320 324 320 321 326 326
331 330 333 333 333 335 334 333 330 330 327 326 323 323 325 324 324 324 322 319 304 316 306 309 306 305 303 304 308 313 319 320 320 319 318 318 320 322 322 321 319 324 323
331 330 332 333 334 335 334 330 330 332 327 324 325 325 323 323 323 316 317 322 323 314 313 315 318 316 314 316 318 318 318 318 318 320 318 319 319 320 322 325 324 324 322
331 330 330 332 334 333 332 329 297 299 301 302 303 316 323 307 299 300 299 298 298 299 315 316 318 316 315 316 317 316 317 315 318 320 321 319 321 322 322 323 324 322 321
331 331 330 327 332 332 331 328 327 314 296 296 297 298 302 303 296 295 296 295 296 303 318 317 317 320 317 318 319 318 317 320 322 322 324 323 323 323 320 323 324 325 323
333 311 331 331 330 331 331 329 330 328 326 326 300 302 297 296 294 294 296 302 318 315 320 318 317 322 321 321 322 321 322 324 324 324 325 325 325 324 324 325 325 323 323
330 331 330 331 330 326 330 328 330 330 328 328 321 307 297 292 292 293 295 325 323 321 322 321 321 325 324 326 327 325 325 325 325 326 326 326 326 326 326 326 325 306 310
331 314 319 330 330 330 330 328 326 329 330 329 327 326 316 309 316 315 323 328 328 327 324 325 325 327 328 326 329 327 326 326 327 326 327 328 329 328 326 325 324 323 323
331 329 313 329 329 329 330 329 328 326 327 329 330 325 304 327 326 325 325 328 328 328 328 330 329 328 329 329 329 328 327 328 329 329 329 329 328 326 326 325 324 324 324
331 330 328 327 328 328 329 330 329 328 326 325 327 321 295 325 329 328 328 328 330 331 330 329 329 330 330 330 330 330 329 329 330 329 329 330 329 329 329 328 327 327 326
331 330 329 326 327 315 327 328 329 330 329 327 325 326 324 328 330 330 331 331 331 331 332 331 330 329 330 331 331 331 330 330 331 332 331 331 330 330 330 329 328 327 327
332 331 330 329 328 329 328 329 330 316 329 330 329 327 326 327 328 329 330 331 332 332 333 332 332 331 331 331 331 331 331 331 331 332 333 332 331 325 330 329 329 329 328
318 326 330 332 330 330 331 331 331 331 330 331 331 330 330 329 330 331 333 335 335 335 335 335 334 334 334 333 332 331 318 297 321 308 330 330 329 328 327 327 326 326 326
305 305 307 310 312 317 321 324 323 324 322 325 328 330 330 330 330 331 333 334 335 335 334 336 335 334 334 334 323 305 295 293 311 294 325 330 329 329 328 327 326 325 324

GFSGL_sfc_thetae_063.txt.gz
Theta_e
347 348 348 347 348 348 345 345 344 345 343 341 340 340 340 340 340 340 339 336 334 336 336 334 332 334 330 328 334 330 326 332 322 331 335 339 338 339 338 342 335 337 331
347 346 345 345 344 344 343 343 343 342 341 338 338 336 335 337 338 337 334 334 332 333 333 333 331 333 333 334 329 332 335 334 334 326 334 333 333 338 340 339 339 335 335
343 342 343 342 342 342 341 341 340 339 338 338 337 336 333 335 334 334 333 333 333 333 334 332 332 331 332 332 329 333 335 336 337 331 326 328 326 331 331 332 333 335 331
341 340 340 340 339 339 339 339 340 338 338 337 336 334 334 334 333 333 334 334 334 335 335 333 333 332 333 330 334 334 336 335 333 333 325 323 323 324 326 322 320 323 321
338 338 337 337 338 338 338 338 339 337 337 335 335 335 334 332 330 335 335 335 336 334 335 333 335 329 323 326 337 335 335 334 328 327 322 322 320 320 320 321 317 317 318
336 333 334 335 336 338 338 338 339 337 337 336 335 333 333 329 308 320 329 337 335 334 333 332 330 324 321 317 319 320 330 329 325 322 324 321 320 320 320 318 316 314 311
333 332 333 334 334 335 336 336 336 339 338 337 335 334 334 330 306 309 317 337 336 336 335 332 328 327 328 331 315 316 315 315 319 328 326 322 319 320 319 318 317 316 313
331 331 332 332 332 334 334 336 337 339 338 337 336 336 335 327 305 306 308 335 336 333 333 334 330 331 330 330 330 331 329 330 329 330 332 329 324 322 321 324 319 316 315
329 330 331 331 332 332 332 334 338 338 338 337 335 334 334 331 304 304 314 334 332 332 332 332 333 331 307 304 330 329 329 324 309 304 306 303 302 305 314 320 318 314 311
329 329 331 331 331 332 336 336 339 339 337 335 333 334 323 332 303 303 316 332 331 331 332 328 308 323 301 303 328 327 326 325 322 318 317 311 313 310 311 324 324 318 314
330 330 330 332 334 336 337 338 338 336 335 334 332 334 333 330 322 303 308 332 329 328 328 327 325 300 300 301 305 327 327 325 315 322 321 319 317 318 318 319 322 321 317
331 329 330 333 331 331 334 336 336 335 334 333 332 333 333 330 313 305 306 310 313 328 328 328 318 299 299 300 308 303 302 314 322 320 318 317 317 316 317 320 319 323 325
330 330 330 332 334 335 334 334 332 335 332 331 332 328 327 327 327 302 303 303 304 325 327 304 297 296 297 303 298 299 303 322 320 317 316 316 318 319 318 319 323 325 325
329 330 331 332 333 333 333 331 331 331 331 327 328 328 326 326 326 327 324 323 306 316 307 314 305 305 302 303 306 313 321 323 321 318 317 318 319 319 317 321 322 321 322
329 330 331 331 333 332 322 320 331 330 324 328 327 327 326 324 324 316 319 325 327 314 314 317 318 315 314 316 317 317 319 323 323 321 318 317 319 320 320 321 320 323 322
329 329 329 329 331 331 331 329 298 299 298 298 299 317 324 307 299 299 298 298 299 301 315 317 316 315 315 316 315 316 317 317 322 321 320 319 319 321 321 322 322 325 323
332 332 329 326 330 328 330 328 327 314 297 296 297 297 307 302 297 296 295 296 296 304 317 320 317 316 317 317 316 317 317 318 322 321 319 320 322 323 320 323 324 323 323
331 311 330 331 331 330 330 329 329 327 324 324 301 304 296 295 295 295 296 302 315 313 321 320 320 318 318 319 318 318 319 319 320 322 320 322 325 323 322 323 324 324 324
331 328 331 330 329 326 330 330 329 328 326 326 323 309 298 292 293 294 295 325 323 320 320 323 324 322 321 322 322 321 322 322 323 324 325 326 325 325 324 325 325 306 311
331 314 318 329 328 328 329 328 329 328 329 328 325 325 319 310 317 319 322 325 325 325 326 324 324 326 327 326 325 325 327 325 326 327 327 328 328 327 326 326 325 323 323
328 328 311 328 328 327 327 326 327 329 328 328 328 324 304 325 325 325 326 328 326 328 328 326 327 327 328 328 328 327 327 327 328 327 327 328 328 327 329 327 325 325 324
329 327 327 328 328 327 328 328 326 325 327 328 330 319 297 323 329 328 328 329 329 329 331 330 329 329 329 330 329 329 328 328 329 330 329 329 329 328 327 326 325 324 323
332 328 324 326 327 315 326 328 327 326 325 325 331 326 324 327 328 329 329 330 331 332 332 330 329 329 332 332 332 331 329 329 330 331 329 329 328 327 327 326 326 326 326
331 326 325 324 326 326 326 327 327 315 326 325 327 327 327 329 330 329 331 332 332 332 332 332 332 330 331 331 331 331 331 333 334 334 333 331 329 325 329 329 328 328 328
319 321 324 325 326 324 326 327 324 328 324 321 326 327 326 327 328 330 330 331 331 331 331 331 331 332 330 318 311 308 293 290 317 302 330 332 331 331 330 329 329 329 329
311 311 310 310 310 311 310 309 309 312 316 315 312 314 312 317 316 317 318 319 320 316 315 311 309 308 308 303 298 289 288 288 298 289 317 329 329 328 327 327 327 326 325

GFSGL_sfc_thetae_066.txt.gz
Theta_e
349 351 351 352 351 349 349 348 349 348 345 344 343 342 340 341 340 338 337 336 335 334 335 334 331 330 328 327 327 327 324 326 320 324 327 329 329 329 330 331 332 331 324
349 349 350 349 348 347 346 347 346 345 343 342 340 338 337 337 338 336 334 334 332 332 333 333 329 332 329 329 328 327 325 328 323 321 324 326 327 329 330 330 332 333 329
345 344 344 345 345 345 344 344 343 343 342 339 338 336 335 336 336 334 335 333 332 334 333 331 330 330 328 329 327 327 327 327 327 324 323 325 326 329 330 329 330 330 326
342 341 342 343 343 342 343 343 341 340 338 338 339 333 335 335 334 333 335 331 332 334 333 333 332 330 330 329 329 328 328 326 326 324 323 322 322 326 326 323 320 322 320
339 339 340 341 341 340 339 339 337 338 336 336 336 336 337 333 330 332 335 333 333 332 333 333 331 325 322 325 331 328 327 325 325 322 321 320 319 320 319 320 318 318 317
337 337 338 336 337 338 339 339 339 336 336 337 335 334 333 329 310 318 331 333 332 333 330 329 326 319 319 319 322 322 325 327 325 321 320 319 319 318 319 318 316 315 311
334 334 334 335 336 337 337 336 337 335 335 335 332 333 332 325 305 310 317 334 334 332 332 329 325 327 324 326 315 315 316 315 319 324 321 321 319 319 319 317 317 315 312
332 332 333 333 334 336 335 335 337 336 336 336 335 334 332 320 304 306 311 334 333 333 332 329 328 331 327 328 329 325 326 323 322 327 325 323 322 321 321 320 317 315 316
330 330 331 332 332 333 335 332 337 337 335 334 334 333 331 324 303 305 314 333 332 331 332 329 330 326 305 305 328 326 321 316 307 305 304 304 305 307 315 318 315 313 311
329 330 331 332 332 335 336 335 337 338 335 334 333 334 324 324 304 304 314 333 330 328 328 325 307 320 302 304 328 326 319 317 317 317 315 309 311 309 309 320 317 313 312
330 330 332 334 336 337 338 338 336 336 335 334 332 333 333 326 315 304 307 332 329 328 326 323 317 300 300 301 306 326 320 320 314 318 317 316 317 318 319 319 322 317 314
329 329 333 335 332 335 337 336 337 335 333 331 330 331 332 328 312 304 305 306 310 328 326 323 311 299 300 302 310 299 303 313 320 317 315 314 315 315 318 318 322 320 322
329 330 332 334 332 334 336 335 333 333 330 330 328 327 327 326 321 301 301 303 306 325 320 305 297 296 298 303 300 301 305 320 318 314 314 314 316 317 318 318 320 322 323
330 330 333 332 331 334 333 333 332 331 330 329 328 328 326 325 324 324 320 316 306 311 306 312 305 304 302 305 309 309 321 320 318 316 314 316 318 317 317 319 317 318 318
330 331 332 329 329 323 315 315 327 319 327 329 328 328 325 323 321 314 318 324 324 314 313 316 317 315 314 315 317 318 320 320 318 318 316 316 316 316 316 319 319 319 318
330 331 329 329 330 326 327 321 297 297 296 296 302 319 318 306 299 300 299 299 299 301 316 316 315 314 314 315 315 316 317 317 319 318 317 317 316 317 317 318 319 318 318
330 332 329 329 330 329 327 327 321 311 296 295 295 302 306 298 296 297 297 296 296 305 318 317 315 316 315 315 316 316 316 319 320 318 318 318 319 319 314 317 318 321 321
333 314 328 331 330 330 329 329 326 323 321 320 300 301 294 295 294 296 296 302 314 313 319 317 316 316 317 316 317 317 318 320 319 319 319 319 320 321 320 319 320 320 320
330 328 330 330 332 328 330 329 327 326 325 322 316 306 296 293 294 295 295 322 320 320 320 320 319 318 319 319 319 319 320 318 321 320 320 320 322 322 320 321 321 304 309
331 316 317 329 328 330 329 327 327 327 326 324 322 318 313 313 316 316 317 320 324 322 323 321 322 322 321 322 319 320 321 317 320 321 321 322 324 323 321 321 322 321 320
330 329 308 325 327 327 328 326 326 327 327 326 325 319 302 321 320 321 322 324 325 326 325 323 323 326 326 326 324 323 323 322 323 324 325 325 325 323 325 324 323 324 323
328 326 326 327 325 326 326 328 329 327 327 327 326 313 297 324 324 325 326 326 327 329 327 325 325 327 327 327 326 326 325 325 326 327 326 326 326 326 326 325 325 323 322
331 327 323 326 325 315 322 326 325 327 328 327 325 320 318 323 327 327 328 330 327 327 330 327 327 327 329 328 329 328 326 327 328 328 326 327 326 326 326 325 323 322 321
327 325 326 326 323 326 326 326 325 310 324 329 325 324 324 327 323 326 327 331 330 328 324 319 316 307 314 312 309 306 301 301 313 328 329 328 326 322 325 325 324 324 323
319 316 316 317 318 318 321 322 319 317 316 318 324 325 321 320 316 318 319 318 315 311 307 303 304 303 299 297 296 295 289 287 297 292 323 327 327 326 325 324 324 324 325
309 309 307 306 305 305 306 305 306 308 306 305 306 308 312 311 309 308 310 309 309 308 305 302 298 296 296 294 291 287 286 287 292 288 313 328 327 326 326 325 325 324 322

GFSGL_sfc_thetae_069.txt.gz
Theta_e
340 340 341 343 345 345 343 342 342 342 342 340 338 335 334 333 333 330 329 329 328 327 327 326 324 323 320 321 320 319 320 321 316 319 321 323 325 329 330 328 327 324 324
342 342 343 342 343 341 338 338 339 339 339 338 336 334 334 333 331 329 328 329 328 326 327 326 325 327 322 321 319 317 318 320 316 315 318 320 321 326 327 328 329 328 327
342 341 341 342 339 337 335 334 335 333 332 333 332 335 334 334 332 328 329 329 327 327 327 326 324 324 321 321 320 319 319 323 322 321 318 321 326 326 325 327 326 324 325
340 340 339 339 337 334 333 332 333 332 330 329 332 333 334 333 333 331 330 325 327 328 328 327 326 324 323 322 322 321 320 321 320 319 318 319 324 325 326 321 319 321 320
339 338 337 337 335 334 332 332 331 330 329 332 331 331 331 329 330 329 328 329 326 327 328 327 323 323 323 323 324 323 322 320 320 318 316 319 320 322 321 320 318 317 317
337 336 336 333 332 331 330 330 329 329 331 331 329 330 323 325 311 317 324 326 328 327 322 321 320 319 319 319 318 322 322 322 316 315 318 318 317 318 320 318 316 316 312
335 334 332 331 332 330 331 331 330 329 330 327 326 325 322 316 306 313 321 326 327 326 323 322 322 324 320 320 314 314 314 315 317 317 318 319 318 319 319 317 317 314 313
332 331 330 331 331 330 327 326 328 327 329 325 325 323 319 312 303 308 316 326 325 326 323 321 320 322 321 321 319 320 316 314 316 323 320 320 320 321 320 319 315 316 317
328 328 330 331 330 328 325 325 327 326 324 325 326 322 318 313 303 306 316 325 324 328 328 326 325 321 303 306 319 316 312 312 306 306 307 305 305 307 314 318 315 314 312
327 327 328 329 329 328 329 327 327 326 325 327 325 324 315 313 304 304 313 324 323 323 323 320 313 317 300 304 320 316 314 313 316 316 313 307 310 309 308 319 317 314 312
327 326 327 329 331 331 330 328 327 327 326 325 325 323 320 315 307 304 303 324 322 321 318 316 313 300 299 302 309 319 314 315 312 316 316 317 318 317 319 319 318 316 314
325 330 330 330 332 331 329 327 327 326 323 322 322 323 319 317 305 303 301 305 311 324 318 314 309 298 299 301 307 300 302 310 316 315 315 315 316 317 317 319 318 315 317
328 327 327 328 330 330 328 327 327 324 322 322 322 321 320 317 309 299 301 305 306 317 316 307 297 297 298 301 298 301 306 317 315 314 313 314 315 317 317 319 318 319 320
325 325 326 328 326 327 329 327 325 323 322 322 321 320 318 317 314 313 310 309 305 307 304 306 304 302 303 304 307 309 319 317 315 314 314 315 316 316 316 318 317 314 313
326 326 326 325 321 312 308 310 322 317 320 322 321 323 319 318 318 313 313 315 315 309 309 312 313 313 312 314 316 318 318 317 315 315 315 315 315 315 316 317 316 316 312
325 325 325 323 321 320 316 311 295 295 297 301 309 317 314 307 299 299 300 299 299 300 313 314 313 314 314 315 316 317 318 314 316 316 315 315 313 314 315 317 317 316 316
324 324 325 322 324 321 320 316 313 305 296 294 295 300 302 300 297 296 296 297 297 305 315 313 313 314 314 315 316 317 317 317 318 317 316 316 316 315 311 315 316 317 317
325 313 327 325 325 324 321 318 317 316 313 309 297 296 294 295 295 296 296 302 314 311 316 314 314 315 315 315 316 317 318 318 316 317 317 317 317 318 315 315 316 314 316
325 325 327 327 327 324 324 321 319 319 315 310 308 301 294 293 294 296 296 317 317 316 317 316 316 316 316 317 317 317 318 318 318 318 315 318 319 317 315 315 315 302 306
325 314 317 327 327 324 325 323 320 319 315 313 312 311 307 306 312 312 312 317 318 318 317 319 317 317 318 317 317 317 316 315 317 317 315 316 318 318 317 317 318 316 314
321 318 307 326 326 326 325 323 322 320 318 317 315 311 299 314 313 313 313 315 319 318 319 320 318 318 319 320 319 319 319 317 316 320 319 318 319 319 320 319 318 318 317
321 321 319 322 323 321 323 325 324 323 321 319 316 308 293 316 316 316 317 318 322 324 322 321 321 323 323 322 321 319 320 319 319 321 321 321 321 321 320 320 319 318 319
322 320 319 322 322 309 318 326 325 324 322 320 316 313 308 315 318 318 319 322 322 321 321 315 314 316 314 315 316 316 321 320 321 323 323 323 323 322 323 321 321 320 319
320 320 319 319 319 320 317 317 317 314 323 319 316 316 316 316 315 312 309 308 306 305 303 301 300 299 299 298 299 299 296 295 302 313 325 324 324 317 322 323 324 322 320
309 309 310 310 311 313 311 309 311 313 319 317 314 311 308 310 309 309 307 303 300 297 297 298 296 295 294 293 293 292 288 289 295 292 318 322 325 324 323 322 322 322 323
303 303 303 302 301 302 302 302 302 303 302 303 304 302 302 301 301 301 300 298 297 295 293 292 292 291 291 290 289 286 287 287 292 291 311 312 310 307 311 316 319 320 320

GFSGL_sfc_thetae_072.txt.gz
Theta_e
327 332 333 336 340 341 341 340 338 339 338 338 338 335 335 332 330 328 327 327 325 324 324 323 322 322 319 318 318 316 317 320 314 316 318 320 324 326 328 328 325 326 324
335 337 337 338 340 340 341 340 339 339 338 339 337 334 333 332 329 328 327 328 325 324 324 324 322 324 319 318 317 315 316 317 317 313 316 318 320 327 326 326 326 327 326
338 338 337 338 340 338 337 339 339 339 338 337 335 333 332 331 329 328 328 327 326 325 325 324 323 322 319 319 318 315 316 319 317 315 318 322 320 325 325 325 323 323 325
339 338 337 337 335 334 335 335 336 336 335 333 333 332 333 333 332 330 327 326 325 326 326 326 325 323 321 320 319 317 317 317 317 316 315 320 320 322 324 321 318 321 320
337 337 334 334 334 334 334 332 331 331 330 330 329 330 330 332 331 329 329 323 324 324 325 326 324 323 322 321 322 319 318 316 316 315 316 319 321 321 319 320 317 317 317
336 334 335 334 333 333 332 330 328 327 326 327 328 330 328 327 312 315 324 324 324 324 322 320 319 319 317 315 315 317 320 319 314 314 313 318 319 318 320 318 317 316 313
335 334 334 333 331 330 331 328 324 324 325 325 327 325 323 318 305 309 314 325 324 321 319 319 320 322 318 319 311 312 311 312 315 316 317 317 318 320 320 317 318 312 314
333 332 333 331 329 329 327 325 323 325 326 326 322 318 317 313 302 305 312 324 323 322 321 319 319 318 318 317 318 316 315 318 316 319 319 317 318 322 321 319 316 316 316
332 331 331 330 328 325 323 323 323 324 323 321 320 317 315 311 301 303 315 322 322 321 322 321 321 317 301 303 315 313 314 314 306 305 306 303 303 305 313 318 315 315 312
330 329 330 330 327 323 323 323 322 322 322 324 320 317 312 313 301 302 315 321 320 322 322 321 310 313 300 302 316 315 316 315 316 315 313 307 309 309 307 320 317 315 312
329 329 330 329 326 326 324 323 323 323 323 323 320 317 315 312 307 300 305 322 321 320 320 318 312 299 300 302 307 317 314 315 312 317 317 317 316 316 318 319 320 318 313
327 328 328 328 330 329 325 324 325 323 322 320 319 315 314 312 303 300 301 308 311 317 315 314 309 297 298 303 308 299 301 309 316 316 315 315 315 316 317 318 317 316 315
326 327 329 328 327 327 326 324 323 322 321 321 321 315 313 311 310 298 299 299 303 315 314 308 298 297 297 299 298 300 304 316 315 314 314 314 316 317 318 317 317 318 317
326 326 328 327 325 326 327 326 324 321 321 321 320 316 315 312 310 309 310 309 304 306 304 306 304 304 301 303 306 310 317 316 315 314 314 315 316 316 317 317 316 316 314
325 325 325 324 319 312 307 312 322 320 321 321 321 319 315 313 312 308 309 312 314 309 308 311 313 313 312 314 315 318 316 315 314 315 314 314 315 315 316 317 317 313 312
323 323 321 319 318 314 312 308 295 295 299 303 305 316 317 308 300 298 299 297 297 298 312 313 312 312 312 314 315 316 316 312 314 315 315 314 314 315 315 316 316 315 311
323 321 320 319 318 316 316 314 309 304 295 294 295 299 304 300 297 297 296 295 296 301 313 313 313 313 314 315 316 316 315 315 315 315 315 314 314 315 312 315 316 315 316
324 313 322 321 320 318 316 315 316 315 312 310 296 296 294 295 295 294 295 301 311 310 314 313 313 314 315 315 317 317 317 316 314 315 315 315 315 314 314 315 315 314 315
324 323 323 323 321 317 317 317 316 314 311 308 306 300 294 293 294 295 297 314 315 315 315 314 315 315 315 316 318 318 317 316 315 316 316 316 316 317 315 314 315 302 306
323 313 317 324 322 320 318 317 316 312 312 312 312 309 305 307 311 311 311 316 317 314 315 316 316 317 317 317 318 317 317 315 316 317 315 316 318 317 315 316 315 314 313
322 322 310 325 323 322 321 318 317 314 312 312 313 309 298 314 312 313 310 313 317 318 318 318 316 317 318 318 317 317 316 317 318 318 314 315 317 316 317 317 318 317 316
323 323 326 326 326 324 322 322 319 316 315 314 311 306 290 311 312 313 316 317 319 320 321 321 320 320 320 320 319 318 318 317 317 319 319 319 318 319 320 319 317 316 316
321 322 320 321 325 312 318 322 321 319 317 314 312 309 308 313 316 314 314 310 310 308 308 307 307 305 306 307 307 311 319 319 318 320 320 319 319 319 319 319 318 317 317
319 319 315 316 318 320 321 323 321 311 316 314 313 313 311 308 305 304 303 302 300 299 298 298 298 296 298 297 298 298 297 300 303 310 315 323 322 317 321 322 322 321 320
306 305 307 308 308 311 318 319 317 317 316 314 310 308 306 305 301 299 297 296 296 294 293 293 293 294 293 292 291 292 290 288 298 296 317 319 321 322 321 319 318 318 320
301 301 301 302 301 303 306 306 307 306 303 301 300 299 299 297 296 296 295 293 291 290 290 290 291 290 289 290 289 287 287 288 293 291 305 308 308 307 311 311 311 311 311

GFSGL_sfc_thetae_075.txt.gz
Theta_e
316 321 324 328 329 333 335 337 337 337 338 338 337 335 334 334 332 328 326 326 325 322 322 322 320 319 319 318 316 315 315 315 311 315 315 321 323 327 326 326 327 325 323
318 321 325 329 333 334 336 337 336 337 338 337 335 335 334 334 331 328 326 327 324 322 323 322 321 322 317 316 316 314 314 315 315 313 313 317 322 324 323 324 325 326 325
326 327 330 332 334 335 336 336 337 337 337 337 335 334 333 332 329 327 327 326 324 323 323 322 321 320 317 317 316 314 314 317 314 317 317 321 322 326 324 323 323 323 323
332 332 332 334 337 337 336 336 337 337 336 335 335 334 333 331 330 327 326 325 324 324 324 323 323 321 320 318 318 315 316 315 315 313 317 318 321 323 323 319 318 320 319
334 334 334 335 334 334 335 336 336 336 335 335 333 332 331 329 329 327 328 324 323 323 323 324 324 322 321 319 319 316 316 315 314 313 317 318 318 319 319 319 317 317 318
334 332 333 332 333 333 333 335 334 332 333 333 331 329 326 328 310 313 322 324 322 322 321 321 319 317 315 312 313 315 317 315 314 313 317 318 318 319 320 318 317 316 313
332 333 332 332 331 331 332 331 330 329 329 327 325 325 323 322 305 307 313 325 322 321 320 318 318 320 318 319 310 311 310 310 313 316 317 319 319 320 319 318 317 316 314
329 331 332 331 330 330 329 328 326 325 325 323 322 321 319 314 302 303 309 322 320 320 318 318 318 316 316 317 316 316 316 317 317 318 318 317 319 322 321 320 317 315 316
325 330 330 330 329 328 326 325 324 323 322 320 319 317 316 312 301 301 314 321 320 319 319 318 319 317 304 302 315 313 315 314 305 304 304 304 302 306 313 318 316 315 312
326 331 331 330 328 325 323 322 320 323 320 320 316 316 311 313 299 300 313 321 318 318 320 318 308 313 299 300 315 315 315 315 315 314 312 306 308 309 308 321 318 315 311
322 327 329 328 325 323 322 322 320 321 320 318 316 314 314 312 306 300 304 320 320 318 318 317 311 299 298 298 306 317 312 316 312 317 316 316 316 316 318 318 320 318 314
319 329 327 324 325 324 322 321 322 321 319 316 314 312 311 310 302 299 300 307 309 318 320 318 307 298 299 299 307 298 300 309 316 317 316 315 315 316 317 318 318 318 316
325 326 325 325 325 323 322 321 320 321 320 318 315 312 309 311 309 297 298 298 302 315 315 310 297 296 297 300 298 299 303 316 315 315 314 314 316 317 317 316 317 318 316
325 325 325 324 322 323 324 323 321 320 321 321 317 312 310 309 311 312 310 307 302 308 304 307 304 303 301 304 304 308 316 316 315 314 314 315 316 317 316 316 315 316 313
325 326 324 323 321 313 306 311 320 319 320 321 319 315 313 310 310 307 311 315 315 309 309 312 313 313 311 311 314 316 315 315 313 314 314 314 315 316 316 317 316 315 311
323 324 322 320 317 314 313 309 295 295 300 301 302 313 316 306 297 296 296 298 297 299 312 312 312 312 312 313 314 314 313 311 314 315 314 315 314 315 315 316 315 313 308
322 320 319 317 317 314 315 315 311 302 295 295 297 300 305 302 296 295 295 294 295 302 312 312 312 312 313 314 315 315 313 313 315 315 314 314 314 315 313 315 315 315 315
322 308 321 320 318 316 316 314 315 315 314 311 296 297 294 296 295 293 293 299 307 309 313 312 312 313 314 315 316 316 315 314 314 314 314 314 314 314 314 314 315 315 314
321 321 320 319 317 314 316 315 314 313 314 308 305 299 294 292 292 293 296 315 314 314 313 313 314 315 315 316 318 318 317 315 314 315 314 314 315 314 313 314 314 302 306
322 307 313 318 316 316 316 314 312 312 312 312 312 307 305 307 311 312 311 314 313 316 316 314 315 315 317 317 318 318 316 313 315 315 315 315 316 316 315 314 315 314 312
321 318 305 319 318 317 316 315 313 313 313 313 312 307 297 313 311 312 313 315 316 317 317 316 316 317 317 317 318 317 317 316 317 316 316 315 317 316 316 316 316 315 314
322 321 322 321 320 319 317 316 313 312 313 311 310 301 291 313 313 314 314 317 319 319 319 319 318 319 320 318 318 317 317 317 317 317 316 316 317 317 317 317 317 317 316
322 323 323 322 322 309 317 317 315 314 312 311 309 307 310 310 314 310 307 305 304 303 303 304 305 304 304 305 305 309 316 318 319 319 319 319 318 318 318 318 317 316 315
317 318 317 320 320 320 321 318 314 305 312 311 311 311 306 302 301 300 299 299 297 296 297 296 296 295 296 296 297 298 297 297 301 308 313 318 320 313 319 318 318 319 318
307 308 309 309 312 318 319 317 315 314 314 312 307 303 299 297 295 294 294 294 293 291 291 292 292 292 291 290 290 292 288 287 297 294 310 317 318 320 321 319 318 315 314
301 302 303 304 303 309 313 312 306 303 301 300 297 295 295 294 294 293 292 291 291 290 290 290 290 290 290 290 289 288 287 288 292 290 304 303 304 305 309 310 310 311 309

GFSGL_sfc_thetae_078.txt.gz
Theta_e
314 314 323 325 327 327 330 333 336 337 339 339 340 338 337 336 335 334 331 330 329 327 327 326 325 325 325 324 323 323 322 321 319 321 323 326 328 328 329 329 328 327 325
321 316 321 325 327 329 331 334 336 337 339 339 339 337 336 335 334 332 330 330 328 326 326 326 325 324 324 323 322 321 322 322 322 320 321 323 324 327 326 326 326 327 326
324 316 321 326 328 329 331 335 336 337 338 339 338 336 335 334 333 332 331 329 328 328 327 326 325 325 323 322 321 321 321 322 321 322 319 323 324 326 324 325 324 324 324
326 318 322 328 330 331 333 335 336 338 337 337 338 336 335 335 333 331 330 329 328 327 327 327 326 325 324 323 322 321 321 321 321 321 319 320 323 324 324 321 318 322 320
329 326 325 329 332 334 335 335 337 337 337 337 336 335 334 333 331 330 329 328 328 327 327 327 328 325 321 322 325 322 321 321 320 318 318 320 320 320 320 322 319 318 319
332 331 333 334 335 335 335 335 336 336 335 335 334 333 332 332 310 313 324 328 327 327 326 326 326 319 319 311 312 314 320 321 320 318 318 318 319 320 321 320 319 318 315
331 332 332 333 333 333 334 335 334 334 334 334 332 332 329 327 307 308 312 328 326 326 326 325 324 324 319 322 310 310 310 310 315 323 320 321 321 321 320 320 320 319 317
327 331 333 333 332 334 335 333 333 332 332 331 330 328 326 320 304 304 309 326 324 326 325 324 324 322 321 321 321 321 321 321 322 322 324 325 326 324 325 321 319 316 318
319 330 331 332 331 331 331 329 330 329 327 326 326 324 322 316 300 302 317 325 324 323 323 323 323 321 306 302 321 318 319 316 304 302 305 304 302 305 316 320 316 315 313
319 331 329 330 329 328 327 326 329 327 323 323 321 322 313 313 298 301 317 324 322 322 321 321 307 317 300 299 320 318 317 317 316 316 315 308 309 311 308 324 320 315 314
322 322 330 329 326 326 325 325 325 323 321 320 318 317 317 314 307 300 304 325 324 322 322 319 316 299 297 297 306 321 317 317 313 318 318 318 319 317 321 322 322 321 317
320 323 328 326 326 325 323 323 323 321 318 316 315 315 314 314 303 300 300 307 310 323 322 320 310 297 296 297 306 298 300 309 318 318 317 317 316 317 319 320 321 321 320
321 324 325 325 325 324 323 322 321 320 318 316 316 314 313 313 310 298 299 298 303 320 321 309 297 296 296 300 297 299 304 318 318 318 316 316 317 319 319 318 319 320 319
318 325 325 323 322 324 323 323 322 320 319 317 315 314 311 314 314 313 310 308 303 309 304 305 304 303 302 305 305 309 319 319 318 317 316 317 318 318 317 318 316 316 315
317 325 324 322 321 312 307 315 323 322 320 319 318 316 314 313 314 310 311 317 317 310 310 314 316 316 313 313 314 316 318 317 317 316 316 316 316 317 317 317 317 317 314
318 322 322 320 317 314 314 310 295 298 299 300 302 312 317 304 296 298 299 299 298 299 314 314 315 315 315 314 314 314 314 312 316 316 316 316 316 316 316 316 317 315 314
323 322 319 318 318 317 318 317 311 302 295 295 297 299 303 298 295 295 295 294 296 303 315 315 315 314 314 315 316 315 313 315 317 317 316 317 316 316 313 315 315 315 314
323 309 320 319 319 319 319 318 317 317 316 311 296 299 294 294 293 293 294 299 311 312 315 315 314 315 315 315 316 316 315 314 316 316 316 316 316 315 315 315 316 316 316
322 321 321 320 319 316 318 318 318 318 316 308 307 300 293 292 292 293 296 315 314 315 314 314 314 315 316 316 318 317 316 315 314 315 315 315 315 314 314 315 315 302 307
317 303 311 318 318 318 318 317 316 314 313 313 312 307 305 308 310 312 314 316 315 317 316 315 316 316 317 318 318 318 315 313 315 316 316 317 317 316 314 315 316 316 315
318 316 303 320 319 319 317 316 315 314 314 312 310 307 295 315 313 314 315 316 317 317 318 317 316 317 318 319 319 317 316 316 317 317 317 318 318 317 319 317 316 316 316
319 320 320 319 319 318 316 316 316 315 314 311 309 303 293 315 314 315 316 315 314 312 317 319 317 315 316 317 318 318 317 317 318 318 318 318 318 318 318 318 318 318 315
322 322 321 320 319 307 315 316 315 313 312 311 310 310 312 314 313 307 304 302 301 300 300 301 302 302 302 302 305 307 316 317 317 320 320 319 318 319 320 319 317 317 317
323 323 322 320 319 318 317 316 313 305 310 310 311 307 304 302 300 299 298 296 295 295 295 295 294 294 295 295 297 297 296 300 304 310 313 318 320 315 319 318 319 319 319
313 313 315 320 319 318 316 315 313 312 311 307 302 299 298 297 296 294 294 294 294 292 292 293 293 292 292 291 292 293 288 287 300 295 314 316 317 319 321 321 319 317 315
305 305 305 310 316 315 312 309 307 302 299 297 296 296 295 294 293 293 292 291 291 290 290 290 290 290 290 290 288 287 287 288 293 290 301 302 301 302 304 303 303 302 303

GFSGL_sfc_thetae_081.txt.gz
Theta_e
319 322 328 330 329 334 340 342 344 349 348 347 348 350 349 349 349 349 348 344 338 338 340 339 337 338 334 334 334 333 331 330 324 328 332 330 330 332 334 335 334 338 333
318 321 323 330 331 334 338 340 345 346 347 346 348 349 348 348 349 347 343 340 338 338 338 338 336 334 336 336 333 333 332 332 328 327 326 327 328 330 332 331 331 334 335
317 317 319 327 331 334 338 340 342 345 346 346 347 348 347 347 346 345 342 338 340 340 339 337 336 336 335 334 333 332 331 330 331 329 323 328 327 328 327 328 327 328 330
316 314 318 327 332 333 338 341 345 345 345 346 347 347 347 346 344 343 341 338 340 339 338 337 337 336 335 334 333 333 330 329 329 329 324 324 326 326 327 324 322 326 325
314 313 317 332 332 333 337 340 344 345 345 346 346 347 347 345 342 341 336 337 339 336 337 336 337 333 326 329 332 332 331 328 327 324 324 325 323 322 323 326 321 321 324
312 311 317 335 330 334 338 341 343 343 344 345 345 346 344 342 312 317 333 339 337 336 334 335 336 324 323 313 315 319 327 329 328 324 324 322 324 324 324 324 321 322 320
310 311 322 334 331 334 338 340 341 342 343 344 345 345 344 342 309 310 316 338 337 337 336 336 334 332 327 331 312 310 312 312 319 332 329 326 327 328 326 324 325 324 319
309 313 325 332 332 335 336 336 336 338 340 341 342 344 343 335 306 307 311 338 337 337 338 337 336 334 333 329 330 330 330 329 329 329 332 330 333 332 330 329 330 325 324
311 322 329 333 332 331 333 333 335 337 338 338 340 340 333 324 306 303 320 331 330 334 335 335 334 332 308 305 332 331 330 327 307 304 304 306 305 310 320 325 320 318 318
320 322 330 333 334 333 335 336 338 338 336 336 337 332 321 326 299 302 321 333 333 332 333 330 308 324 299 300 332 330 327 326 324 325 323 312 314 318 309 330 322 320 320
324 323 328 334 335 335 334 334 334 332 334 332 326 329 331 327 313 301 308 332 332 331 329 326 327 300 297 298 307 330 325 322 316 325 325 324 326 324 324 329 323 321 320
324 323 329 332 331 331 331 332 332 332 328 325 327 322 322 320 306 301 302 313 317 331 329 330 322 297 296 297 309 299 300 311 323 322 321 320 320 320 324 327 327 326 326
322 322 326 328 328 329 329 327 328 329 326 328 326 320 318 320 317 298 298 300 304 330 331 313 297 295 295 302 297 298 303 320 322 321 320 320 321 323 323 322 323 324 324
322 323 325 326 327 329 329 328 328 329 328 327 325 323 322 322 322 320 317 316 305 313 306 311 310 308 303 309 309 311 324 323 322 323 323 321 323 320 320 322 321 323 321
322 325 324 325 326 320 314 325 330 331 326 327 327 325 324 323 323 315 316 327 329 317 314 317 322 320 319 316 317 321 323 322 321 321 321 319 319 319 319 321 321 320 320
319 324 323 320 320 319 320 315 296 299 298 300 306 319 324 305 299 298 298 297 298 300 320 321 322 321 319 318 317 318 319 318 321 321 320 320 319 319 318 318 320 320 320
319 324 323 319 322 322 324 322 313 303 295 295 297 298 302 300 296 296 296 296 296 304 320 319 320 321 320 320 319 319 316 317 322 321 321 319 319 319 316 320 318 319 315
322 309 323 324 326 326 327 325 323 319 316 314 296 298 294 294 294 293 295 301 315 313 320 320 320 320 319 318 319 319 315 316 320 321 321 320 321 319 317 316 316 315 315
322 325 327 327 327 323 324 324 324 322 318 309 307 298 294 292 293 294 297 322 321 322 322 321 322 321 320 319 318 319 319 318 317 321 319 318 319 317 316 316 316 303 309
326 311 318 326 324 325 325 321 320 319 316 317 313 308 307 309 314 317 319 319 319 320 319 318 318 319 319 319 320 319 317 313 315 317 319 318 318 318 316 317 317 317 320
324 324 309 328 328 328 326 322 320 320 316 315 313 310 297 317 316 317 319 319 321 320 319 320 320 320 319 320 320 318 316 316 316 318 319 320 320 318 316 317 318 318 321
326 328 328 327 327 326 325 324 322 319 315 312 311 304 293 320 320 320 313 307 306 306 313 319 310 310 311 315 319 320 318 318 321 321 320 322 323 322 323 322 319 319 318
328 327 327 327 326 313 323 322 318 316 315 314 314 314 317 315 310 305 301 299 299 298 299 299 300 300 301 302 305 307 319 321 321 322 321 322 321 320 321 320 320 321 320
328 327 326 325 325 324 321 316 314 307 313 314 313 309 306 303 300 297 297 296 295 296 295 295 294 295 295 298 299 301 303 304 308 314 318 324 321 317 322 320 320 318 318
328 327 327 325 325 321 316 313 313 312 308 307 305 303 300 298 297 295 294 294 293 292 292 292 293 292 292 292 292 293 288 287 302 297 317 321 319 319 318 316 314 312 311
319 321 322 321 319 317 313 307 304 303 300 299 299 298 297 295 293 292 292 292 291 290 289 290 290 290 290 290 287 286 287 288 293 290 303 303 301 302 302 302 301 301 300

GFSGL_sfc_thetae_084.txt.gz
Theta_e
320 322 324 326 331 333 336 338 340 348 349 347 351 354 354 353 355 356 357 353 352 351 348 348 345 346 341 339 338 336 334 332 327 334 338 336 337 336 340 342 340 341 334
318 320 322 326 329 331 334 339 340 343 345 346 349 351 350 351 355 355 353 351 348 346 345 344 343 342 343 341 337 338 335 336 331 331 333 331 332 335 335 336 340 341 340
317 319 320 324 326 329 333 339 340 341 343 345 348 349 348 350 353 354 352 349 348 346 344 344 342 341 339 338 338 336 335 334 334 334 328 330 332 331 331 332 330 334 336
317 317 319 323 326 328 332 339 340 340 341 346 349 348 348 350 352 352 350 348 347 346 346 344 342 339 339 339 337 337 335 333 333 333 331 328 328 329 331 328 326 329 329
315 316 319 322 325 327 329 340 340 342 343 348 348 348 349 350 349 351 348 347 347 346 345 342 341 336 330 333 335 337 336 332 329 331 331 325 326 325 326 329 326 324 328
314 314 318 320 322 325 330 341 339 341 346 348 350 346 349 347 316 319 340 347 346 344 340 340 340 329 327 318 317 321 329 334 333 331 329 329 328 326 329 329 324 322 320
313 315 317 318 319 322 332 339 338 346 353 353 352 350 351 349 312 313 318 346 343 342 340 338 337 335 332 335 314 312 316 314 318 334 332 331 330 332 328 329 329 324 325
313 314 314 314 317 321 336 337 344 349 353 352 352 352 351 340 309 308 313 345 342 341 339 338 338 338 337 336 335 334 334 333 332 333 337 336 334 336 335 330 332 331 325
309 310 313 316 317 325 336 339 346 349 351 350 349 349 347 331 305 308 323 339 338 338 338 339 338 338 310 308 334 333 332 332 310 306 306 306 306 313 324 332 328 327 321
308 311 313 313 320 331 336 341 344 347 345 346 344 346 330 335 303 306 322 334 335 334 337 338 309 328 303 302 334 333 331 333 331 330 331 321 319 320 310 332 332 324 321
310 311 312 316 330 335 336 338 339 339 339 339 339 342 341 333 319 304 306 334 332 330 332 333 332 301 300 300 302 335 330 332 321 332 331 332 332 331 330 331 335 328 320
312 313 318 329 333 335 335 336 336 336 335 335 337 338 336 333 312 302 305 310 319 332 332 333 325 298 297 299 310 300 304 315 331 329 327 325 326 326 327 329 331 325 327
314 320 323 330 331 334 333 332 332 334 334 333 332 331 330 327 324 301 300 302 307 335 338 313 298 295 296 304 298 300 302 329 326 325 323 324 326 327 327 327 328 327 327
316 323 325 327 328 331 332 332 332 336 334 331 328 328 328 328 329 331 329 324 309 320 309 318 313 311 303 314 313 314 329 327 327 326 326 327 327 324 323 324 321 322 323
316 323 325 325 326 326 326 331 333 335 330 329 330 330 329 328 329 321 324 332 333 322 322 322 326 326 325 324 324 325 327 327 326 325 325 325 323 322 322 323 323 322 322
316 322 321 321 324 328 328 319 296 302 300 302 309 323 329 309 300 301 297 299 301 302 326 326 325 323 322 321 321 322 326 321 327 326 323 325 321 322 320 322 323 323 323
315 321 321 324 329 329 329 326 319 309 297 294 296 302 305 301 298 297 296 296 297 303 325 325 325 324 322 322 322 321 322 325 327 325 323 323 322 322 318 319 319 320 322
319 306 323 330 331 329 327 327 326 325 319 313 297 299 295 295 294 295 297 303 319 319 327 325 324 326 325 323 323 322 321 318 320 325 324 323 322 321 320 320 320 321 320
318 324 325 331 331 326 329 328 328 325 316 307 309 302 296 293 294 296 298 324 321 320 322 324 326 325 325 325 324 324 324 321 319 324 324 323 323 323 323 322 320 303 307
323 311 318 330 330 329 328 326 322 320 321 321 320 312 310 311 319 323 322 323 324 325 326 325 325 326 324 323 324 321 321 319 317 319 323 322 321 321 318 318 318 317 317
325 327 309 329 329 328 325 326 326 324 324 322 320 312 300 322 323 324 323 323 323 323 322 321 322 324 322 322 322 321 319 322 319 318 320 321 320 322 318 318 319 321 321
330 329 329 329 330 328 328 328 325 323 320 316 315 311 294 322 319 314 312 306 305 308 315 312 310 308 310 312 320 320 318 318 318 319 322 323 323 322 319 317 317 318 318
329 329 330 329 329 317 325 325 322 320 317 317 318 318 317 314 312 306 302 299 299 299 300 300 302 301 302 304 306 310 321 321 323 325 324 322 324 324 324 323 321 318 319
328 328 327 327 327 325 323 321 320 310 316 316 317 314 310 306 302 298 296 296 296 296 296 296 295 295 299 300 300 303 307 311 321 320 322 327 323 316 322 322 322 320 319
329 329 328 326 324 320 318 317 315 314 311 308 309 306 302 299 297 296 294 294 294 293 292 293 293 292 292 293 292 296 289 288 303 297 320 319 313 311 311 310 307 306 306
328 327 322 322 320 317 313 310 308 307 305 304 301 299 297 295 294 292 292 291 292 291 290 291 291 291 291 291 289 287 287 288 294 291 304 305 304 303 303 302 301 302 302

GFSGL_sfc_thetae_087.txt.gz
Theta_e
320 321 324 324 326 330 333 336 337 341 343 342 345 350 357 360 361 362 360 358 357 357 356 353 352 353 344 343 339 337 340 336 329 334 337 341 339 341 341 341 341 340 333
318 318 319 323 325 329 330 333 338 340 345 343 344 346 351 356 361 360 356 354 354 352 352 351 348 346 348 350 338 346 336 340 331 335 341 335 333 337 339 339 343 343 340
316 316 318 323 325 328 331 334 333 338 341 341 340 346 349 354 357 358 355 354 354 353 351 348 346 348 346 342 341 339 337 336 339 333 335 333 332 335 335 336 337 339 334
315 314 316 319 325 326 329 332 332 335 337 341 344 345 348 352 354 355 354 355 354 351 350 348 348 345 342 342 341 342 341 337 336 336 334 331 330 333 331 329 328 333 332
315 314 316 319 323 324 326 329 332 335 335 341 341 346 350 353 351 354 354 355 354 351 350 347 346 341 331 337 338 341 341 335 335 334 333 329 328 328 327 335 330 327 330
315 314 314 314 317 322 325 328 331 332 336 345 342 345 350 350 322 323 344 354 352 347 346 346 343 332 330 320 321 321 329 339 337 335 331 330 330 329 329 332 325 322 322
314 313 313 313 315 318 320 325 328 332 338 343 345 349 350 354 313 314 322 354 350 349 347 345 340 337 333 337 316 316 318 315 321 337 335 330 334 332 333 332 331 329 326
313 312 312 313 314 317 320 320 327 332 339 343 346 352 351 350 310 312 317 353 351 349 347 345 344 340 337 335 334 333 334 334 332 333 338 338 337 339 337 335 333 332 331
310 310 313 313 312 312 315 321 324 331 339 344 350 350 349 338 308 311 327 349 346 344 341 340 340 339 316 311 335 332 333 333 311 306 309 306 309 313 325 333 330 328 322
310 312 311 311 311 313 315 317 322 333 340 346 347 348 337 338 307 311 326 342 342 337 340 336 312 331 305 307 336 334 332 332 332 330 332 322 320 322 312 338 336 327 324
312 314 312 312 312 316 316 317 326 337 341 345 345 345 345 336 324 307 310 339 336 334 334 335 333 303 301 302 305 337 334 334 324 333 333 337 334 331 331 334 337 331 326
313 315 315 315 317 320 319 320 331 339 341 340 338 339 339 339 316 305 305 316 321 334 334 334 321 299 299 300 310 303 307 317 333 331 331 329 329 330 330 333 336 336 333
311 312 314 317 318 317 317 326 333 334 335 335 335 334 333 336 330 302 301 303 310 334 334 309 298 297 297 305 300 302 303 330 330 331 327 326 329 329 332 332 333 332 330
310 310 310 310 311 316 334 332 333 333 333 334 334 333 333 333 329 330 325 321 310 314 309 319 315 311 306 316 318 317 330 331 329 328 326 327 328 328 328 327 324 326 324
313 316 323 325 327 326 322 331 334 334 334 337 336 333 330 328 329 322 325 332 333 324 326 327 327 327 326 326 326 327 328 328 327 329 327 327 326 324 323 323 323 325 322
316 316 321 323 323 324 319 312 297 303 302 304 310 325 328 309 300 300 299 302 304 306 327 327 327 326 325 323 324 326 328 323 330 328 328 326 324 324 322 322 323 322 321
316 316 323 323 328 326 323 321 316 306 299 297 300 305 306 300 297 297 299 300 301 305 328 327 327 325 323 324 325 326 326 329 330 327 325 325 324 324 320 321 323 324 324
318 307 322 328 331 329 330 330 329 327 323 318 298 302 297 296 295 296 298 306 321 318 330 327 327 327 325 324 323 324 326 328 327 327 325 324 324 323 321 322 322 322 322
321 318 321 329 333 327 330 329 328 326 317 314 312 303 297 294 296 296 298 329 326 326 328 327 328 327 327 326 326 325 326 326 325 325 326 325 324 323 322 322 322 304 309
320 307 308 327 326 329 327 326 324 323 324 324 320 312 310 313 318 322 328 328 327 324 323 324 325 327 326 325 325 326 326 324 325 325 326 325 325 323 322 323 323 320 319
321 325 306 329 331 329 328 327 325 325 324 321 319 317 303 325 324 324 324 319 322 322 324 325 323 324 325 325 326 324 323 324 324 319 321 322 321 322 323 322 319 323 320
324 328 326 327 329 329 327 328 325 324 321 321 322 314 296 324 322 319 313 310 314 315 318 320 316 314 312 314 322 322 320 319 322 321 320 321 322 324 322 320 318 319 318
327 325 327 330 330 317 328 325 323 323 322 321 321 320 319 316 311 305 302 300 302 302 302 304 304 303 305 306 306 310 319 320 320 320 319 323 325 324 325 320 318 317 317
329 328 329 329 327 326 324 322 322 312 319 316 314 314 311 307 301 298 297 297 295 296 296 295 296 297 299 300 301 302 305 306 318 323 325 326 323 320 323 322 322 322 318
330 331 326 326 324 322 319 318 318 318 313 309 307 305 302 299 296 294 294 294 294 292 293 293 293 294 293 294 294 296 290 289 303 297 321 321 317 313 311 311 311 307 307
325 326 325 324 320 317 315 313 311 311 310 307 302 299 297 295 293 292 292 292 290 290 290 290 290 290 291 290 289 287 287 289 295 291 306 306 305 303 303 302 302 302 303

GFSGL_sfc_thetae_090.txt.gz
Theta_e
327 326 325 326 325 327 327 327 329 333 336 336 339 338 337 339 351 353 352 351 351 350 351 351 350 350 344 342 339 337 334 334 326 330 335 336 334 334 335 335 334 333 327
321 320 322 324 324 323 322 326 329 328 332 334 336 338 338 336 347 351 351 351 350 349 351 350 349 349 345 343 341 336 336 335 330 327 332 331 330 332 334 333 335 338 334
318 317 321 323 324 322 321 327 329 328 329 330 332 335 337 337 339 350 353 353 350 351 351 349 348 346 343 342 340 337 335 336 334 329 328 330 329 331 330 331 332 330 330
317 318 319 322 322 322 322 322 325 325 325 328 330 334 337 337 340 346 351 352 348 349 349 350 347 344 343 342 338 338 336 334 333 329 329 327 327 331 328 327 326 329 328
318 317 319 322 321 319 318 319 321 322 325 327 328 331 335 338 339 344 350 351 347 347 348 347 346 342 335 337 339 337 336 332 330 329 327 327 324 326 322 327 326 325 327
316 316 317 317 317 317 317 317 317 321 324 326 327 329 331 338 323 318 340 348 347 345 345 345 345 331 325 319 319 320 333 333 330 328 327 325 325 326 327 325 323 320 317
314 314 315 315 315 315 315 315 316 317 322 323 325 327 330 337 317 309 321 347 346 345 345 343 336 336 329 327 316 317 316 318 324 332 328 328 326 327 326 326 324 322 323
313 313 313 314 314 314 314 312 315 317 319 321 323 326 330 336 314 308 315 346 344 344 344 343 338 335 335 333 331 330 331 328 326 329 332 330 331 331 330 329 328 326 324
310 311 311 311 311 311 310 312 315 315 316 318 320 326 330 335 309 305 322 343 342 343 344 342 341 336 313 313 332 330 329 326 308 306 311 308 309 309 321 330 324 323 320
308 309 311 312 311 311 312 312 314 314 314 318 318 324 325 336 306 305 328 341 339 340 340 338 319 331 306 304 333 330 328 327 323 322 322 317 317 317 312 331 327 323 321
310 311 310 311 311 312 313 313 313 313 315 316 320 323 332 337 322 305 317 341 340 337 335 333 328 306 304 303 312 333 329 331 323 328 329 330 330 329 329 330 330 326 322
310 309 310 310 312 312 312 311 312 314 314 316 317 326 335 337 314 308 312 320 323 334 333 333 315 299 299 301 313 304 307 319 331 328 328 327 327 327 328 329 331 329 329
308 308 308 310 310 310 312 312 313 316 316 316 321 328 332 325 316 305 308 309 313 332 334 316 298 298 299 303 301 303 304 330 329 327 325 324 327 327 327 328 329 329 326
307 309 309 308 309 311 314 314 315 316 317 320 327 329 328 324 325 324 317 314 307 310 305 308 309 310 312 312 314 312 327 330 327 326 326 326 326 325 325 326 325 324 324
307 308 308 309 309 311 312 315 317 319 323 329 330 330 328 327 327 319 323 327 327 318 319 321 322 323 323 324 325 326 328 327 326 327 326 323 323 323 322 324 322 322 320
307 310 314 319 315 314 313 312 297 309 305 309 313 326 328 311 305 303 304 303 304 306 323 324 323 324 323 322 323 324 326 322 326 326 325 325 323 321 320 321 322 321 319
310 315 317 321 320 319 319 320 316 308 300 300 302 304 305 301 298 300 302 302 302 308 325 326 325 324 323 322 322 323 324 326 328 326 326 325 323 321 317 319 320 321 320
312 304 318 324 325 325 325 324 323 322 317 311 298 302 296 297 297 298 298 307 319 320 328 326 324 323 324 323 322 324 323 326 326 325 322 324 323 321 319 320 320 319 318
314 319 319 321 327 324 326 325 322 318 313 311 311 303 297 295 296 298 304 326 324 326 327 327 326 326 324 323 322 323 323 324 322 324 324 323 323 322 319 319 320 304 307
316 305 309 319 326 328 325 323 322 322 321 319 316 314 317 318 323 325 328 328 327 327 327 326 325 326 325 323 323 323 323 321 323 323 323 323 323 322 320 319 320 319 318
317 320 303 324 325 325 325 325 325 323 320 318 317 315 299 324 324 320 318 318 322 324 323 324 323 323 325 325 324 324 323 323 323 322 321 322 321 320 322 321 320 319 319
318 321 326 326 326 325 326 326 324 321 320 320 318 308 295 319 314 311 308 306 306 311 312 313 313 312 313 314 320 322 321 320 322 321 320 320 319 321 322 320 318 319 318
315 321 326 327 326 314 323 323 323 322 320 320 318 313 311 308 304 301 299 300 299 298 300 302 303 302 304 304 307 309 318 318 320 322 320 319 322 322 321 320 319 316 314
319 326 326 327 327 323 322 320 319 310 317 314 311 308 303 299 297 297 295 296 296 295 295 296 295 296 299 299 301 302 302 306 315 320 321 323 322 317 321 319 317 317 313
324 324 326 325 321 320 319 317 314 313 311 309 304 300 297 295 294 293 293 293 293 292 291 292 293 293 293 293 294 296 289 288 303 299 315 316 312 310 311 309 307 306 306
326 324 321 320 319 317 314 310 308 306 303 302 299 296 294 292 292 291 291 290 289 289 289 289 289 289 290 289 288 286 287 289 295 292 306 306 304 304 302 301 300 300 301

GFSGL_sfc_thetae_093.txt.gz
Theta_e
315 316 317 318 315 315 316 319 319 320 322 327 331 331 332 333 333 330 334 344 346 346 347 346 344 346 344 337 333 330 328 326 319 323 328 329 328 330 329 330 330 328 325
314 315 314 313 314 314 312 313 317 319 322 322 323 326 329 331 333 332 332 342 346 345 346 346 345 347 341 337 333 329 327 327 323 319 324 324 325 327 328 328 332 335 328
310 311 311 313 313 312 315 315 313 319 322 322 322 322 324 326 328 332 333 335 345 347 346 347 346 345 340 333 331 329 328 330 326 323 323 323 324 325 325 326 326 323 325
310 309 308 310 312 313 313 314 316 317 314 316 319 320 322 326 328 330 334 334 342 347 347 346 343 344 342 335 332 329 327 325 324 323 322 321 321 323 323 321 319 323 321
311 309 310 312 313 312 313 313 313 313 316 317 318 318 321 323 325 326 331 333 338 343 344 345 343 341 333 335 334 329 328 324 322 322 320 319 318 319 318 321 321 324 325
309 309 311 311 311 312 311 312 312 312 311 312 313 315 319 323 315 311 317 325 334 340 340 342 343 330 328 321 323 325 329 324 322 321 320 318 318 319 319 319 318 320 317
310 310 310 309 309 309 310 310 310 309 309 310 312 314 317 320 309 308 310 324 328 338 339 340 337 338 327 325 316 316 320 319 323 325 322 321 320 321 321 318 318 319 315
307 308 308 308 308 308 308 309 307 306 308 309 311 313 315 319 308 306 308 322 326 336 340 338 335 328 327 325 325 324 322 322 324 329 326 325 324 324 324 323 320 321 319
306 306 307 307 307 307 306 306 308 308 308 308 310 311 314 316 307 305 309 324 327 337 339 336 333 331 311 312 327 325 323 318 308 307 312 312 308 308 319 324 321 319 316
305 306 307 306 306 305 306 306 307 307 307 309 309 312 310 311 307 304 308 322 328 335 337 334 318 328 307 310 326 325 323 316 319 318 317 313 314 312 311 324 322 317 314
306 307 306 306 306 307 307 307 308 308 308 308 309 310 311 312 314 304 305 320 329 335 334 331 329 308 305 305 317 325 323 320 315 320 320 320 322 320 322 324 324 321 317
306 305 305 306 307 308 308 309 309 309 309 307 307 308 310 313 309 309 305 304 320 334 332 332 325 306 303 303 315 305 305 315 322 321 321 319 320 320 321 323 324 323 323
303 304 306 307 308 308 308 307 308 309 309 308 308 309 311 315 318 309 303 301 308 331 331 318 303 301 298 303 302 301 306 325 323 320 320 322 322 326 326 325 322 322 321
304 305 305 305 306 308 309 309 306 306 308 309 309 311 313 319 320 318 321 316 310 311 307 309 308 308 310 308 309 309 324 323 321 321 321 319 324 323 323 324 321 319 317
304 304 304 306 306 306 306 306 308 309 309 310 311 313 315 321 322 316 319 325 321 314 314 318 319 319 318 317 317 318 320 321 320 323 320 317 320 322 321 322 321 321 318
302 303 305 306 306 308 307 306 296 299 300 300 303 313 324 312 303 305 305 303 301 304 319 318 318 318 318 318 317 317 318 317 320 323 319 318 317 318 317 319 319 318 318
304 305 306 307 314 310 308 307 305 301 297 300 297 302 307 303 301 300 300 302 302 310 319 319 319 319 318 317 316 316 316 318 320 320 320 319 319 316 315 317 317 317 316
303 301 306 314 315 312 311 311 314 311 312 308 300 304 297 298 300 301 298 307 318 319 322 320 319 319 318 318 317 317 318 319 319 319 320 320 321 319 318 317 317 318 317
304 308 311 321 318 318 319 319 317 314 312 311 309 302 298 298 298 300 305 322 322 321 321 320 320 322 321 321 322 321 323 319 321 320 320 320 320 319 317 318 317 303 306
306 302 303 322 319 321 318 317 317 317 317 317 314 310 313 316 320 320 321 321 320 320 321 320 321 320 319 320 321 320 320 318 320 320 319 320 320 317 314 317 317 316 316
302 308 303 323 322 322 321 319 318 318 318 319 319 312 298 317 313 312 314 316 317 318 319 318 318 318 318 319 322 321 319 319 320 317 316 317 317 315 318 318 318 317 314
301 309 318 323 324 322 320 319 318 319 319 313 310 303 296 309 307 305 304 303 304 306 308 309 309 309 310 312 319 319 319 317 315 317 314 315 315 316 316 315 316 317 315
301 309 318 323 320 311 319 319 318 316 312 310 307 304 303 302 300 299 297 297 298 299 300 302 303 303 303 304 304 310 315 317 318 318 316 316 317 318 318 316 315 312 314
302 314 321 321 320 319 318 314 310 303 305 302 301 299 298 296 295 295 295 294 294 295 295 295 296 297 298 299 301 301 301 305 315 318 318 319 317 313 317 313 312 312 311
307 320 321 318 316 314 312 309 306 303 300 299 297 295 295 294 292 292 292 292 291 291 290 291 292 292 292 293 295 297 290 290 304 300 313 311 307 308 306 306 305 304 305
320 319 317 314 310 308 306 303 300 299 296 295 294 293 291 291 290 289 289 289 288 288 288 288 288 289 289 289 288 287 288 290 295 292 305 305 303 302 301 300 300 300 300

GFSGL_sfc_thetae_096.txt.gz
Theta_e
312 313 312 313 314 317 318 317 316 315 315 318 322 326 327 326 326 327 327 330 329 336 342 343 343 346 344 341 337 335 331 324 319 321 325 326 326 327 328 328 330 328 324
312 313 313 314 314 313 312 311 311 312 315 317 320 321 322 325 325 323 325 329 331 331 337 343 344 346 344 344 337 333 331 326 321 319 322 323 323 325 325 326 329 332 327
310 312 312 312 311 311 311 311 311 314 313 315 319 319 319 319 319 321 324 325 327 331 334 339 342 344 344 343 337 334 329 328 323 322 321 321 321 322 323 324 323 321 324
306 306 308 309 310 311 311 311 312 312 312 312 312 314 317 317 318 318 320 323 327 331 333 337 343 344 344 343 335 332 327 326 322 321 319 318 319 320 321 319 319 320 318
308 307 307 307 308 310 310 311 313 313 314 314 312 313 315 315 317 317 320 320 320 324 327 332 338 341 334 336 335 330 327 324 321 320 317 316 317 317 318 319 317 319 322
306 306 308 309 310 311 310 310 311 312 312 312 313 314 311 313 307 308 311 317 320 321 321 325 329 333 330 319 320 321 325 325 320 319 317 317 315 316 317 317 316 318 318
306 307 309 309 308 308 310 310 309 308 309 310 310 310 310 311 305 304 306 314 317 318 320 323 326 335 326 330 318 317 317 315 319 323 319 318 317 319 318 315 315 315 318
308 309 309 308 307 307 306 305 305 305 306 306 308 309 310 311 304 303 305 313 316 318 321 324 326 331 331 330 329 327 325 323 322 326 325 323 323 322 322 320 318 317 321
307 307 307 306 305 305 304 303 303 303 305 306 307 308 308 309 303 302 305 315 316 316 320 325 329 334 315 309 329 326 322 319 307 308 311 309 306 307 316 321 317 316 316
304 305 306 306 304 303 303 304 305 305 304 305 305 306 306 306 302 300 304 312 313 315 316 320 316 327 308 308 328 324 320 317 318 316 316 311 309 309 308 323 321 316 312
305 306 305 305 305 305 305 305 304 304 305 305 306 306 307 308 306 300 300 309 311 311 313 319 330 306 306 306 313 326 321 317 314 319 318 318 318 317 319 320 321 318 313
303 303 303 304 305 305 304 304 306 306 305 305 305 305 307 308 303 301 301 300 307 314 316 323 327 303 304 303 311 304 303 311 319 318 316 315 316 317 319 321 321 320 323
301 301 302 303 304 304 304 304 305 306 305 306 306 306 307 308 309 302 301 300 299 307 316 318 309 303 302 303 302 302 305 319 319 318 317 316 318 319 321 321 319 319 321
298 299 300 301 302 306 307 306 305 305 305 306 305 306 307 308 309 311 312 311 302 305 309 313 311 311 308 313 307 310 324 322 320 319 318 319 324 323 322 324 320 316 317
299 300 302 303 303 303 304 304 304 306 306 306 306 306 307 307 309 308 312 318 319 313 314 315 317 319 319 318 318 321 322 321 320 318 316 316 318 321 320 322 321 319 317
298 300 301 302 303 304 304 304 301 301 299 298 299 305 309 304 301 300 302 300 300 303 320 321 320 320 319 318 318 318 318 316 321 320 318 316 315 317 318 319 319 319 315
300 301 303 302 302 303 305 307 304 299 298 296 296 297 298 303 297 298 298 299 300 307 320 320 319 319 319 318 317 317 314 317 319 319 318 316 316 314 315 317 317 317 317
299 298 301 302 304 309 308 307 305 303 301 302 295 299 297 298 296 297 299 303 317 316 320 319 318 318 318 317 316 315 317 318 318 317 318 318 318 318 317 316 316 313 313
299 301 304 304 308 310 310 308 308 307 306 306 306 300 299 297 297 299 302 320 320 319 319 319 319 318 318 318 318 318 318 317 317 317 319 319 319 319 316 316 316 303 307
300 297 296 304 316 316 316 314 313 312 312 311 309 306 307 310 317 320 322 322 320 320 319 319 319 319 320 321 320 321 318 318 319 319 320 320 319 317 312 314 317 315 315
295 298 295 317 318 319 318 316 316 316 315 313 313 311 300 320 318 318 318 319 319 318 319 319 319 318 318 321 321 320 319 319 319 318 318 319 318 315 313 315 317 316 316
295 298 304 320 319 319 319 319 316 313 310 308 307 303 297 310 307 306 306 305 308 311 314 314 312 312 313 315 320 319 318 318 318 317 314 314 315 314 313 313 314 314 313
295 300 319 319 318 308 315 314 312 310 308 308 308 305 304 302 301 299 298 299 300 301 303 307 307 305 305 306 310 317 318 317 314 317 313 314 314 314 315 315 315 314 314
297 305 320 319 317 313 308 306 304 301 304 302 300 299 298 297 295 295 295 296 296 296 296 297 298 299 301 302 302 303 310 314 316 316 316 317 314 311 316 313 313 312 310
304 319 316 312 310 307 305 303 302 300 300 298 296 294 294 293 292 292 292 292 292 291 291 292 293 293 294 296 299 299 291 291 306 299 312 312 310 308 308 307 306 306 306
316 314 312 309 307 305 301 299 297 297 296 294 292 291 291 290 290 290 289 289 288 288 288 289 289 290 290 290 290 288 289 290 296 293 305 305 302 301 302 300 300 299 299

GFSGL_sfc_thetae_099.txt.gz
Theta_e
309 311 311 312 312 313 313 314 315 315 316 316 315 317 320 324 321 321 322 325 326 328 328 334 338 340 340 341 342 340 338 332 329 331 325 328 326 326 328 327 329 327 325
309 310 310 311 311 310 313 315 316 315 314 313 315 318 321 320 320 320 319 319 320 322 326 329 331 337 338 339 341 340 339 335 329 326 324 325 323 323 324 324 327 329 326
308 309 310 310 309 310 312 313 311 312 311 313 314 315 317 319 317 317 317 320 321 322 324 327 329 331 333 336 337 339 339 333 327 324 323 322 321 322 322 322 323 321 324
305 306 307 308 310 311 311 311 310 310 310 311 312 314 315 315 316 316 316 315 317 321 326 326 327 330 329 331 335 337 338 329 326 324 322 320 319 319 320 321 323 318 318
305 304 304 307 307 307 308 308 309 309 311 311 310 310 311 313 314 313 314 315 315 316 318 323 323 323 323 321 327 335 334 329 325 322 319 317 316 320 319 317 317 317 316
304 304 305 306 307 306 307 309 310 310 310 310 310 312 310 312 307 306 309 311 313 314 312 315 318 319 320 316 316 317 328 327 324 322 320 319 317 317 316 316 315 320 317
304 305 306 306 307 308 310 309 308 308 309 309 309 309 310 310 304 302 304 309 310 311 313 314 316 321 318 324 322 313 315 315 319 326 323 321 317 318 317 314 314 315 314
304 305 307 307 307 308 308 308 308 306 306 306 306 307 307 310 303 301 303 307 310 312 313 315 316 318 320 321 329 325 327 325 323 325 326 324 323 321 322 319 317 315 316
303 303 305 306 306 306 305 304 304 302 302 303 304 304 305 307 302 301 302 308 309 310 314 315 316 316 312 304 324 327 325 325 312 312 311 309 305 306 314 319 315 314 315
300 302 304 305 304 304 303 301 301 301 303 304 304 304 304 304 300 299 301 308 307 309 309 312 307 311 305 302 321 328 323 323 321 318 315 310 308 307 308 321 319 315 313
300 301 302 303 303 304 303 302 302 302 303 303 302 303 303 304 304 298 298 304 305 305 307 310 310 305 301 300 305 328 323 321 315 321 319 317 316 316 319 319 321 318 312
298 298 299 299 301 302 302 302 302 303 302 301 301 302 304 305 302 300 298 298 304 307 309 310 310 302 301 299 304 309 301 312 322 319 317 314 314 315 317 318 318 317 320
297 297 298 299 300 301 300 301 301 302 301 301 301 302 303 305 305 300 299 298 298 303 310 307 303 298 298 299 300 302 304 322 320 317 315 313 315 317 317 318 317 317 321
295 295 296 296 297 298 300 301 302 301 301 302 303 303 304 305 307 308 305 304 300 302 304 304 305 304 302 311 307 310 323 322 320 318 316 314 317 316 316 318 317 315 316
295 296 296 298 299 299 301 301 301 303 303 303 304 305 304 303 305 304 305 309 309 309 307 309 309 312 314 317 315 318 322 319 318 315 315 316 317 318 317 322 320 319 317
296 297 297 298 299 300 301 301 300 300 300 299 299 303 307 302 298 297 298 298 298 298 309 311 312 316 318 319 318 320 320 316 318 318 317 316 315 319 319 318 319 319 315
296 297 299 299 301 301 301 301 301 302 298 298 297 297 297 300 296 296 297 295 295 296 314 316 317 320 320 320 321 321 318 319 319 319 318 316 314 313 314 317 317 317 317
296 296 297 297 298 299 300 302 305 306 301 299 295 297 295 296 294 294 294 294 307 302 319 319 319 321 321 321 321 319 318 318 318 317 317 316 314 314 314 316 316 315 315
296 297 298 299 301 301 301 307 305 304 302 302 303 294 294 293 293 294 293 309 313 318 318 317 320 321 321 319 318 319 319 318 317 317 316 316 317 318 316 316 315 302 306
295 293 293 296 298 303 309 308 306 303 302 302 302 303 302 299 302 303 305 314 319 319 319 319 320 319 319 319 318 318 316 315 316 315 316 317 319 318 315 315 315 314 314
293 294 292 297 314 316 315 313 311 310 308 307 307 304 296 307 308 318 319 320 320 319 319 319 319 319 319 319 319 317 317 317 317 317 319 319 318 316 312 312 316 316 316
292 294 297 307 317 316 313 312 311 310 309 307 306 300 294 311 310 309 309 310 312 315 317 317 315 315 319 320 319 318 317 316 318 318 318 318 316 314 311 313 315 314 312
293 296 310 314 313 305 310 310 308 307 305 305 304 303 302 302 302 302 302 303 304 305 308 310 310 308 309 313 317 320 319 318 317 317 316 316 315 312 312 314 314 313 312
296 303 312 310 309 307 305 304 302 298 302 301 300 297 297 297 296 296 297 298 298 298 299 301 303 305 306 307 309 312 316 315 317 317 316 316 315 308 312 313 313 312 310
300 312 310 307 306 304 303 301 300 299 298 297 296 294 294 293 293 293 294 294 294 294 293 294 296 297 299 301 303 302 293 293 308 302 315 315 312 311 310 309 308 307 306
311 309 306 305 302 301 300 297 296 295 293 293 292 292 291 291 291 291 291 291 290 290 290 290 291 291 292 292 292 289 289 291 296 293 307 307 306 304 303 301 299 298 299

GFSGL_sfc_thetae_102.txt.gz
Theta_e
311 312 312 312 314 314 314 315 316 317 317 319 320 319 319 321 326 323 324 327 326 326 329 330 331 335 337 340 339 337 335 336 333 335 336 332 332 331 331 335 336 335 332
310 310 310 311 312 313 314 316 316 316 317 319 319 317 319 322 322 321 323 324 321 321 323 326 327 330 333 335 336 337 335 338 336 332 333 330 330 329 329 330 333 334 334
308 309 310 310 310 311 313 315 316 316 317 317 316 316 317 320 321 322 320 320 321 322 323 323 326 329 329 332 330 332 336 338 337 333 331 328 329 327 327 329 331 329 330
306 307 308 309 310 311 313 314 315 315 316 314 315 315 316 318 319 319 318 318 320 320 322 325 326 326 327 327 325 325 327 331 334 331 329 326 325 326 327 326 326 327 326
307 306 306 308 309 310 311 312 313 313 313 314 313 314 315 316 315 316 317 317 317 318 321 323 323 325 321 321 323 323 326 328 330 329 325 323 323 322 325 325 327 325 325
305 305 306 307 307 307 309 311 311 311 312 312 312 313 312 313 307 306 312 315 316 317 317 319 320 318 319 313 313 313 317 324 325 328 325 322 322 323 322 324 324 323 321
304 305 307 308 307 308 309 309 309 310 311 311 312 312 312 312 303 302 305 313 313 313 314 315 315 319 317 322 316 313 313 310 312 329 326 325 324 324 325 322 324 326 324
300 303 305 306 307 308 308 308 309 309 309 310 310 311 312 312 302 301 302 310 311 312 313 314 315 317 318 318 321 322 324 327 325 324 330 328 328 325 328 329 327 325 324
297 299 301 304 304 306 306 307 308 308 308 308 309 310 309 310 301 300 302 310 309 310 312 315 316 316 309 300 316 318 320 321 315 308 309 308 307 307 317 326 323 323 319
296 298 300 301 302 303 304 305 306 305 307 307 307 308 307 309 300 299 302 308 307 308 312 314 305 313 304 302 314 316 313 319 326 321 320 312 309 314 309 330 327 324 321
297 298 298 299 300 301 302 304 304 304 305 304 305 306 306 306 306 297 298 306 307 307 308 309 310 301 301 299 298 311 314 320 319 324 323 321 320 320 320 327 329 327 323
297 296 296 297 298 299 300 301 303 304 303 303 303 304 305 305 301 299 296 297 303 306 306 308 310 299 298 297 298 301 299 304 324 323 321 320 320 318 320 326 327 327 329
295 295 296 297 298 299 299 299 299 300 300 300 300 301 302 304 305 299 297 295 296 303 308 306 302 297 296 298 298 297 297 320 323 321 321 320 323 324 324 325 325 326 326
293 294 294 294 295 296 297 297 297 298 299 299 299 300 301 302 304 306 305 303 299 302 303 306 305 302 299 305 306 307 310 325 323 323 322 321 322 322 322 323 322 322 325
294 295 295 296 296 296 297 297 298 299 299 298 300 301 301 301 304 303 305 308 308 306 305 307 307 307 307 309 310 313 320 323 322 321 319 322 322 323 322 325 323 323 323
294 294 295 296 297 298 298 298 297 297 297 296 296 300 303 300 298 297 297 298 297 297 305 308 307 307 307 309 314 316 321 317 321 322 322 323 321 322 322 324 325 322 319
293 295 296 296 297 297 297 298 297 299 296 296 296 295 296 300 296 295 296 295 295 294 308 310 310 310 311 314 318 319 320 322 322 322 323 322 323 324 319 320 320 320 319
294 294 295 295 296 296 297 298 298 298 298 300 296 297 295 297 295 295 293 293 302 297 307 307 309 314 314 318 319 321 321 320 321 321 321 322 322 320 321 320 319 318 318
294 294 296 297 297 297 298 299 299 300 303 303 300 295 296 295 294 294 292 303 307 308 309 310 312 315 319 321 322 322 321 321 321 321 321 322 321 321 321 321 317 304 308
294 292 292 293 294 295 296 298 304 303 302 300 298 298 298 296 297 299 301 304 308 308 311 314 317 320 322 322 322 322 320 317 320 322 321 322 322 322 321 318 317 316 316
291 292 290 292 294 297 307 308 307 303 303 302 302 302 295 303 303 304 305 305 306 308 312 320 321 321 322 321 322 321 320 321 322 321 322 322 322 320 318 319 319 318 317
290 291 293 296 311 312 312 311 310 308 307 305 305 297 290 306 306 307 308 310 316 320 321 321 321 322 323 323 322 322 321 320 321 323 323 322 320 317 316 320 320 318 317
291 292 297 312 310 303 307 307 305 303 303 305 305 303 304 306 306 305 305 308 310 312 314 316 317 319 322 322 323 324 323 323 324 324 321 319 318 316 319 320 319 316 315
294 299 310 308 306 305 303 301 299 296 298 298 298 298 298 299 299 299 300 302 302 303 305 308 311 313 315 318 320 322 322 321 321 320 320 319 316 314 320 319 317 315 312
303 308 306 304 302 301 300 299 298 297 296 296 296 295 296 296 296 296 297 297 298 298 298 300 302 304 306 308 307 306 295 295 313 304 320 320 318 316 316 312 311 312 309
306 304 302 301 300 298 297 295 294 294 293 293 293 292 293 293 293 293 294 294 293 293 293 294 295 296 297 296 296 291 291 292 299 295 314 314 309 307 306 304 302 300 300

GFSGL_sfc_thetae_105.txt.gz
Theta_e
322 323 324 324 322 324 325 327 329 331 330 328 329 331 329 328 330 334 332 329 329 329 329 327 327 331 328 333 336 338 340 338 333 334 334 345 342 342 345 345 343 340 340
320 318 319 322 322 322 323 326 329 329 329 328 328 328 326 324 327 328 326 325 324 322 322 323 322 323 331 333 331 336 336 338 337 333 330 338 342 344 344 342 338 339 341
315 314 317 321 321 322 323 325 327 328 328 327 326 326 325 322 325 327 325 324 323 323 323 322 322 324 325 324 328 328 327 328 330 334 333 339 337 336 337 336 336 338 338
315 315 316 316 318 320 321 324 325 326 326 326 326 325 325 324 322 324 325 324 324 323 324 324 322 322 322 322 321 323 323 324 326 329 335 335 333 333 332 331 330 332 332
308 309 312 314 315 316 317 319 322 323 325 325 325 325 325 325 321 322 324 324 324 323 324 323 324 323 320 320 319 321 322 320 320 322 328 333 329 326 327 332 330 331 331
305 305 308 310 312 315 316 316 318 320 322 323 323 323 323 322 310 307 319 323 323 322 322 323 323 320 319 312 312 312 316 320 320 319 321 328 329 329 333 331 331 326 323
305 304 306 308 308 311 313 314 317 318 320 321 322 322 323 325 305 303 306 322 322 323 323 322 321 317 316 319 314 311 311 308 310 321 321 327 328 332 333 329 331 328 332
303 304 304 304 306 308 310 311 314 317 318 318 319 321 323 323 304 301 302 320 322 323 323 322 321 318 318 318 319 318 318 321 323 323 325 326 330 337 335 336 334 333 334
302 303 303 304 304 305 306 309 311 312 315 317 318 319 320 321 303 300 304 318 320 320 320 320 318 317 308 302 318 316 318 319 315 307 307 305 309 309 322 333 328 328 328
302 303 303 303 303 303 304 306 308 310 310 311 313 317 313 319 302 298 305 318 318 316 318 317 305 311 303 301 316 316 313 316 321 320 325 316 316 318 308 330 334 330 329
302 302 302 302 302 303 303 305 306 307 308 310 310 314 316 316 316 298 298 317 315 313 313 313 314 300 299 299 300 314 313 316 315 319 326 331 330 329 323 328 334 336 332
299 300 300 301 301 301 302 303 304 305 306 307 308 309 311 315 305 299 297 299 307 313 312 312 313 299 298 297 300 301 297 299 310 314 320 324 325 324 325 329 336 338 338
297 298 299 298 298 298 300 301 302 303 303 304 305 306 308 310 314 300 296 296 298 310 312 308 301 298 296 298 296 296 295 311 316 313 321 324 326 326 326 331 334 336 335
295 296 297 296 298 299 299 300 300 300 301 302 303 305 306 308 311 312 308 305 298 302 304 309 306 304 302 306 309 309 315 316 315 315 325 328 328 326 325 327 326 329 330
295 295 296 296 297 297 298 298 298 300 301 300 302 303 304 305 306 304 306 309 310 306 307 310 310 310 310 311 313 315 316 317 313 323 327 324 325 323 324 327 327 328 327
293 294 296 295 296 296 296 297 296 295 295 294 294 298 303 299 296 295 296 297 297 296 307 309 309 310 310 312 313 314 316 312 317 327 325 327 325 324 323 327 329 328 327
292 293 294 294 294 294 295 294 294 297 295 294 294 293 293 296 294 294 295 295 295 295 309 307 307 307 311 313 312 314 315 317 325 326 327 327 327 328 325 327 326 327 324
293 293 293 294 294 294 295 295 296 296 297 298 295 294 294 294 294 292 293 294 303 298 310 310 311 312 314 316 314 316 317 322 323 325 326 328 328 328 326 324 325 322 321
291 292 293 294 294 295 296 296 297 297 297 297 299 296 294 294 293 294 292 303 304 307 307 309 312 312 313 317 318 319 321 321 323 324 327 328 329 328 326 324 322 306 311
291 291 291 293 292 292 293 294 295 296 296 299 300 300 300 294 295 296 299 303 307 309 310 311 311 314 316 317 319 320 321 321 324 327 328 329 329 327 324 325 324 321 320
290 290 289 290 291 293 294 296 299 303 302 301 300 298 293 298 298 300 302 305 305 306 309 312 315 317 318 319 321 322 322 323 325 329 329 329 328 325 326 326 323 321 322
289 289 291 292 295 303 310 306 306 306 306 304 301 295 290 304 303 303 305 307 309 310 313 314 313 316 320 322 324 325 322 323 327 329 328 327 327 327 326 323 323 323 323
290 291 294 304 306 299 303 304 302 304 306 306 303 301 306 309 309 309 310 312 310 309 312 312 319 322 323 324 325 325 324 327 329 331 329 327 327 326 324 324 324 323 323
294 297 305 302 302 302 301 301 299 295 300 300 300 300 300 302 302 303 305 307 310 312 315 318 322 323 324 325 325 327 330 332 332 332 330 328 324 319 325 325 324 324 322
305 306 303 302 300 299 299 298 298 297 297 297 298 298 298 298 298 300 301 302 304 303 304 308 313 320 326 328 330 328 305 295 325 310 327 324 325 326 326 325 322 317 312
302 302 300 299 299 298 296 295 294 295 294 294 294 295 295 295 297 297 297 298 298 299 301 301 303 306 307 306 302 293 292 294 306 300 323 320 318 320 320 317 312 305 303

GFSGL_sfc_thetae_108.txt.gz
Theta_e
327 329 330 331 331 331 331 331 332 336 332 330 331 332 332 334 336 337 337 334 336 336 336 334 334 335 332 329 331 332 331 333 331 331 332 344 344 344 343 345 343 347 344
322 325 325 327 327 328 328 329 332 332 331 331 328 327 329 329 331 331 330 328 327 327 327 325 324 323 329 332 329 332 331 333 332 332 336 336 341 345 340 344 342 344 346
320 320 320 321 323 326 328 329 330 330 331 329 327 326 326 325 325 327 327 325 325 325 325 325 324 325 327 325 326 325 325 324 326 325 325 330 335 342 340 342 342 343 342
315 316 317 320 321 322 324 326 329 329 329 329 327 326 325 325 323 325 325 325 326 325 326 325 324 323 325 325 324 324 323 323 323 320 321 324 329 338 338 334 334 339 337
313 313 310 313 318 320 321 321 323 324 326 327 328 328 326 325 323 324 325 327 327 326 327 326 326 324 320 319 317 321 322 319 317 317 318 319 321 331 332 334 335 337 333
311 311 311 310 311 314 316 319 321 321 323 325 327 327 327 324 311 309 322 327 327 326 325 327 326 320 319 314 313 312 316 320 319 316 315 317 324 326 330 334 334 330 326
309 310 310 310 309 309 312 314 316 318 323 324 325 326 329 332 306 305 307 328 328 327 327 326 324 321 319 321 313 310 310 308 310 321 319 320 322 324 331 336 331 329 332
308 308 309 309 309 309 311 313 318 319 319 320 323 325 327 328 306 302 304 328 331 329 328 328 327 324 322 321 321 320 320 321 323 322 325 326 329 331 331 335 331 332 339
307 307 308 309 309 309 309 310 315 314 317 319 320 322 324 325 305 301 306 324 324 327 325 327 326 325 311 302 319 319 319 319 314 307 306 306 303 301 308 328 333 332 331
305 306 307 309 308 308 309 310 311 312 313 315 317 320 316 323 306 300 306 322 323 322 326 327 308 317 304 300 319 318 316 318 319 320 325 318 313 318 306 334 338 329 330
305 306 306 308 308 309 309 309 309 309 310 312 314 318 319 320 320 299 299 321 320 320 321 322 323 302 301 298 300 318 316 316 314 316 318 319 323 327 330 335 334 334 330
302 302 303 304 305 305 306 307 307 308 307 309 310 312 314 320 307 301 298 300 313 321 321 321 321 299 299 298 301 303 299 300 314 313 315 316 320 326 332 332 331 332 340
298 298 299 300 301 302 302 302 302 304 304 306 306 307 310 313 317 302 297 297 299 315 320 315 304 296 296 298 297 298 295 312 313 312 313 316 322 326 332 330 335 337 338
297 297 298 299 299 300 301 301 300 300 301 302 305 305 308 311 314 316 314 309 300 306 309 315 310 306 303 308 309 307 312 313 313 313 315 319 321 327 327 329 332 332 334
296 297 297 298 298 298 298 299 300 303 302 302 304 306 307 307 309 306 309 315 315 311 312 316 314 313 313 313 313 314 314 316 315 317 317 318 319 327 328 329 329 333 329
294 295 295 295 296 297 298 299 296 295 295 294 294 297 303 298 294 295 295 296 297 298 309 312 312 313 313 312 312 312 314 312 317 318 319 318 324 324 325 327 330 331 329
294 294 293 293 293 292 293 293 293 296 294 294 293 293 293 295 294 293 294 293 293 295 309 310 310 311 311 311 312 313 313 316 320 319 320 324 328 327 321 329 329 329 327
293 292 292 292 292 292 293 293 293 294 294 295 294 294 293 293 292 293 292 292 305 302 307 307 308 310 312 313 313 314 317 318 319 321 321 328 327 326 327 329 329 328 326
291 290 291 292 292 292 294 294 294 294 294 295 297 295 293 293 292 292 292 298 302 304 305 307 310 312 313 314 315 316 318 319 320 322 324 326 328 330 329 329 328 308 313
290 289 289 291 292 293 293 293 293 294 294 295 296 297 299 293 293 294 296 298 301 306 308 308 311 312 313 314 319 319 319 320 323 324 324 329 326 326 329 327 325 325 324
289 290 288 290 290 291 292 293 294 295 296 296 297 298 295 298 297 297 298 300 302 306 309 311 310 312 313 314 318 317 320 324 324 324 326 328 326 330 330 328 325 324 323
290 290 290 290 292 294 299 299 298 300 304 302 298 293 290 301 300 300 300 304 305 306 310 311 312 313 314 315 318 321 323 322 324 326 328 328 331 329 327 326 325 324 324
290 291 292 297 303 298 301 302 304 308 306 302 299 299 300 300 301 303 304 308 306 307 311 313 314 316 318 322 325 325 325 323 328 328 327 331 330 328 327 324 323 323 323
294 296 304 303 302 302 301 301 300 297 304 304 305 306 307 308 309 309 310 311 312 312 313 314 317 318 317 323 327 325 330 330 328 329 331 332 330 322 326 324 323 325 324
305 302 300 300 300 300 299 298 298 298 298 299 301 302 305 307 308 309 311 314 316 316 316 314 312 315 323 326 325 327 313 297 321 315 333 332 328 328 327 326 324 322 320
300 299 297 298 296 295 295 295 295 295 295 295 295 296 297 298 300 300 300 301 301 301 301 304 310 316 320 319 317 297 294 298 310 302 330 330 328 327 324 321 319 315 310

GFSGL_sfc_thetae_114.txt.gz
Theta_e
325 320 328 330 331 330 331 331 332 336 340 339 340 337 335 334 324 324 321 324 339 340 341 341 340 339 338 336 337 333 332 331 323 327 332 335 334 332 337 338 341 339 339
321 322 321 329 329 329 329 330 331 328 330 332 337 336 334 329 320 317 313 326 330 335 337 335 335 336 337 335 332 328 325 328 324 320 324 325 326 330 331 333 336 342 339
319 317 321 321 324 326 326 326 328 324 324 326 328 330 331 329 327 331 330 331 327 329 331 331 332 331 329 328 329 328 325 325 322 319 318 320 320 321 321 324 333 335 338
316 316 317 317 323 324 324 323 322 321 320 321 322 326 326 327 327 327 328 330 328 328 330 329 328 326 327 327 327 326 324 322 320 320 317 317 318 321 324 323 326 329 330
314 314 315 317 317 321 320 320 321 319 319 319 319 322 323 326 323 326 325 328 329 328 330 327 328 327 327 327 326 325 322 318 316 314 313 312 312 315 314 317 320 325 327
314 313 313 314 315 315 319 319 320 319 318 318 318 321 322 323 310 309 324 328 329 328 326 325 326 320 317 313 312 312 316 317 316 314 312 311 314 316 317 317 318 317 316
312 312 312 312 312 313 313 318 318 318 316 314 316 317 318 321 312 306 306 326 326 326 325 325 323 323 321 321 311 310 309 308 310 316 315 316 316 318 319 319 319 320 319
309 308 309 310 310 311 312 312 316 318 316 315 315 316 317 319 307 304 305 318 323 328 327 327 327 325 322 323 323 318 318 319 316 314 314 316 319 322 323 319 316 316 317
307 307 306 307 305 305 307 312 313 316 316 315 314 313 313 316 308 305 308 319 318 319 324 329 328 327 316 306 323 321 322 322 315 308 309 307 304 300 303 309 310 312 314
305 305 306 305 305 304 304 305 310 311 314 315 315 316 313 315 307 301 306 320 318 318 316 327 312 323 310 304 320 321 319 319 320 319 320 311 305 312 305 309 314 314 316
305 305 305 305 304 305 304 303 304 308 309 311 312 314 314 315 317 303 300 314 316 319 319 320 322 305 304 303 306 322 318 320 317 318 317 315 316 317 318 319 320 320 319
304 302 303 303 302 302 303 302 303 304 304 305 308 311 312 314 307 305 299 300 312 320 320 321 321 306 301 299 301 307 303 307 316 313 311 311 312 313 314 317 323 329 329
301 301 302 301 300 301 300 300 301 301 300 301 301 303 308 311 312 303 301 297 299 312 321 317 304 301 299 301 300 302 300 313 313 311 310 311 313 314 316 317 327 329 330
298 298 299 298 299 299 299 299 299 299 299 300 301 301 303 307 310 312 312 309 300 305 308 316 313 308 305 310 308 305 313 314 313 311 312 313 314 313 313 315 321 323 326
296 296 297 297 297 297 298 299 298 300 300 299 300 301 302 303 305 297 300 308 303 306 309 316 316 316 315 315 317 315 314 314 312 312 313 312 312 313 313 316 320 321 321
294 294 294 295 296 296 296 297 296 295 295 293 294 297 301 298 294 295 295 294 292 292 303 311 313 314 313 315 315 314 314 311 314 315 314 314 313 312 312 316 320 321 321
294 294 294 294 295 294 294 295 294 296 294 293 292 291 292 293 294 292 293 293 293 294 299 310 311 313 314 314 316 314 314 315 316 315 314 313 313 313 311 318 318 323 319
293 293 293 293 292 291 291 291 292 291 291 292 294 293 292 291 291 291 291 293 296 298 301 302 312 312 314 314 314 316 315 315 315 315 315 314 314 314 316 317 318 321 319
290 290 291 291 291 290 290 290 291 291 290 290 292 293 293 292 292 291 290 295 295 297 300 303 308 313 313 314 316 315 315 315 314 313 313 314 316 317 317 318 319 303 308
288 289 288 289 289 289 289 289 289 290 290 290 290 292 293 292 293 293 295 296 296 297 300 302 306 309 311 313 313 313 312 312 314 314 314 317 318 320 318 320 322 321 319
287 288 287 288 288 289 289 289 289 289 290 291 291 293 291 294 294 295 295 297 298 299 300 302 306 307 309 310 311 311 311 312 313 313 314 315 316 319 321 323 322 321 322
289 289 290 290 291 291 291 292 292 292 292 292 293 294 288 293 296 296 297 297 300 302 304 305 306 308 308 309 309 311 314 314 315 316 317 318 320 320 323 322 320 322 322
292 292 293 294 297 295 297 299 302 300 297 298 297 296 293 294 296 297 298 299 301 303 305 306 307 308 310 311 312 312 311 312 314 317 318 320 322 323 322 321 321 321 321
299 298 298 297 297 298 297 297 298 295 298 301 299 296 296 296 298 299 299 301 302 304 305 306 307 309 309 311 314 313 315 315 317 319 323 323 323 314 322 321 321 321 317
296 296 295 295 295 294 294 294 294 295 295 297 300 300 300 300 300 300 301 303 304 304 305 306 308 308 309 311 314 314 308 291 304 306 324 325 323 323 321 322 321 320 318
292 292 292 292 292 292 292 291 291 292 292 294 295 299 300 301 302 302 303 305 305 306 307 308 310 310 310 312 312 304 294 293 301 292 319 324 322 321 321 321 321 317 315

GFSGL_sfc_thetae_117.txt.gz
Theta_e
314 314 315 318 320 321 320 321 321 323 323 323 323 324 330 326 324 322 323 323 323 320 321 321 321 325 334 332 331 328 325 324 318 315 323 327 327 327 327 330 334 333 333
310 310 311 315 317 316 316 317 319 319 316 320 321 322 322 327 325 324 323 325 322 322 318 317 318 331 331 329 327 323 320 321 320 316 317 319 317 318 319 319 324 334 335
310 309 309 309 311 315 316 316 317 316 316 315 317 318 322 321 324 322 320 321 320 322 318 320 325 328 328 327 324 320 319 318 316 312 311 313 313 312 314 317 321 326 332
308 307 306 307 309 310 314 316 316 317 316 315 315 317 321 321 321 323 321 318 319 325 323 327 327 328 328 325 321 319 317 313 312 310 307 308 309 311 314 311 312 317 321
307 307 306 308 309 309 309 313 315 315 316 316 315 316 318 320 322 316 317 320 323 319 322 325 326 324 322 321 320 316 315 310 308 306 304 304 304 307 308 310 309 313 314
306 306 308 307 307 307 307 309 313 314 314 314 312 314 316 319 307 307 312 316 319 321 320 320 321 321 321 317 316 315 312 310 307 306 304 304 305 309 309 309 310 310 309
305 306 307 306 305 305 306 306 306 310 313 312 310 311 312 313 309 305 308 316 316 317 318 316 318 318 315 314 310 310 309 308 308 308 306 307 308 310 311 309 310 311 311
304 304 305 304 303 303 303 303 302 304 308 311 310 309 310 313 307 305 307 314 315 316 316 317 316 315 315 314 311 309 309 309 307 310 309 310 312 313 313 313 311 309 310
303 303 304 304 303 301 300 300 302 303 303 306 310 309 309 310 305 301 305 314 314 316 318 315 313 317 310 306 315 312 311 312 311 307 306 304 303 302 306 304 304 303 305
301 302 302 302 301 300 299 299 300 302 302 303 305 310 309 310 303 300 304 314 313 315 316 315 309 312 303 302 316 315 313 313 315 311 309 304 302 306 302 305 306 304 305
303 303 302 300 299 299 300 299 299 300 300 301 302 302 306 310 310 301 300 311 312 314 313 312 316 305 304 303 300 316 315 313 311 312 312 310 309 309 310 312 310 310 308
300 300 300 301 301 302 300 298 297 298 298 298 300 300 302 305 304 303 299 299 306 311 315 317 314 301 304 303 305 306 302 308 313 310 307 305 305 306 307 309 310 314 317
295 295 296 298 299 301 299 297 297 298 297 297 297 298 299 301 304 302 299 298 297 302 313 312 307 301 299 301 300 301 301 312 310 307 305 305 305 307 308 308 310 312 321
293 293 294 296 296 298 299 298 297 297 295 295 296 297 298 300 301 304 306 304 301 301 303 307 306 307 306 307 306 302 308 311 312 308 305 306 307 307 307 307 307 310 315
292 293 293 294 294 295 297 296 296 298 297 296 296 296 296 296 299 300 301 301 295 295 296 304 307 309 309 308 309 308 307 309 308 307 306 306 307 307 307 307 308 311 312
290 292 293 294 294 294 294 295 295 294 294 293 293 295 299 296 294 294 294 293 292 293 296 298 303 307 309 309 308 310 307 308 309 308 306 306 306 307 308 307 310 312 312
288 289 290 292 292 293 293 293 292 294 294 293 291 292 291 294 293 293 293 293 292 295 296 294 296 305 307 308 309 309 308 309 309 309 309 308 309 309 305 307 310 313 315
289 289 288 289 290 291 291 291 292 291 290 292 293 293 292 291 291 291 291 292 294 295 297 296 297 300 307 308 308 308 308 310 310 310 310 309 310 310 308 308 312 313 315
287 287 288 289 290 290 291 290 290 290 290 291 292 292 292 291 291 291 291 294 295 295 297 297 297 300 305 307 308 309 309 309 309 310 309 310 310 309 309 312 314 301 305
287 287 287 288 288 288 289 289 289 288 289 289 289 289 291 290 291 292 293 294 295 295 296 297 299 299 303 307 307 307 310 307 309 309 308 309 309 312 312 314 315 315 315
288 288 287 287 288 289 289 289 289 289 288 289 290 291 289 291 292 292 293 293 294 296 296 297 299 300 303 304 307 308 305 308 309 307 306 307 310 311 315 316 316 318 320
292 291 290 290 291 291 292 292 292 291 291 291 291 292 287 291 292 293 294 295 296 297 298 298 300 301 302 306 306 306 309 308 309 309 309 309 311 313 314 316 318 318 318
297 295 296 296 297 294 296 297 298 298 297 296 295 294 291 292 293 294 296 297 297 298 299 299 300 301 304 308 310 307 308 308 307 309 309 311 313 315 316 317 318 317 318
294 294 294 294 294 294 293 293 294 292 295 298 297 296 294 294 294 295 297 298 298 299 300 300 302 303 305 306 309 310 308 307 308 308 310 311 312 312 317 318 318 318 316
291 291 291 290 290 290 290 290 290 291 293 295 298 297 296 296 297 298 298 299 299 300 301 300 300 303 303 303 304 308 302 292 303 298 311 315 317 318 318 317 317 317 315
287 288 288 287 287 287 287 287 288 288 289 291 293 295 298 298 299 299 299 299 300 299 298 298 300 302 304 305 305 299 294 291 299 290 306 314 317 317 318 319 318 316 313

GFSGL_sfc_thetae_120.txt.gz
Theta_e
312 311 311 311 316 317 316 317 316 316 316 315 317 319 320 319 323 323 320 320 321 321 320 320 320 319 317 317 319 320 323 324 321 321 322 320 322 324 325 321 324 324 327
309 308 309 311 313 312 313 313 314 314 314 314 315 317 318 319 318 321 322 323 320 320 320 319 318 320 317 320 323 320 323 326 322 319 318 319 319 315 314 314 318 325 327
308 307 307 306 307 308 311 313 313 313 314 314 314 313 315 318 318 320 322 324 323 323 322 322 319 318 319 321 324 324 324 325 321 317 315 313 311 311 312 312 314 315 322
306 305 304 304 305 305 307 308 310 312 313 313 313 314 315 317 319 316 317 319 317 318 321 321 317 321 320 319 323 323 320 318 313 311 309 307 306 307 309 308 307 309 313
305 304 304 305 305 306 306 307 307 309 310 312 313 313 313 315 317 314 313 315 317 320 319 322 320 323 323 324 325 318 316 313 310 307 305 304 302 303 304 307 306 308 310
305 305 305 305 306 305 305 305 305 307 308 310 311 312 312 314 309 307 309 313 317 316 315 318 322 320 321 315 315 314 315 311 307 304 301 299 301 305 306 306 306 305 305
304 304 305 305 305 304 303 303 301 301 303 304 307 310 310 310 305 303 305 313 312 315 315 317 317 323 320 322 313 311 309 308 309 305 302 303 304 307 307 306 306 306 307
304 304 305 305 304 303 301 300 299 298 298 300 303 306 308 310 304 302 303 310 311 313 315 316 316 316 319 317 314 312 310 307 306 307 306 307 309 309 311 309 307 306 305
302 303 304 304 303 302 300 299 298 298 297 298 300 302 306 309 304 301 302 308 311 312 315 316 316 316 303 301 311 308 306 307 307 304 305 303 302 302 307 308 304 301 301
300 301 301 301 300 299 299 297 297 296 297 299 299 300 302 307 304 300 301 310 311 313 315 316 307 313 301 303 309 310 307 307 311 310 308 306 302 304 302 307 304 302 301
298 299 299 299 299 299 299 298 297 298 298 298 299 298 298 301 306 300 299 307 310 311 312 313 314 304 300 300 304 309 308 310 310 310 309 308 307 307 308 306 306 306 304
295 295 295 296 296 297 297 298 298 299 298 297 296 296 299 300 301 300 298 298 306 311 312 314 314 305 301 297 299 300 298 302 310 309 308 308 306 305 305 307 307 308 310
292 292 292 294 294 295 294 296 297 298 297 296 296 295 296 298 300 299 298 296 299 306 310 309 305 301 298 299 299 298 299 306 310 307 307 308 307 307 306 306 307 308 309
290 290 291 291 293 293 294 296 297 297 296 296 296 296 296 298 297 299 301 301 298 299 301 303 303 303 302 305 305 304 305 308 311 312 308 311 306 305 305 305 305 305 307
289 289 289 291 292 293 294 294 295 296 296 296 296 297 295 295 297 296 297 297 295 296 297 299 302 303 306 307 307 307 305 307 309 309 306 305 305 305 305 305 305 305 306
287 288 288 290 290 292 293 294 294 293 293 293 292 294 297 295 294 294 294 293 292 293 296 296 297 302 306 308 309 309 306 305 307 306 306 305 306 305 305 305 305 305 305
287 287 288 289 289 289 290 290 290 293 293 293 292 292 291 293 292 293 292 291 291 293 294 294 294 296 301 306 308 309 307 307 307 307 307 306 306 305 303 305 305 306 307
287 288 287 288 288 288 289 289 290 290 290 291 293 292 292 291 291 291 291 291 293 294 296 294 295 296 298 302 306 307 307 307 307 306 306 306 305 306 305 305 306 306 308
286 286 287 287 288 288 289 289 290 289 289 290 291 291 292 291 290 290 290 294 294 294 295 295 296 298 297 300 305 307 308 307 308 307 307 307 307 306 305 306 305 296 301
287 288 288 288 288 288 288 288 288 289 289 289 289 289 291 289 290 291 292 293 293 295 296 295 296 299 297 299 302 306 306 305 305 307 307 308 307 307 306 306 308 310 310
289 291 289 289 288 289 289 289 290 289 289 289 289 290 288 289 289 290 291 293 294 295 296 297 296 298 300 299 301 303 304 305 305 306 307 309 308 308 310 311 312 313 314
294 295 295 294 294 294 294 295 294 293 292 291 291 291 286 290 291 292 293 293 294 295 297 297 296 297 300 301 303 302 304 305 306 308 306 305 307 308 309 311 312 313 314
292 292 292 292 292 291 292 293 293 293 295 297 296 292 290 290 291 292 294 295 295 295 297 297 297 297 301 301 306 306 306 306 307 307 307 308 309 309 311 312 313 313 315
289 289 289 288 288 289 289 289 290 290 292 295 296 295 293 293 293 294 295 297 296 297 297 297 297 297 298 302 304 306 306 307 309 306 307 307 307 305 310 311 313 315 316
287 287 287 286 286 286 286 287 287 288 289 290 293 296 295 295 294 295 297 298 297 297 298 299 297 297 298 302 305 306 299 290 304 298 309 309 310 311 312 313 314 316 314
285 285 285 285 284 285 284 285 285 285 286 287 289 291 294 296 297 297 298 298 298 298 299 296 297 299 300 301 302 297 291 290 297 291 306 308 309 311 313 314 315 315 312

GFSGL_sfc_thetae_123.txt.gz
Theta_e
311 310 310 310 314 315 314 314 314 314 314 313 314 315 315 315 316 315 316 319 319 319 321 322 321 317 320 319 320 320 319 317 314 317 320 321 323 322 326 325 323 319 321
310 308 308 310 312 311 311 311 312 313 313 313 313 314 315 315 315 314 316 319 320 321 322 321 320 322 317 319 317 317 317 318 317 314 321 320 320 321 315 314 316 319 317
307 306 306 307 307 307 307 309 310 310 310 311 313 312 312 313 314 316 317 318 318 319 320 322 321 321 318 316 318 318 319 321 321 319 319 317 315 313 313 312 312 311 316
305 304 304 304 303 304 305 306 307 308 308 308 309 311 312 313 314 316 315 314 313 316 317 318 319 321 321 319 319 321 320 320 319 318 313 311 309 309 309 308 305 306 308
304 303 303 303 303 304 304 305 306 306 307 307 308 309 310 311 313 312 313 312 312 312 315 319 320 320 320 319 319 320 320 317 313 310 306 306 305 305 305 307 306 305 306
303 303 304 304 304 304 304 304 304 304 305 306 307 308 308 311 307 306 308 310 311 312 312 313 316 318 319 314 314 314 318 317 313 310 308 305 303 304 306 306 305 303 302
302 304 305 305 305 304 305 304 303 302 303 303 303 304 305 305 304 302 304 307 309 310 311 312 315 319 316 320 312 312 311 310 313 311 306 301 301 306 307 306 306 304 304
300 301 303 303 303 304 302 301 300 299 298 300 300 302 303 304 302 300 302 305 307 310 311 312 312 312 314 311 316 316 317 314 313 306 304 304 306 308 309 309 306 305 303
297 298 300 300 299 299 299 298 298 296 297 297 298 300 300 301 301 300 301 306 306 308 311 312 314 314 306 303 314 316 313 311 305 303 303 302 301 302 307 308 305 300 299
294 296 297 297 297 297 297 297 298 297 298 299 299 300 301 300 298 298 300 305 306 307 310 312 307 312 302 300 312 312 308 306 308 305 305 303 302 302 303 309 305 301 300
294 294 294 294 294 295 295 296 296 297 298 298 299 300 300 300 300 298 298 303 305 308 309 312 314 299 299 299 301 311 308 310 308 309 308 307 306 306 305 305 305 304 302
291 291 291 291 292 294 293 294 294 294 294 294 296 298 300 300 298 297 297 297 300 306 309 312 311 301 296 297 299 301 299 303 309 309 307 306 305 306 306 306 306 306 306
289 289 290 291 292 292 292 292 292 293 294 296 296 297 297 299 299 297 296 296 297 300 309 308 303 302 299 298 296 298 295 305 306 306 306 306 306 308 306 305 306 306 306
287 288 289 289 290 291 293 294 293 292 293 295 297 296 297 297 298 299 298 298 297 299 303 304 304 303 302 304 305 300 305 305 307 307 307 308 306 304 305 305 304 303 304
287 288 288 289 289 289 291 291 292 295 295 294 294 295 295 296 297 297 297 298 297 299 300 299 300 303 305 307 307 309 305 305 306 309 308 306 305 305 305 304 303 303 303
286 287 287 288 288 289 289 289 291 292 293 293 293 294 296 294 293 293 293 292 293 293 297 296 298 301 303 304 306 308 308 306 307 308 306 306 305 305 304 304 303 303 303
286 286 287 287 287 287 288 288 287 290 292 292 291 291 292 293 293 293 293 292 290 291 297 294 295 299 303 305 307 309 309 309 308 306 306 305 305 304 301 303 303 304 304
285 287 286 286 287 287 288 288 288 288 287 289 292 292 292 291 291 291 291 290 294 294 296 296 293 295 298 301 305 307 309 309 307 306 305 305 304 304 303 303 304 303 304
285 286 287 288 288 288 288 288 288 288 288 289 290 291 291 291 290 290 290 294 295 295 296 296 296 295 296 297 300 305 308 307 307 306 305 305 304 303 303 304 303 293 297
287 288 289 290 290 289 289 288 288 288 288 289 290 290 291 289 289 290 291 293 295 296 296 296 297 296 296 296 297 300 304 304 304 305 305 305 304 304 304 304 304 304 304
289 292 290 294 293 292 291 291 291 291 290 290 290 291 288 290 289 290 291 292 293 294 296 296 297 297 297 297 297 298 300 304 304 305 305 305 304 304 305 305 305 306 309
290 291 291 290 291 291 291 292 292 292 293 294 295 291 286 290 290 290 290 292 294 295 296 296 295 296 296 297 298 299 299 302 304 305 304 304 305 306 306 306 308 309 310
289 288 288 288 289 288 289 289 289 290 290 293 294 292 290 290 291 291 292 293 294 295 296 296 296 295 297 298 301 301 301 303 305 305 304 305 306 307 307 307 309 309 310
287 287 286 286 286 286 286 286 287 287 288 290 292 294 293 292 292 292 294 295 295 295 295 296 297 296 297 299 300 302 306 305 306 308 307 305 304 301 306 307 309 310 311
285 285 284 284 284 284 284 284 285 285 286 287 288 290 294 294 294 294 295 296 296 296 296 296 297 296 295 296 298 303 301 291 304 299 306 306 306 307 307 308 309 312 313
283 283 283 283 282 282 282 282 283 283 283 285 286 287 288 290 295 296 296 297 297 297 297 297 297 295 295 297 299 296 290 289 297 290 304 306 305 306 307 310 311 312 312